Time,TemperatureF,DewpointF,PressureIn,WindDirection,WindDirectionDegrees,WindSpeedMPH,WindSpeedGustMPH,Humidity,HourlyPrecipIn,Conditions,Clouds,dailyrainin,SoftwareType,DateUTC
2013-01-24 00:00:00,34.0,10.5,30.24,WSW,242,2.0,12.0,37,0.00,,---,0.00,VWS V14.01,2013-01-24 05:00:00,
2013-01-24 00:01:00,34.1,10.6,30.24,West,278,10.0,10.0,37,0.00,,---,0.00,VWS V14.01,2013-01-24 05:01:00,
2013-01-24 00:02:00,34.1,10.6,30.24,West,278,9.0,10.0,37,0.00,,---,0.00,VWS V14.01,2013-01-24 05:02:00,
2013-01-24 00:03:00,34.1,10.6,30.24,SW,223,6.0,10.0,37,0.00,,---,0.00,VWS V14.01,2013-01-24 05:03:00,
2013-01-24 00:04:00,34.1,9.3,30.24,SW,233,1.0,10.0,35,0.00,,---,0.00,VWS V14.01,2013-01-24 05:04:00,
2013-01-24 00:05:00,34.3,10.1,30.24,WNW,285,5.0,10.0,36,0.00,,---,0.00,VWS V14.01,2013-01-24 05:05:00,
2013-01-24 00:06:00,34.3,10.1,30.24,NW,314,5.0,12.0,36,0.00,,---,0.00,VWS V14.01,2013-01-24 05:06:00,
2013-01-24 00:07:00,34.3,10.1,30.24,NNW,343,7.0,12.0,36,0.00,,---,0.00,VWS V14.01,2013-01-24 05:07:00,
2013-01-24 00:08:00,34.1,9.3,30.24,NW,316,7.0,12.0,35,0.00,,---,0.00,VWS V14.01,2013-01-24 05:08:00,
2013-01-24 00:09:00,34.1,9.3,30.24,NW,306,6.0,12.0,35,0.00,,---,0.00,VWS V14.01,2013-01-24 05:09:00,
2013-01-24 00:10:00,34.3,9.5,30.24,SW,234,5.0,12.0,35,0.00,,---,0.00,VWS V14.01,2013-01-24 05:10:00,
2013-01-24 00:11:00,34.4,10.2,30.24,SW,216,1.0,5.0,36,0.00,,---,0.00,VWS V14.01,2013-01-24 05:11:00,
2013-01-24 00:12:00,34.4,9.6,30.24,West,265,3.0,6.0,35,0.00,,---,0.00,VWS V14.01,2013-01-24 05:12:00,
2013-01-24 00:13:00,34.6,10.4,30.24,WSW,242,3.0,6.0,36,0.00,,---,0.00,VWS V14.01,2013-01-24 05:13:00,
2013-01-24 00:14:00,34.7,9.9,30.24,WNW,298,2.0,7.0,35,0.00,,---,0.00,VWS V14.01,2013-01-24 05:14:00,
2013-01-24 00:15:00,34.7,9.9,30.22,WNW,283,1.0,7.0,35,0.00,,---,0.00,VWS V14.01,2013-01-24 05:15:00,
2013-01-24 00:16:00,34.9,10.7,30.22,WNW,283,0.0,7.0,36,0.00,,---,0.00,VWS V14.01,2013-01-24 05:16:00,
2013-01-24 00:17:00,34.9,10.0,30.22,WNW,283,0.0,7.0,35,0.00,,---,0.00,VWS V14.01,2013-01-24 05:17:00,
2013-01-24 00:18:00,35.0,10.8,30.22,WNW,283,0.0,7.0,36,0.00,,---,0.00,VWS V14.01,2013-01-24 05:18:00,
2013-01-24 00:19:00,35.0,10.8,30.22,SSW,213,5.0,7.0,36,0.00,,---,0.00,VWS V14.01,2013-01-24 05:19:00,
2013-01-24 00:20:00,35.2,10.9,30.22,SSW,213,0.0,7.0,36,0.00,,---,0.00,VWS V14.01,2013-01-24 05:20:00,
2013-01-24 00:21:00,35.3,11.0,30.22,West,268,3.0,5.0,36,0.00,,---,0.00,VWS V14.01,2013-01-24 05:21:00,
2013-01-24 00:22:00,35.3,11.0,30.22,WSW,241,7.0,11.0,36,0.00,,---,0.00,VWS V14.01,2013-01-24 05:22:00,
2013-01-24 00:23:00,35.3,10.4,30.22,SW,235,7.0,11.0,35,0.00,,---,0.00,VWS V14.01,2013-01-24 05:23:00,
2013-01-24 00:24:00,35.3,10.4,30.22,SW,227,0.0,11.0,35,0.00,,---,0.00,VWS V14.01,2013-01-24 05:24:00,
2013-01-24 00:25:00,35.3,10.4,30.22,SW,231,2.0,11.0,35,0.00,,---,0.00,VWS V14.01,2013-01-24 05:25:00,
2013-01-24 00:26:00,35.3,11.0,30.22,SW,221,5.0,11.0,36,0.00,,---,0.00,VWS V14.01,2013-01-24 05:26:00,
2013-01-24 00:27:00,35.3,10.4,30.22,SW,220,6.0,11.0,35,0.00,,---,0.00,VWS V14.01,2013-01-24 05:27:00,
2013-01-24 00:28:00,35.3,11.0,30.22,West,278,5.0,11.0,36,0.00,,---,0.00,VWS V14.01,2013-01-24 05:28:00,
2013-01-24 00:29:00,35.3,10.4,30.22,WNW,302,2.0,11.0,35,0.00,,---,0.00,VWS V14.01,2013-01-24 05:29:00,
2013-01-24 00:30:00,35.3,10.4,30.22,WNW,295,6.0,12.0,35,0.00,,---,0.00,VWS V14.01,2013-01-24 05:30:00,
2013-01-24 00:31:00,35.2,10.9,30.22,WNW,286,3.0,9.0,36,0.00,,---,0.00,VWS V14.01,2013-01-24 05:31:00,
2013-01-24 00:32:00,35.2,10.9,30.22,WNW,285,4.0,16.0,36,0.00,,---,0.00,VWS V14.01,2013-01-24 05:32:00,
2013-01-24 00:33:00,35.2,10.9,30.22,West,262,7.0,16.0,36,0.00,,---,0.00,VWS V14.01,2013-01-24 05:33:00,
2013-01-24 00:34:00,35.0,10.1,30.22,WNW,299,6.0,16.0,35,0.00,,---,0.00,VWS V14.01,2013-01-24 05:34:00,
2013-01-24 00:35:00,35.0,10.1,30.22,West,268,8.0,16.0,35,0.00,,---,0.00,VWS V14.01,2013-01-24 05:35:00,
2013-01-24 00:36:00,34.9,10.0,30.22,WNW,282,3.0,16.0,35,0.00,,---,0.00,VWS V14.01,2013-01-24 05:36:00,
2013-01-24 00:37:00,34.9,10.7,30.22,West,275,1.0,16.0,36,0.00,,---,0.00,VWS V14.01,2013-01-24 05:37:00,
2013-01-24 00:38:00,34.9,11.3,30.22,North,2,6.0,16.0,37,0.00,,---,0.00,VWS V14.01,2013-01-24 05:38:00,
2013-01-24 00:39:00,34.7,10.5,30.22,SW,234,3.0,16.0,36,0.00,,---,0.00,VWS V14.01,2013-01-24 05:39:00,
2013-01-24 00:40:00,34.9,11.9,30.22,SW,234,2.0,16.0,38,0.00,,---,0.00,VWS V14.01,2013-01-24 05:40:00,
2013-01-24 00:41:00,35.0,12.0,30.22,WSW,244,4.0,6.0,38,0.00,,---,0.00,VWS V14.01,2013-01-24 05:41:00,
2013-01-24 00:42:00,35.2,12.1,30.22,SW,234,0.0,6.0,38,0.00,,---,0.00,VWS V14.01,2013-01-24 05:42:00,
2013-01-24 00:43:00,35.3,12.2,30.22,SW,234,0.0,6.0,38,0.00,,---,0.00,VWS V14.01,2013-01-24 05:43:00,
2013-01-24 00:44:00,35.3,12.2,30.22,SW,226,3.0,6.0,38,0.00,,---,0.00,VWS V14.01,2013-01-24 05:44:00,
2013-01-24 00:45:00,35.5,11.2,30.22,SW,227,2.0,6.0,36,0.00,,---,0.00,VWS V14.01,2013-01-24 05:45:00,
2013-01-24 00:46:00,35.6,11.9,30.22,SW,227,5.0,6.0,37,0.00,,---,0.00,VWS V14.01,2013-01-24 05:46:00,
2013-01-24 00:47:00,35.6,11.9,30.22,WSW,247,5.0,7.0,37,0.00,,---,0.00,VWS V14.01,2013-01-24 05:47:00,
2013-01-24 00:48:00,35.8,12.1,30.22,West,262,3.0,8.0,37,0.00,,---,0.00,VWS V14.01,2013-01-24 05:48:00,
2013-01-24 00:49:00,35.8,12.1,30.22,WNW,303,6.0,8.0,37,0.00,,---,0.00,VWS V14.01,2013-01-24 05:49:00,
2013-01-24 00:50:00,35.8,12.1,30.22,ENE,69,3.0,8.0,37,0.00,,---,0.00,VWS V14.01,2013-01-24 05:50:00,
2013-01-24 00:51:00,35.6,11.3,30.22,ENE,66,0.0,6.0,36,0.00,,---,0.00,VWS V14.01,2013-01-24 05:51:00,
2013-01-24 00:52:00,35.5,10.6,30.22,ENE,66,0.0,6.0,35,0.00,,---,0.00,VWS V14.01,2013-01-24 05:52:00,
2013-01-24 00:53:00,35.5,10.6,30.22,WSW,237,6.0,6.0,35,0.00,,---,0.00,VWS V14.01,2013-01-24 05:53:00,
2013-01-24 00:54:00,35.5,11.2,30.22,SW,231,4.0,7.0,36,0.00,,---,0.00,VWS V14.01,2013-01-24 05:54:00,
2013-01-24 00:55:00,35.5,11.2,30.22,WSW,257,5.0,7.0,36,0.00,,---,0.00,VWS V14.01,2013-01-24 05:55:00,
2013-01-24 00:56:00,35.5,10.6,30.22,WSW,252,6.0,7.0,35,0.00,,---,0.00,VWS V14.01,2013-01-24 05:56:00,
2013-01-24 00:57:00,35.5,10.6,30.22,WSW,237,4.0,7.0,35,0.00,,---,0.00,VWS V14.01,2013-01-24 05:57:00,
2013-01-24 00:58:00,35.5,11.2,30.22,WSW,250,6.0,7.0,36,0.00,,---,0.00,VWS V14.01,2013-01-24 05:58:00,
2013-01-24 00:59:00,35.5,11.2,30.22,West,275,8.0,11.0,36,0.00,,---,0.00,VWS V14.01,2013-01-24 05:59:00,
2013-01-24 01:00:00,35.5,10.6,30.23,WSW,255,5.0,11.0,35,0.00,,---,0.00,VWS V14.01,2013-01-24 06:00:00,
2013-01-24 01:01:00,35.5,10.6,30.23,SW,228,8.0,8.0,35,0.00,,---,0.00,VWS V14.01,2013-01-24 06:01:00,
2013-01-24 01:02:00,35.3,10.4,30.23,West,259,6.0,11.0,35,0.00,,---,0.00,VWS V14.01,2013-01-24 06:02:00,
2013-01-24 01:03:00,35.3,9.8,30.23,West,276,5.0,11.0,34,0.00,,---,0.00,VWS V14.01,2013-01-24 06:03:00,
2013-01-24 01:04:00,35.2,9.7,30.23,WSW,252,5.0,11.0,34,0.00,,---,0.00,VWS V14.01,2013-01-24 06:04:00,
2013-01-24 01:05:00,35.2,9.7,30.23,WNW,303,6.0,11.0,34,0.00,,---,0.00,VWS V14.01,2013-01-24 06:05:00,
2013-01-24 01:06:00,35.2,10.3,30.23,West,268,3.0,11.0,35,0.00,,---,0.00,VWS V14.01,2013-01-24 06:06:00,
2013-01-24 01:07:00,35.2,10.3,30.23,SW,231,2.0,11.0,35,0.00,,---,0.00,VWS V14.01,2013-01-24 06:07:00,
2013-01-24 01:08:00,35.2,9.7,30.23,SSW,213,10.0,11.0,34,0.00,,---,0.00,VWS V14.01,2013-01-24 06:08:00,
2013-01-24 01:09:00,35.2,9.7,30.23,WSW,250,6.0,11.0,34,0.00,,---,0.00,VWS V14.01,2013-01-24 06:09:00,
2013-01-24 01:10:00,35.0,9.5,30.23,WSW,238,11.0,11.0,34,0.00,,---,0.00,VWS V14.01,2013-01-24 06:10:00,
2013-01-24 01:11:00,35.0,9.5,30.23,West,259,5.0,11.0,34,0.00,,---,0.00,VWS V14.01,2013-01-24 06:11:00,
2013-01-24 01:12:00,35.0,10.1,30.23,WSW,255,6.0,11.0,35,0.00,,---,0.00,VWS V14.01,2013-01-24 06:12:00,
2013-01-24 01:13:00,35.2,10.3,30.23,NNW,327,3.0,11.0,35,0.00,,---,0.00,VWS V14.01,2013-01-24 06:13:00,
2013-01-24 01:14:00,35.2,10.3,30.23,NW,322,3.0,11.0,35,0.00,,---,0.00,VWS V14.01,2013-01-24 06:14:00,
2013-01-24 01:15:00,35.2,10.3,30.22,WSW,252,2.0,11.0,35,0.00,,---,0.00,VWS V14.01,2013-01-24 06:15:00,
2013-01-24 01:16:00,35.3,10.4,30.22,WSW,247,3.0,11.0,35,0.00,,---,0.00,VWS V14.01,2013-01-24 06:16:00,
2013-01-24 01:17:00,35.3,9.8,30.22,West,261,2.0,11.0,34,0.00,,---,0.00,VWS V14.01,2013-01-24 06:17:00,
2013-01-24 01:18:00,35.3,9.8,30.22,WSW,248,4.0,11.0,34,0.00,,---,0.00,VWS V14.01,2013-01-24 06:18:00,
2013-01-24 01:19:00,35.5,10.6,30.22,WSW,257,5.0,11.0,35,0.00,,---,0.00,VWS V14.01,2013-01-24 06:19:00,
2013-01-24 01:20:00,35.5,10.6,30.22,WSW,248,5.0,11.0,35,0.00,,---,0.00,VWS V14.01,2013-01-24 06:20:00,
2013-01-24 01:21:00,35.5,9.9,30.22,WSW,247,0.0,5.0,34,0.00,,---,0.00,VWS V14.01,2013-01-24 06:21:00,
2013-01-24 01:22:00,35.6,9.4,30.22,WNW,285,5.0,6.0,33,0.00,,---,0.00,VWS V14.01,2013-01-24 06:22:00,
2013-01-24 01:23:00,35.6,10.0,30.22,West,275,6.0,6.0,34,0.00,,---,0.00,VWS V14.01,2013-01-24 06:23:00,
2013-01-24 01:24:00,35.6,10.0,30.22,West,264,3.0,6.0,34,0.00,,---,0.00,VWS V14.01,2013-01-24 06:24:00,
2013-01-24 01:25:00,35.8,10.2,30.22,West,275,3.0,6.0,34,0.00,,---,0.00,VWS V14.01,2013-01-24 06:25:00,
2013-01-24 01:26:00,35.8,9.5,30.22,WSW,247,3.0,6.0,33,0.00,,---,0.00,VWS V14.01,2013-01-24 06:26:00,
2013-01-24 01:27:00,35.8,9.5,30.22,WSW,251,8.0,8.0,33,0.00,,---,0.00,VWS V14.01,2013-01-24 06:27:00,
2013-01-24 01:28:00,35.8,8.8,30.22,West,259,5.0,8.0,32,0.00,,---,0.00,VWS V14.01,2013-01-24 06:28:00,
2013-01-24 01:29:00,35.8,8.1,30.22,West,276,6.0,8.0,31,0.00,,---,0.00,VWS V14.01,2013-01-24 06:29:00,
2013-01-24 01:30:00,35.6,8.0,30.22,West,274,0.0,8.0,31,0.00,,---,0.00,VWS V14.01,2013-01-24 06:30:00,
2013-01-24 01:31:00,35.6,8.7,30.22,West,261,5.0,12.0,32,0.00,,---,0.00,VWS V14.01,2013-01-24 06:31:00,
2013-01-24 01:32:00,35.6,8.7,30.22,West,261,2.0,12.0,32,0.00,,---,0.00,VWS V14.01,2013-01-24 06:32:00,
2013-01-24 01:33:00,35.6,8.0,30.22,West,262,3.0,12.0,31,0.00,,---,0.00,VWS V14.01,2013-01-24 06:33:00,
2013-01-24 01:34:00,35.6,8.0,30.22,WSW,250,3.0,12.0,31,0.00,,---,0.00,VWS V14.01,2013-01-24 06:34:00,
2013-01-24 01:35:00,35.5,7.9,30.22,WSW,250,1.0,12.0,31,0.00,,---,0.00,VWS V14.01,2013-01-24 06:35:00,
2013-01-24 01:36:00,35.5,8.6,30.22,WSW,250,0.0,12.0,32,0.00,,---,0.00,VWS V14.01,2013-01-24 06:36:00,
2013-01-24 01:37:00,35.6,8.7,30.22,WSW,250,0.0,12.0,32,0.00,,---,0.00,VWS V14.01,2013-01-24 06:37:00,
2013-01-24 01:38:00,35.6,8.7,30.22,WSW,250,0.0,12.0,32,0.00,,---,0.00,VWS V14.01,2013-01-24 06:38:00,
2013-01-24 01:39:00,35.8,8.1,30.22,WSW,250,2.0,12.0,31,0.00,,---,0.00,VWS V14.01,2013-01-24 06:39:00,
2013-01-24 01:40:00,35.8,8.1,30.22,WSW,252,0.0,12.0,31,0.00,,---,0.00,VWS V14.01,2013-01-24 06:40:00,
2013-01-24 01:41:00,35.8,8.1,30.22,WSW,252,2.0,2.0,31,0.00,,---,0.00,VWS V14.01,2013-01-24 06:41:00,
2013-01-24 01:42:00,35.8,8.1,30.22,WSW,242,3.0,3.0,31,0.00,,---,0.00,VWS V14.01,2013-01-24 06:42:00,
2013-01-24 01:43:00,35.9,7.5,30.22,WSW,242,5.0,5.0,30,0.00,,---,0.00,VWS V14.01,2013-01-24 06:43:00,
2013-01-24 01:44:00,35.9,7.5,30.22,West,259,5.0,5.0,30,0.00,,---,0.00,VWS V14.01,2013-01-24 06:44:00,
2013-01-24 01:45:00,35.9,8.2,30.22,WNW,290,6.0,8.0,31,0.00,,---,0.00,VWS V14.01,2013-01-24 06:45:00,
2013-01-24 01:46:00,35.9,8.2,30.22,WNW,302,2.0,8.0,31,0.00,,---,0.00,VWS V14.01,2013-01-24 06:46:00,
2013-01-24 01:47:00,35.8,8.1,30.22,NW,306,3.0,8.0,31,0.00,,---,0.00,VWS V14.01,2013-01-24 06:47:00,
2013-01-24 01:48:00,35.8,7.4,30.22,WNW,300,3.0,8.0,30,0.00,,---,0.00,VWS V14.01,2013-01-24 06:48:00,
2013-01-24 01:49:00,35.8,7.4,30.22,WNW,300,0.0,8.0,30,0.00,,---,0.00,VWS V14.01,2013-01-24 06:49:00,
2013-01-24 01:50:00,35.6,7.2,30.22,WNW,300,1.0,8.0,30,0.00,,---,0.00,VWS V14.01,2013-01-24 06:50:00,
2013-01-24 01:51:00,35.6,7.2,30.22,West,274,2.0,7.0,30,0.00,,---,0.00,VWS V14.01,2013-01-24 06:51:00,
2013-01-24 01:52:00,35.6,8.0,30.22,West,275,3.0,7.0,31,0.00,,---,0.00,VWS V14.01,2013-01-24 06:52:00,
2013-01-24 01:53:00,35.6,8.0,30.22,West,272,2.0,7.0,31,0.00,,---,0.00,VWS V14.01,2013-01-24 06:53:00,
2013-01-24 01:54:00,35.6,8.0,30.22,WNW,283,2.0,7.0,31,0.00,,---,0.00,VWS V14.01,2013-01-24 06:54:00,
2013-01-24 01:55:00,35.6,8.7,30.22,West,272,5.0,7.0,32,0.00,,---,0.00,VWS V14.01,2013-01-24 06:55:00,
2013-01-24 01:56:00,35.6,8.0,30.22,West,266,1.0,7.0,31,0.00,,---,0.00,VWS V14.01,2013-01-24 06:56:00,
2013-01-24 01:57:00,35.6,8.0,30.22,WSW,251,6.0,7.0,31,0.00,,---,0.00,VWS V14.01,2013-01-24 06:57:00,
2013-01-24 01:58:00,35.6,6.5,30.22,NW,319,6.0,8.0,29,0.00,,---,0.00,VWS V14.01,2013-01-24 06:58:00,
2013-01-24 01:59:00,35.6,6.5,30.22,SW,234,11.0,11.0,29,0.00,,---,0.00,VWS V14.01,2013-01-24 06:59:00,
2013-01-24 02:00:00,35.5,6.4,30.22,WSW,252,6.0,11.0,29,0.00,,---,0.00,VWS V14.01,2013-01-24 07:00:00,
2013-01-24 02:01:00,35.5,6.4,30.22,SW,226,6.0,8.0,29,0.00,,---,0.00,VWS V14.01,2013-01-24 07:01:00,
2013-01-24 02:02:00,35.3,7.0,30.22,West,279,6.0,8.0,30,0.00,,---,0.00,VWS V14.01,2013-01-24 07:02:00,
2013-01-24 02:03:00,35.3,7.7,30.22,West,275,4.0,8.0,31,0.00,,---,0.00,VWS V14.01,2013-01-24 07:03:00,
2013-01-24 02:04:00,35.3,7.7,30.22,WSW,242,5.0,8.0,31,0.00,,---,0.00,VWS V14.01,2013-01-24 07:04:00,
2013-01-24 02:05:00,35.5,7.9,30.22,WSW,238,6.0,8.0,31,0.00,,---,0.00,VWS V14.01,2013-01-24 07:05:00,
2013-01-24 02:06:00,35.5,8.6,30.22,WSW,254,6.0,8.0,32,0.00,,---,0.00,VWS V14.01,2013-01-24 07:06:00,
2013-01-24 02:07:00,35.5,7.2,30.22,WSW,252,5.0,8.0,30,0.00,,---,0.00,VWS V14.01,2013-01-24 07:07:00,
2013-01-24 02:08:00,35.5,7.2,30.22,WSW,248,7.0,8.0,30,0.00,,---,0.00,VWS V14.01,2013-01-24 07:08:00,
2013-01-24 02:09:00,35.5,7.2,30.22,WSW,250,7.0,10.0,30,0.00,,---,0.00,VWS V14.01,2013-01-24 07:09:00,
2013-01-24 02:10:00,35.3,6.2,30.22,WSW,241,7.0,10.0,29,0.00,,---,0.00,VWS V14.01,2013-01-24 07:10:00,
2013-01-24 02:11:00,35.3,6.2,30.22,WSW,242,10.0,12.0,29,0.00,,---,0.00,VWS V14.01,2013-01-24 07:11:00,
2013-01-24 02:12:00,35.2,6.1,30.22,West,278,4.0,12.0,29,0.00,,---,0.00,VWS V14.01,2013-01-24 07:12:00,
2013-01-24 02:13:00,35.2,6.1,30.22,West,275,2.0,12.0,29,0.00,,---,0.00,VWS V14.01,2013-01-24 07:13:00,
2013-01-24 02:14:00,35.2,6.9,30.22,West,274,4.0,12.0,30,0.00,,---,0.00,VWS V14.01,2013-01-24 07:14:00,
2013-01-24 02:15:00,35.2,7.6,30.23,West,274,1.0,12.0,31,0.00,,---,0.00,VWS V14.01,2013-01-24 07:15:00,
2013-01-24 02:16:00,35.2,6.9,30.23,West,275,3.0,12.0,30,0.00,,---,0.00,VWS V14.01,2013-01-24 07:16:00,
2013-01-24 02:17:00,35.2,7.6,30.23,WNW,300,2.0,12.0,31,0.00,,---,0.00,VWS V14.01,2013-01-24 07:17:00,
2013-01-24 02:18:00,35.2,6.9,30.23,WSW,240,3.0,12.0,30,0.00,,---,0.00,VWS V14.01,2013-01-24 07:18:00,
2013-01-24 02:19:00,35.2,6.9,30.23,WSW,241,6.0,12.0,30,0.00,,---,0.00,VWS V14.01,2013-01-24 07:19:00,
2013-01-24 02:20:00,35.2,6.9,30.23,WSW,242,2.0,12.0,30,0.00,,---,0.00,VWS V14.01,2013-01-24 07:20:00,
2013-01-24 02:21:00,35.2,6.9,30.23,WSW,245,6.0,6.0,30,0.00,,---,0.00,VWS V14.01,2013-01-24 07:21:00,
2013-01-24 02:22:00,35.2,6.9,30.23,WSW,250,6.0,6.0,30,0.00,,---,0.00,VWS V14.01,2013-01-24 07:22:00,
2013-01-24 02:23:00,35.2,6.9,30.23,SW,235,7.0,7.0,30,0.00,,---,0.00,VWS V14.01,2013-01-24 07:23:00,
2013-01-24 02:24:00,35.2,6.1,30.23,SW,231,5.0,8.0,29,0.00,,---,0.00,VWS V14.01,2013-01-24 07:24:00,
2013-01-24 02:25:00,35.2,6.1,30.23,West,272,6.0,13.0,29,0.00,,---,0.00,VWS V14.01,2013-01-24 07:25:00,
2013-01-24 02:26:00,35.0,6.0,30.23,WNW,299,6.0,13.0,29,0.00,,---,0.00,VWS V14.01,2013-01-24 07:26:00,
2013-01-24 02:27:00,35.0,6.0,30.23,WSW,248,2.0,13.0,29,0.00,,---,0.00,VWS V14.01,2013-01-24 07:27:00,
2013-01-24 02:28:00,34.9,6.6,30.23,WSW,238,4.0,13.0,30,0.00,,---,0.00,VWS V14.01,2013-01-24 07:28:00,
2013-01-24 02:29:00,34.9,6.6,30.23,West,261,6.0,13.0,30,0.00,,---,0.00,VWS V14.01,2013-01-24 07:29:00,
2013-01-24 02:30:00,34.9,7.3,30.23,West,268,3.0,13.0,31,0.00,,---,0.00,VWS V14.01,2013-01-24 07:30:00,
2013-01-24 02:31:00,35.0,7.4,30.23,WSW,251,5.0,6.0,31,0.00,,---,0.00,VWS V14.01,2013-01-24 07:31:00,
2013-01-24 02:32:00,35.0,6.7,30.23,WSW,248,5.0,7.0,30,0.00,,---,0.00,VWS V14.01,2013-01-24 07:32:00,
2013-01-24 02:33:00,35.0,6.7,30.23,West,271,3.0,7.0,30,0.00,,---,0.00,VWS V14.01,2013-01-24 07:33:00,
2013-01-24 02:34:00,35.0,6.7,30.23,WSW,252,5.0,7.0,30,0.00,,---,0.00,VWS V14.01,2013-01-24 07:34:00,
2013-01-24 02:35:00,35.0,6.7,30.23,WSW,241,7.0,7.0,30,0.00,,---,0.00,VWS V14.01,2013-01-24 07:35:00,
2013-01-24 02:36:00,34.9,6.6,30.23,WSW,245,1.0,7.0,30,0.00,,---,0.00,VWS V14.01,2013-01-24 07:36:00,
2013-01-24 02:37:00,34.9,5.9,30.23,WSW,245,5.0,7.0,29,0.00,,---,0.00,VWS V14.01,2013-01-24 07:37:00,
2013-01-24 02:38:00,34.9,6.6,30.23,WSW,248,4.0,7.0,30,0.00,,---,0.00,VWS V14.01,2013-01-24 07:38:00,
2013-01-24 02:39:00,34.9,6.6,30.23,WNW,283,5.0,7.0,30,0.00,,---,0.00,VWS V14.01,2013-01-24 07:39:00,
2013-01-24 02:40:00,34.7,6.4,30.23,WNW,298,6.0,8.0,30,0.00,,---,0.00,VWS V14.01,2013-01-24 07:40:00,
2013-01-24 02:41:00,34.7,7.2,30.23,WSW,240,6.0,7.0,31,0.00,,---,0.00,VWS V14.01,2013-01-24 07:41:00,
2013-01-24 02:42:00,34.7,7.2,30.23,WSW,242,6.0,10.0,31,0.00,,---,0.00,VWS V14.01,2013-01-24 07:42:00,
2013-01-24 02:43:00,34.7,7.2,30.23,West,262,6.0,10.0,31,0.00,,---,0.00,VWS V14.01,2013-01-24 07:43:00,
2013-01-24 02:44:00,34.7,7.2,30.23,West,278,6.0,10.0,31,0.00,,---,0.00,VWS V14.01,2013-01-24 07:44:00,
2013-01-24 02:45:00,34.7,7.2,30.24,West,259,5.0,10.0,31,0.00,,---,0.00,VWS V14.01,2013-01-24 07:45:00,
2013-01-24 02:46:00,34.7,7.2,30.24,WNW,285,8.0,11.0,31,0.00,,---,0.00,VWS V14.01,2013-01-24 07:46:00,
2013-01-24 02:47:00,34.7,7.2,30.24,WNW,283,1.0,11.0,31,0.00,,---,0.00,VWS V14.01,2013-01-24 07:47:00,
2013-01-24 02:48:00,34.7,7.2,30.24,WSW,238,6.0,11.0,31,0.00,,---,0.00,VWS V14.01,2013-01-24 07:48:00,
2013-01-24 02:49:00,34.7,6.4,30.24,West,271,5.0,11.0,30,0.00,,---,0.00,VWS V14.01,2013-01-24 07:49:00,
2013-01-24 02:50:00,34.7,6.4,30.24,West,265,7.0,11.0,30,0.00,,---,0.00,VWS V14.01,2013-01-24 07:50:00,
2013-01-24 02:51:00,34.7,6.4,30.24,WSW,237,4.0,8.0,30,0.00,,---,0.00,VWS V14.01,2013-01-24 07:51:00,
2013-01-24 02:52:00,34.6,6.4,30.24,WSW,237,3.0,8.0,30,0.00,,---,0.00,VWS V14.01,2013-01-24 07:52:00,
2013-01-24 02:53:00,34.6,6.4,30.24,WNW,292,3.0,8.0,30,0.00,,---,0.00,VWS V14.01,2013-01-24 07:53:00,
2013-01-24 02:54:00,34.6,6.4,30.24,West,266,6.0,8.0,30,0.00,,---,0.00,VWS V14.01,2013-01-24 07:54:00,
2013-01-24 02:55:00,34.6,7.1,30.24,WSW,250,7.0,8.0,31,0.00,,---,0.00,VWS V14.01,2013-01-24 07:55:00,
2013-01-24 02:56:00,34.4,6.2,30.24,WSW,247,3.0,8.0,30,0.00,,---,0.00,VWS V14.01,2013-01-24 07:56:00,
2013-01-24 02:57:00,34.4,6.2,30.24,WNW,288,5.0,8.0,30,0.00,,---,0.00,VWS V14.01,2013-01-24 07:57:00,
2013-01-24 02:58:00,34.4,6.9,30.24,West,261,5.0,8.0,31,0.00,,---,0.00,VWS V14.01,2013-01-24 07:58:00,
2013-01-24 02:59:00,34.4,6.9,30.24,West,281,5.0,8.0,31,0.00,,---,0.00,VWS V14.01,2013-01-24 07:59:00,
2013-01-24 03:00:00,34.4,6.9,30.25,West,259,4.0,8.0,31,0.00,,---,0.00,VWS V14.01,2013-01-24 08:00:00,
2013-01-24 03:01:00,34.4,6.9,30.25,West,259,6.0,6.0,31,0.00,,---,0.00,VWS V14.01,2013-01-24 08:01:00,
2013-01-24 03:02:00,34.4,6.9,30.25,West,259,6.0,6.0,31,0.00,,---,0.00,VWS V14.01,2013-01-24 08:02:00,
2013-01-24 03:03:00,34.4,6.9,30.25,West,265,5.0,7.0,31,0.00,,---,0.00,VWS V14.01,2013-01-24 08:03:00,
2013-01-24 03:04:00,34.4,6.9,30.25,WSW,254,5.0,7.0,31,0.00,,---,0.00,VWS V14.01,2013-01-24 08:04:00,
2013-01-24 03:05:00,34.6,7.1,30.25,West,259,5.0,7.0,31,0.00,,---,0.00,VWS V14.01,2013-01-24 08:05:00,
2013-01-24 03:06:00,34.6,6.4,30.25,West,274,6.0,7.0,30,0.00,,---,0.00,VWS V14.01,2013-01-24 08:06:00,
2013-01-24 03:07:00,34.6,7.1,30.25,West,269,8.0,9.0,31,0.00,,---,0.00,VWS V14.01,2013-01-24 08:07:00,
2013-01-24 03:08:00,34.6,7.1,30.25,West,269,8.0,9.0,31,0.00,,---,0.00,VWS V14.01,2013-01-24 08:08:00,
2013-01-24 03:09:00,34.6,7.1,30.25,West,276,7.0,9.0,31,0.00,,---,0.00,VWS V14.01,2013-01-24 08:09:00,
2013-01-24 03:10:00,34.4,6.9,30.25,WNW,288,5.0,12.0,31,0.00,,---,0.00,VWS V14.01,2013-01-24 08:10:00,
2013-01-24 03:11:00,34.4,6.9,30.25,WSW,238,6.0,6.0,31,0.00,,---,0.00,VWS V14.01,2013-01-24 08:11:00,
2013-01-24 03:12:00,34.4,6.9,30.25,WNW,290,9.0,9.0,31,0.00,,---,0.00,VWS V14.01,2013-01-24 08:12:00,
2013-01-24 03:13:00,34.4,6.9,30.25,West,274,3.0,9.0,31,0.00,,---,0.00,VWS V14.01,2013-01-24 08:13:00,
2013-01-24 03:14:00,34.4,6.9,30.25,West,275,6.0,10.0,31,0.00,,---,0.00,VWS V14.01,2013-01-24 08:14:00,
2013-01-24 03:15:00,34.3,6.8,30.25,WSW,252,6.0,10.0,31,0.00,,---,0.00,VWS V14.01,2013-01-24 08:15:00,
2013-01-24 03:16:00,34.3,6.1,30.25,West,271,6.0,10.0,30,0.00,,---,0.00,VWS V14.01,2013-01-24 08:16:00,
2013-01-24 03:17:00,34.3,6.1,30.25,West,266,5.0,11.0,30,0.00,,---,0.00,VWS V14.01,2013-01-24 08:17:00,
2013-01-24 03:18:00,34.3,6.8,30.25,West,268,7.0,11.0,31,0.00,,---,0.00,VWS V14.01,2013-01-24 08:18:00,
2013-01-24 03:19:00,34.3,6.8,30.25,WSW,255,5.0,11.0,31,0.00,,---,0.00,VWS V14.01,2013-01-24 08:19:00,
2013-01-24 03:20:00,34.3,6.8,30.25,West,264,5.0,11.0,31,0.00,,---,0.00,VWS V14.01,2013-01-24 08:20:00,
2013-01-24 03:21:00,34.3,6.8,30.25,West,274,6.0,7.0,31,0.00,,---,0.00,VWS V14.01,2013-01-24 08:21:00,
2013-01-24 03:22:00,34.3,6.8,30.25,West,269,7.0,7.0,31,0.00,,---,0.00,VWS V14.01,2013-01-24 08:22:00,
2013-01-24 03:23:00,34.1,6.6,30.25,West,262,6.0,7.0,31,0.00,,---,0.00,VWS V14.01,2013-01-24 08:23:00,
2013-01-24 03:24:00,34.1,6.6,30.25,WSW,250,5.0,7.0,31,0.00,,---,0.00,VWS V14.01,2013-01-24 08:24:00,
2013-01-24 03:25:00,34.1,6.6,30.25,West,272,7.0,7.0,31,0.00,,---,0.00,VWS V14.01,2013-01-24 08:25:00,
2013-01-24 03:26:00,34.1,6.6,30.25,WSW,254,4.0,7.0,31,0.00,,---,0.00,VWS V14.01,2013-01-24 08:26:00,
2013-01-24 03:27:00,34.1,6.6,30.25,West,261,6.0,8.0,31,0.00,,---,0.00,VWS V14.01,2013-01-24 08:27:00,
2013-01-24 03:28:00,34.1,6.6,30.25,West,265,6.0,8.0,31,0.00,,---,0.00,VWS V14.01,2013-01-24 08:28:00,
2013-01-24 03:29:00,34.1,6.6,30.25,West,281,7.0,8.0,31,0.00,,---,0.00,VWS V14.01,2013-01-24 08:29:00,
2013-01-24 03:30:00,34.1,6.6,30.26,West,275,6.0,8.0,31,0.00,,---,0.00,VWS V14.01,2013-01-24 08:30:00,
2013-01-24 03:31:00,34.3,6.8,30.26,West,265,5.0,6.0,31,0.00,,---,0.00,VWS V14.01,2013-01-24 08:31:00,
2013-01-24 03:32:00,34.3,6.8,30.26,WNW,285,5.0,6.0,31,0.00,,---,0.00,VWS V14.01,2013-01-24 08:32:00,
2013-01-24 03:33:00,34.3,6.8,30.26,WSW,255,6.0,7.0,31,0.00,,---,0.00,VWS V14.01,2013-01-24 08:33:00,
2013-01-24 03:34:00,34.3,6.8,30.26,WSW,248,2.0,7.0,31,0.00,,---,0.00,VWS V14.01,2013-01-24 08:34:00,
2013-01-24 03:35:00,34.3,6.8,30.26,WNW,286,7.0,8.0,31,0.00,,---,0.00,VWS V14.01,2013-01-24 08:35:00,
2013-01-24 03:36:00,34.3,6.8,30.26,WNW,295,6.0,8.0,31,0.00,,---,0.00,VWS V14.01,2013-01-24 08:36:00,
2013-01-24 03:37:00,34.3,6.8,30.26,West,265,5.0,8.0,31,0.00,,---,0.00,VWS V14.01,2013-01-24 08:37:00,
2013-01-24 03:38:00,34.3,6.8,30.26,WNW,303,2.0,8.0,31,0.00,,---,0.00,VWS V14.01,2013-01-24 08:38:00,
2013-01-24 03:39:00,34.3,6.8,30.26,WNW,282,5.0,8.0,31,0.00,,---,0.00,VWS V14.01,2013-01-24 08:39:00,
2013-01-24 03:40:00,34.3,7.5,30.26,WNW,283,6.0,10.0,32,0.00,,---,0.00,VWS V14.01,2013-01-24 08:40:00,
2013-01-24 03:41:00,34.3,7.5,30.26,West,272,8.0,9.0,32,0.00,,---,0.00,VWS V14.01,2013-01-24 08:41:00,
2013-01-24 03:42:00,34.1,6.6,30.26,West,272,7.0,9.0,31,0.00,,---,0.00,VWS V14.01,2013-01-24 08:42:00,
2013-01-24 03:43:00,34.1,6.6,30.26,West,268,4.0,9.0,31,0.00,,---,0.00,VWS V14.01,2013-01-24 08:43:00,
2013-01-24 03:44:00,34.1,7.3,30.26,West,269,5.0,9.0,32,0.00,,---,0.00,VWS V14.01,2013-01-24 08:44:00,
2013-01-24 03:45:00,34.1,6.6,30.27,West,269,4.0,9.0,31,0.00,,---,0.00,VWS V14.01,2013-01-24 08:45:00,
2013-01-24 03:46:00,34.1,6.6,30.27,WSW,254,6.0,9.0,31,0.00,,---,0.00,VWS V14.01,2013-01-24 08:46:00,
2013-01-24 03:47:00,34.1,6.6,30.27,WNW,286,5.0,9.0,31,0.00,,---,0.00,VWS V14.01,2013-01-24 08:47:00,
2013-01-24 03:48:00,34.1,7.3,30.27,West,265,3.0,9.0,32,0.00,,---,0.00,VWS V14.01,2013-01-24 08:48:00,
2013-01-24 03:49:00,34.1,7.3,30.27,WNW,286,5.0,9.0,32,0.00,,---,0.00,VWS V14.01,2013-01-24 08:49:00,
2013-01-24 03:50:00,34.1,7.3,30.27,West,269,6.0,9.0,32,0.00,,---,0.00,VWS V14.01,2013-01-24 08:50:00,
2013-01-24 03:51:00,34.0,7.3,30.27,WNW,283,3.0,8.0,32,0.00,,---,0.00,VWS V14.01,2013-01-24 08:51:00,
2013-01-24 03:52:00,34.0,7.3,30.27,West,268,5.0,8.0,32,0.00,,---,0.00,VWS V14.01,2013-01-24 08:52:00,
2013-01-24 03:53:00,34.0,7.3,30.27,West,265,7.0,8.0,32,0.00,,---,0.00,VWS V14.01,2013-01-24 08:53:00,
2013-01-24 03:54:00,34.0,7.3,30.27,WSW,257,5.0,8.0,32,0.00,,---,0.00,VWS V14.01,2013-01-24 08:54:00,
2013-01-24 03:55:00,34.0,7.3,30.27,West,276,5.0,8.0,32,0.00,,---,0.00,VWS V14.01,2013-01-24 08:55:00,
2013-01-24 03:56:00,34.0,7.3,30.27,West,272,8.0,8.0,32,0.00,,---,0.00,VWS V14.01,2013-01-24 08:56:00,
2013-01-24 03:57:00,33.8,7.1,30.27,WNW,283,5.0,8.0,32,0.00,,---,0.00,VWS V14.01,2013-01-24 08:57:00,
2013-01-24 03:58:00,33.8,7.1,30.27,West,269,5.0,8.0,32,0.00,,---,0.00,VWS V14.01,2013-01-24 08:58:00,
2013-01-24 03:59:00,33.8,7.1,30.27,West,265,6.0,9.0,32,0.00,,---,0.00,VWS V14.01,2013-01-24 08:59:00,
2013-01-24 04:00:00,33.8,7.1,30.27,West,276,6.0,9.0,32,0.00,,---,0.00,VWS V14.01,2013-01-24 09:00:00,
2013-01-24 04:01:00,33.7,7.0,30.27,WNW,293,8.0,8.0,32,0.00,,---,0.00,VWS V14.01,2013-01-24 09:01:00,
2013-01-24 04:02:00,33.7,7.0,30.27,WNW,286,5.0,10.0,32,0.00,,---,0.00,VWS V14.01,2013-01-24 09:02:00,
2013-01-24 04:03:00,33.5,6.8,30.27,West,278,7.0,10.0,32,0.00,,---,0.00,VWS V14.01,2013-01-24 09:03:00,
2013-01-24 04:04:00,33.5,6.8,30.27,West,278,7.0,10.0,32,0.00,,---,0.00,VWS V14.01,2013-01-24 09:04:00,
2013-01-24 04:05:00,33.5,6.8,30.27,West,272,7.0,10.0,32,0.00,,---,0.00,VWS V14.01,2013-01-24 09:05:00,
2013-01-24 04:06:00,33.4,6.7,30.27,West,259,5.0,11.0,32,0.00,,---,0.00,VWS V14.01,2013-01-24 09:06:00,
2013-01-24 04:07:00,33.4,7.4,30.27,WSW,250,6.0,11.0,33,0.00,,---,0.00,VWS V14.01,2013-01-24 09:07:00,
2013-01-24 04:08:00,33.2,7.2,30.27,WSW,251,3.0,11.0,33,0.00,,---,0.00,VWS V14.01,2013-01-24 09:08:00,
2013-01-24 04:09:00,33.2,7.2,30.27,West,262,5.0,11.0,33,0.00,,---,0.00,VWS V14.01,2013-01-24 09:09:00,
2013-01-24 04:10:00,33.2,6.6,30.27,West,261,3.0,11.0,32,0.00,,---,0.00,VWS V14.01,2013-01-24 09:10:00,
2013-01-24 04:11:00,33.2,6.6,30.27,West,279,3.0,6.0,32,0.00,,---,0.00,VWS V14.01,2013-01-24 09:11:00,
2013-01-24 04:12:00,33.2,7.2,30.27,West,275,5.0,8.0,33,0.00,,---,0.00,VWS V14.01,2013-01-24 09:12:00,
2013-01-24 04:13:00,33.1,6.5,30.27,West,279,6.0,8.0,32,0.00,,---,0.00,VWS V14.01,2013-01-24 09:13:00,
2013-01-24 04:14:00,33.1,6.5,30.27,West,276,3.0,8.0,32,0.00,,---,0.00,VWS V14.01,2013-01-24 09:14:00,
2013-01-24 04:15:00,33.1,6.5,30.29,West,261,5.0,8.0,32,0.00,,---,0.00,VWS V14.01,2013-01-24 09:15:00,
2013-01-24 04:16:00,33.1,6.5,30.29,West,272,4.0,8.0,32,0.00,,---,0.00,VWS V14.01,2013-01-24 09:16:00,
2013-01-24 04:17:00,32.9,6.3,30.29,West,266,3.0,8.0,32,0.00,,---,0.00,VWS V14.01,2013-01-24 09:17:00,
2013-01-24 04:18:00,32.9,6.3,30.29,West,266,2.0,8.0,32,0.00,,---,0.00,VWS V14.01,2013-01-24 09:18:00,
2013-01-24 04:19:00,32.9,6.3,30.29,West,266,4.0,8.0,32,0.00,,---,0.00,VWS V14.01,2013-01-24 09:19:00,
2013-01-24 04:20:00,32.9,6.3,30.29,West,266,3.0,8.0,32,0.00,,---,0.00,VWS V14.01,2013-01-24 09:20:00,
2013-01-24 04:21:00,32.8,6.2,30.29,West,264,1.0,4.0,32,0.00,,---,0.00,VWS V14.01,2013-01-24 09:21:00,
2013-01-24 04:22:00,32.8,5.5,30.29,WNW,285,5.0,5.0,31,0.00,,---,0.00,VWS V14.01,2013-01-24 09:22:00,
2013-01-24 04:23:00,32.8,6.2,30.29,WNW,283,2.0,5.0,32,0.00,,---,0.00,VWS V14.01,2013-01-24 09:23:00,
2013-01-24 04:24:00,32.8,6.2,30.29,WNW,283,1.0,5.0,32,0.00,,---,0.00,VWS V14.01,2013-01-24 09:24:00,
2013-01-24 04:25:00,32.8,6.2,30.29,WNW,282,1.0,5.0,32,0.00,,---,0.00,VWS V14.01,2013-01-24 09:25:00,
2013-01-24 04:26:00,32.8,6.2,30.29,WNW,282,1.0,5.0,32,0.00,,---,0.00,VWS V14.01,2013-01-24 09:26:00,
2013-01-24 04:27:00,32.8,6.2,30.29,West,281,4.0,5.0,32,0.00,,---,0.00,VWS V14.01,2013-01-24 09:27:00,
2013-01-24 04:28:00,32.8,6.2,30.29,West,279,2.0,5.0,32,0.00,,---,0.00,VWS V14.01,2013-01-24 09:28:00,
2013-01-24 04:29:00,32.8,6.2,30.29,West,279,0.0,5.0,32,0.00,,---,0.00,VWS V14.01,2013-01-24 09:29:00,
2013-01-24 04:30:00,32.8,6.2,30.29,WNW,283,4.0,5.0,32,0.00,,---,0.00,VWS V14.01,2013-01-24 09:30:00,
2013-01-24 04:31:00,32.8,6.2,30.29,WNW,286,6.0,6.0,32,0.00,,---,0.00,VWS V14.01,2013-01-24 09:31:00,
2013-01-24 04:32:00,32.7,6.1,30.29,West,281,5.0,7.0,32,0.00,,---,0.00,VWS V14.01,2013-01-24 09:32:00,
2013-01-24 04:33:00,32.7,6.1,30.29,West,281,3.0,7.0,32,0.00,,---,0.00,VWS V14.01,2013-01-24 09:33:00,
2013-01-24 04:34:00,32.7,5.4,30.29,West,281,4.0,7.0,31,0.00,,---,0.00,VWS V14.01,2013-01-24 09:34:00,
2013-01-24 04:35:00,32.7,6.1,30.29,West,279,2.0,7.0,32,0.00,,---,0.00,VWS V14.01,2013-01-24 09:35:00,
2013-01-24 04:36:00,32.8,6.2,30.29,West,279,3.0,7.0,32,0.00,,---,0.00,VWS V14.01,2013-01-24 09:36:00,
2013-01-24 04:37:00,32.8,5.5,30.29,West,279,3.0,7.0,31,0.00,,---,0.00,VWS V14.01,2013-01-24 09:37:00,
2013-01-24 04:38:00,32.8,5.5,30.29,West,279,3.0,7.0,31,0.00,,---,0.00,VWS V14.01,2013-01-24 09:38:00,
2013-01-24 04:39:00,32.8,5.5,30.29,West,265,2.0,7.0,31,0.00,,---,0.00,VWS V14.01,2013-01-24 09:39:00,
2013-01-24 04:40:00,32.8,5.5,30.29,West,265,2.0,7.0,31,0.00,,---,0.00,VWS V14.01,2013-01-24 09:40:00,
2013-01-24 04:41:00,32.8,5.5,30.29,West,271,3.0,6.0,31,0.00,,---,0.00,VWS V14.01,2013-01-24 09:41:00,
2013-01-24 04:42:00,32.7,5.4,30.29,West,271,2.0,6.0,31,0.00,,---,0.00,VWS V14.01,2013-01-24 09:42:00,
2013-01-24 04:43:00,32.7,5.4,30.29,West,271,0.0,6.0,31,0.00,,---,0.00,VWS V14.01,2013-01-24 09:43:00,
2013-01-24 04:44:00,32.7,6.1,30.29,West,271,2.0,6.0,32,0.00,,---,0.00,VWS V14.01,2013-01-24 09:44:00,
2013-01-24 04:45:00,32.7,6.1,30.30,West,271,0.0,6.0,32,0.00,,---,0.00,VWS V14.01,2013-01-24 09:45:00,
2013-01-24 04:46:00,32.7,5.4,30.30,West,271,0.0,6.0,31,0.00,,---,0.00,VWS V14.01,2013-01-24 09:46:00,
2013-01-24 04:47:00,32.7,5.4,30.30,West,271,2.0,6.0,31,0.00,,---,0.00,VWS V14.01,2013-01-24 09:47:00,
2013-01-24 04:48:00,32.7,5.4,30.30,West,271,0.0,6.0,31,0.00,,---,0.00,VWS V14.01,2013-01-24 09:48:00,
2013-01-24 04:49:00,32.7,5.4,30.30,West,271,0.0,6.0,31,0.00,,---,0.00,VWS V14.01,2013-01-24 09:49:00,
2013-01-24 04:50:00,32.5,4.5,30.30,West,271,0.0,6.0,30,0.00,,---,0.00,VWS V14.01,2013-01-24 09:50:00,
2013-01-24 04:51:00,32.5,4.5,30.30,West,271,0.0,2.0,30,0.00,,---,0.00,VWS V14.01,2013-01-24 09:51:00,
2013-01-24 04:52:00,32.5,5.2,30.30,West,272,0.0,2.0,31,0.00,,---,0.00,VWS V14.01,2013-01-24 09:52:00,
2013-01-24 04:53:00,32.5,5.2,30.30,West,272,0.0,2.0,31,0.00,,---,0.00,VWS V14.01,2013-01-24 09:53:00,
2013-01-24 04:54:00,32.5,5.2,30.30,West,272,0.0,2.0,31,0.00,,---,0.00,VWS V14.01,2013-01-24 09:54:00,
2013-01-24 04:55:00,32.4,5.2,30.30,West,272,2.0,2.0,31,0.00,,---,0.00,VWS V14.01,2013-01-24 09:55:00,
2013-01-24 04:56:00,32.4,5.2,30.30,West,272,0.0,2.0,31,0.00,,---,0.00,VWS V14.01,2013-01-24 09:56:00,
2013-01-24 04:57:00,32.4,4.4,30.30,West,272,0.0,2.0,30,0.00,,---,0.00,VWS V14.01,2013-01-24 09:57:00,
2013-01-24 04:58:00,32.4,4.4,30.30,West,272,0.0,2.0,30,0.00,,---,0.00,VWS V14.01,2013-01-24 09:58:00,
2013-01-24 04:59:00,32.2,4.3,30.30,West,272,0.0,2.0,30,0.00,,---,0.00,VWS V14.01,2013-01-24 09:59:00,
2013-01-24 05:00:00,32.2,4.3,30.30,West,272,0.0,2.0,30,0.00,,---,0.00,VWS V14.01,2013-01-24 10:00:00,
2013-01-24 05:01:00,32.2,4.3,30.30,West,272,0.0,0.0,30,0.00,,---,0.00,VWS V14.01,2013-01-24 10:01:00,
2013-01-24 05:02:00,32.2,4.3,30.30,West,272,0.0,0.0,30,0.00,,---,0.00,VWS V14.01,2013-01-24 10:02:00,
2013-01-24 05:03:00,32.1,4.9,30.30,West,264,0.0,0.0,31,0.00,,---,0.00,VWS V14.01,2013-01-24 10:03:00,
2013-01-24 05:04:00,32.1,4.9,30.30,West,272,0.0,0.0,31,0.00,,---,0.00,VWS V14.01,2013-01-24 10:04:00,
2013-01-24 05:05:00,32.1,4.9,30.30,West,272,0.0,0.0,31,0.00,,---,0.00,VWS V14.01,2013-01-24 10:05:00,
2013-01-24 05:06:00,32.1,4.9,30.30,West,272,0.0,0.0,31,0.00,,---,0.00,VWS V14.01,2013-01-24 10:06:00,
2013-01-24 05:07:00,32.1,4.2,30.30,West,272,0.0,0.0,30,0.00,,---,0.00,VWS V14.01,2013-01-24 10:07:00,
2013-01-24 05:08:00,32.1,4.2,30.30,West,272,0.0,0.0,30,0.00,,---,0.00,VWS V14.01,2013-01-24 10:08:00,
2013-01-24 05:09:00,32.1,4.2,30.30,West,272,0.0,0.0,30,0.00,,---,0.00,VWS V14.01,2013-01-24 10:09:00,
2013-01-24 05:10:00,31.9,4.7,30.30,West,272,0.0,0.0,31,0.00,,---,0.00,VWS V14.01,2013-01-24 10:10:00,
2013-01-24 05:11:00,31.9,4.7,30.30,West,272,0.0,0.0,31,0.00,,---,0.00,VWS V14.01,2013-01-24 10:11:00,
2013-01-24 05:12:00,31.9,4.0,30.30,West,272,0.0,0.0,30,0.00,,---,0.00,VWS V14.01,2013-01-24 10:12:00,
2013-01-24 05:13:00,31.9,4.0,30.30,West,272,0.0,0.0,30,0.00,,---,0.00,VWS V14.01,2013-01-24 10:13:00,
2013-01-24 05:14:00,31.9,4.7,30.30,West,272,0.0,0.0,31,0.00,,---,0.00,VWS V14.01,2013-01-24 10:14:00,
2013-01-24 05:15:00,31.9,4.7,30.31,West,272,0.0,0.0,31,0.00,,---,0.00,VWS V14.01,2013-01-24 10:15:00,
2013-01-24 05:16:00,31.9,4.7,30.31,West,272,0.0,0.0,31,0.00,,---,0.00,VWS V14.01,2013-01-24 10:16:00,
2013-01-24 05:17:00,31.9,4.0,30.31,West,272,0.0,0.0,30,0.00,,---,0.00,VWS V14.01,2013-01-24 10:17:00,
2013-01-24 05:18:00,31.9,4.7,30.31,West,272,0.0,0.0,31,0.00,,---,0.00,VWS V14.01,2013-01-24 10:18:00,
2013-01-24 05:19:00,31.9,4.7,30.31,West,272,0.0,0.0,31,0.00,,---,0.00,VWS V14.01,2013-01-24 10:19:00,
2013-01-24 05:20:00,31.8,4.6,30.31,West,272,0.0,0.0,31,0.00,,---,0.00,VWS V14.01,2013-01-24 10:20:00,
2013-01-24 05:21:00,31.8,4.6,30.31,West,272,0.0,0.0,31,0.00,,---,0.00,VWS V14.01,2013-01-24 10:21:00,
2013-01-24 05:22:00,31.8,4.6,30.31,West,272,0.0,0.0,31,0.00,,---,0.00,VWS V14.01,2013-01-24 10:22:00,
2013-01-24 05:23:00,31.8,4.6,30.31,West,272,0.0,0.0,31,0.00,,---,0.00,VWS V14.01,2013-01-24 10:23:00,
2013-01-24 05:24:00,31.8,4.6,30.31,West,272,0.0,0.0,31,0.00,,---,0.00,VWS V14.01,2013-01-24 10:24:00,
2013-01-24 05:25:00,31.6,4.4,30.31,West,272,0.0,0.0,31,0.00,,---,0.00,VWS V14.01,2013-01-24 10:25:00,
2013-01-24 05:26:00,31.6,4.4,30.31,West,272,0.0,0.0,31,0.00,,---,0.00,VWS V14.01,2013-01-24 10:26:00,
2013-01-24 05:27:00,31.6,4.4,30.31,West,272,0.0,0.0,31,0.00,,---,0.00,VWS V14.01,2013-01-24 10:27:00,
2013-01-24 05:28:00,31.6,4.4,30.31,West,272,0.0,0.0,31,0.00,,---,0.00,VWS V14.01,2013-01-24 10:28:00,
2013-01-24 05:29:00,31.6,4.4,30.31,West,272,0.0,0.0,31,0.00,,---,0.00,VWS V14.01,2013-01-24 10:29:00,
2013-01-24 05:30:00,31.6,4.4,30.31,West,272,0.0,0.0,31,0.00,,---,0.00,VWS V14.01,2013-01-24 10:30:00,
2013-01-24 05:31:00,31.6,4.4,30.31,West,272,0.0,0.0,31,0.00,,---,0.00,VWS V14.01,2013-01-24 10:31:00,
2013-01-24 05:32:00,31.5,4.4,30.31,West,272,0.0,0.0,31,0.00,,---,0.00,VWS V14.01,2013-01-24 10:32:00,
2013-01-24 05:33:00,31.5,3.7,30.31,West,272,0.0,0.0,30,0.00,,---,0.00,VWS V14.01,2013-01-24 10:33:00,
2013-01-24 05:34:00,31.5,3.7,30.31,West,272,0.0,0.0,30,0.00,,---,0.00,VWS V14.01,2013-01-24 10:34:00,
2013-01-24 05:35:00,31.5,3.7,30.31,West,272,0.0,0.0,30,0.00,,---,0.00,VWS V14.01,2013-01-24 10:35:00,
2013-01-24 05:36:00,31.5,4.4,30.31,West,272,0.0,0.0,31,0.00,,---,0.00,VWS V14.01,2013-01-24 10:36:00,
2013-01-24 05:37:00,31.5,4.4,30.31,West,272,5.0,5.0,31,0.00,,---,0.00,VWS V14.01,2013-01-24 10:37:00,
2013-01-24 05:38:00,31.3,3.5,30.31,West,272,2.0,5.0,30,0.00,,---,0.00,VWS V14.01,2013-01-24 10:38:00,
2013-01-24 05:39:00,31.3,3.5,30.31,West,272,0.0,5.0,30,0.00,,---,0.00,VWS V14.01,2013-01-24 10:39:00,
2013-01-24 05:40:00,31.3,3.5,30.31,West,272,0.0,5.0,30,0.00,,---,0.00,VWS V14.01,2013-01-24 10:40:00,
2013-01-24 05:41:00,31.3,4.2,30.31,West,272,0.0,1.0,31,0.00,,---,0.00,VWS V14.01,2013-01-24 10:41:00,
2013-01-24 05:42:00,31.2,4.1,30.31,West,272,0.0,1.0,31,0.00,,---,0.00,VWS V14.01,2013-01-24 10:42:00,
2013-01-24 05:43:00,31.2,4.1,30.31,West,272,0.0,1.0,31,0.00,,---,0.00,VWS V14.01,2013-01-24 10:43:00,
2013-01-24 05:44:00,31.2,4.1,30.31,West,272,0.0,1.0,31,0.00,,---,0.00,VWS V14.01,2013-01-24 10:44:00,
2013-01-24 05:45:00,31.0,3.2,30.32,West,272,0.0,1.0,30,0.00,,---,0.00,VWS V14.01,2013-01-24 10:45:00,
2013-01-24 05:46:00,31.0,3.2,30.32,West,274,0.0,2.0,30,0.00,,---,0.00,VWS V14.01,2013-01-24 10:46:00,
2013-01-24 05:47:00,30.9,3.1,30.32,West,274,0.0,2.0,30,0.00,,---,0.00,VWS V14.01,2013-01-24 10:47:00,
2013-01-24 05:48:00,30.9,3.1,30.32,West,274,0.0,2.0,30,0.00,,---,0.00,VWS V14.01,2013-01-24 10:48:00,
2013-01-24 05:49:00,30.7,3.0,30.32,West,274,0.0,2.0,30,0.00,,---,0.00,VWS V14.01,2013-01-24 10:49:00,
2013-01-24 05:50:00,30.7,3.0,30.32,West,274,0.0,2.0,30,0.00,,---,0.00,VWS V14.01,2013-01-24 10:50:00,
2013-01-24 05:51:00,30.7,3.0,30.32,West,274,0.0,3.0,30,0.00,,---,0.00,VWS V14.01,2013-01-24 10:51:00,
2013-01-24 05:52:00,30.6,2.9,30.32,West,274,0.0,3.0,30,0.00,,---,0.00,VWS V14.01,2013-01-24 10:52:00,
2013-01-24 05:53:00,30.6,2.9,30.32,West,274,0.0,3.0,30,0.00,,---,0.00,VWS V14.01,2013-01-24 10:53:00,
2013-01-24 05:54:00,30.6,3.6,30.32,West,274,0.0,3.0,31,0.00,,---,0.00,VWS V14.01,2013-01-24 10:54:00,
2013-01-24 05:55:00,30.4,3.4,30.32,West,274,0.0,3.0,31,0.00,,---,0.00,VWS V14.01,2013-01-24 10:55:00,
2013-01-24 05:56:00,30.4,3.4,30.32,West,274,0.0,3.0,31,0.00,,---,0.00,VWS V14.01,2013-01-24 10:56:00,
2013-01-24 05:57:00,30.4,2.7,30.32,West,274,0.0,3.0,30,0.00,,---,0.00,VWS V14.01,2013-01-24 10:57:00,
2013-01-24 05:58:00,30.3,3.3,30.32,West,274,0.0,3.0,31,0.00,,---,0.00,VWS V14.01,2013-01-24 10:58:00,
2013-01-24 05:59:00,30.3,3.3,30.32,West,274,0.0,3.0,31,0.00,,---,0.00,VWS V14.01,2013-01-24 10:59:00,
2013-01-24 06:00:00,30.3,3.3,30.33,West,274,0.0,3.0,31,0.00,,---,0.00,VWS V14.01,2013-01-24 11:00:00,
2013-01-24 06:01:00,30.1,3.1,30.33,West,274,0.0,0.0,31,0.00,,---,0.00,VWS V14.01,2013-01-24 11:01:00,
2013-01-24 06:02:00,30.1,3.1,30.33,West,274,0.0,0.0,31,0.00,,---,0.00,VWS V14.01,2013-01-24 11:02:00,
2013-01-24 06:03:00,30.0,2.3,30.33,West,274,0.0,0.0,30,0.00,,---,0.00,VWS V14.01,2013-01-24 11:03:00,
2013-01-24 06:04:00,30.0,2.3,30.33,West,274,0.0,0.0,30,0.00,,---,0.00,VWS V14.01,2013-01-24 11:04:00,
2013-01-24 06:05:00,30.0,3.0,30.33,West,274,0.0,0.0,31,0.00,,---,0.00,VWS V14.01,2013-01-24 11:05:00,
2013-01-24 06:06:00,29.8,2.9,30.33,West,274,0.0,0.0,31,0.00,,---,0.00,VWS V14.01,2013-01-24 11:06:00,
2013-01-24 06:07:00,29.8,2.2,30.33,West,274,0.0,0.0,30,0.00,,---,0.00,VWS V14.01,2013-01-24 11:07:00,
2013-01-24 06:08:00,29.8,2.2,30.33,West,274,0.0,0.0,30,0.00,,---,0.00,VWS V14.01,2013-01-24 11:08:00,
2013-01-24 06:09:00,29.8,2.2,30.33,West,274,0.0,0.0,30,0.00,,---,0.00,VWS V14.01,2013-01-24 11:09:00,
2013-01-24 06:10:00,29.7,2.8,30.33,West,274,0.0,0.0,31,0.00,,---,0.00,VWS V14.01,2013-01-24 11:10:00,
2013-01-24 06:11:00,29.7,2.8,30.33,West,274,0.0,0.0,31,0.00,,---,0.00,VWS V14.01,2013-01-24 11:11:00,
2013-01-24 06:12:00,29.7,2.8,30.33,West,274,0.0,0.0,31,0.00,,---,0.00,VWS V14.01,2013-01-24 11:12:00,
2013-01-24 06:13:00,29.7,3.5,30.33,West,274,0.0,0.0,32,0.00,,---,0.00,VWS V14.01,2013-01-24 11:13:00,
2013-01-24 06:14:00,29.5,3.3,30.33,West,274,0.0,0.0,32,0.00,,---,0.00,VWS V14.01,2013-01-24 11:14:00,
2013-01-24 06:15:00,29.5,4.0,30.33,West,274,0.0,0.0,33,0.00,,---,0.00,VWS V14.01,2013-01-24 11:15:00,
2013-01-24 06:16:00,29.5,4.0,30.33,West,274,0.0,0.0,33,0.00,,---,0.00,VWS V14.01,2013-01-24 11:16:00,
2013-01-24 06:17:00,29.5,4.0,30.33,West,274,0.0,0.0,33,0.00,,---,0.00,VWS V14.01,2013-01-24 11:17:00,
2013-01-24 06:18:00,29.5,4.0,30.33,West,274,0.0,0.0,33,0.00,,---,0.00,VWS V14.01,2013-01-24 11:18:00,
2013-01-24 06:19:00,29.5,3.3,30.33,West,274,0.0,0.0,32,0.00,,---,0.00,VWS V14.01,2013-01-24 11:19:00,
2013-01-24 06:20:00,29.4,3.9,30.33,West,274,0.0,0.0,33,0.00,,---,0.00,VWS V14.01,2013-01-24 11:20:00,
2013-01-24 06:21:00,29.4,3.9,30.33,West,274,0.0,0.0,33,0.00,,---,0.00,VWS V14.01,2013-01-24 11:21:00,
2013-01-24 06:22:00,29.4,3.9,30.33,West,274,0.0,0.0,33,0.00,,---,0.00,VWS V14.01,2013-01-24 11:22:00,
2013-01-24 06:23:00,29.4,3.9,30.33,West,274,0.0,0.0,33,0.00,,---,0.00,VWS V14.01,2013-01-24 11:23:00,
2013-01-24 06:24:00,29.4,4.5,30.33,West,274,0.0,0.0,34,0.00,,---,0.00,VWS V14.01,2013-01-24 11:24:00,
2013-01-24 06:25:00,29.4,4.5,30.33,West,274,0.0,0.0,34,0.00,,---,0.00,VWS V14.01,2013-01-24 11:25:00,
2013-01-24 06:26:00,29.3,3.8,30.33,West,274,0.0,0.0,33,0.00,,---,0.00,VWS V14.01,2013-01-24 11:26:00,
2013-01-24 06:27:00,29.3,4.4,30.33,West,274,0.0,0.0,34,0.00,,---,0.00,VWS V14.01,2013-01-24 11:27:00,
2013-01-24 06:28:00,29.3,4.4,30.33,West,274,0.0,0.0,34,0.00,,---,0.00,VWS V14.01,2013-01-24 11:28:00,
2013-01-24 06:29:00,29.3,4.4,30.33,West,274,0.0,0.0,34,0.00,,---,0.00,VWS V14.01,2013-01-24 11:29:00,
2013-01-24 06:30:00,29.1,4.2,30.33,West,274,0.0,0.0,34,0.00,,---,0.00,VWS V14.01,2013-01-24 11:30:00,
2013-01-24 06:31:00,29.1,5.5,30.33,West,274,0.0,0.0,36,0.00,,---,0.00,VWS V14.01,2013-01-24 11:31:00,
2013-01-24 06:32:00,29.1,6.1,30.33,West,274,0.0,0.0,37,0.00,,---,0.00,VWS V14.01,2013-01-24 11:32:00,
2013-01-24 06:33:00,29.1,6.1,30.33,West,274,0.0,0.0,37,0.00,,---,0.00,VWS V14.01,2013-01-24 11:33:00,
2013-01-24 06:34:00,29.1,6.1,30.33,West,274,0.0,0.0,37,0.00,,---,0.00,VWS V14.01,2013-01-24 11:34:00,
2013-01-24 06:35:00,29.1,5.5,30.33,West,274,0.0,0.0,36,0.00,,---,0.00,VWS V14.01,2013-01-24 11:35:00,
2013-01-24 06:36:00,29.0,4.8,30.33,West,274,0.0,0.0,35,0.00,,---,0.00,VWS V14.01,2013-01-24 11:36:00,
2013-01-24 06:37:00,29.0,6.0,30.33,West,274,0.0,0.0,37,0.00,,---,0.00,VWS V14.01,2013-01-24 11:37:00,
2013-01-24 06:38:00,29.0,6.0,30.33,West,274,0.0,0.0,37,0.00,,---,0.00,VWS V14.01,2013-01-24 11:38:00,
2013-01-24 06:39:00,29.0,6.6,30.33,West,274,0.0,0.0,38,0.00,,---,0.00,VWS V14.01,2013-01-24 11:39:00,
2013-01-24 06:40:00,29.0,6.6,30.33,West,274,0.0,0.0,38,0.00,,---,0.00,VWS V14.01,2013-01-24 11:40:00,
2013-01-24 06:41:00,28.8,6.4,30.33,West,274,0.0,0.0,38,0.00,,---,0.00,VWS V14.01,2013-01-24 11:41:00,
2013-01-24 06:42:00,28.8,6.4,30.33,West,274,0.0,0.0,38,0.00,,---,0.00,VWS V14.01,2013-01-24 11:42:00,
2013-01-24 06:43:00,28.8,6.4,30.33,West,274,0.0,0.0,38,0.00,,---,0.00,VWS V14.01,2013-01-24 11:43:00,
2013-01-24 06:44:00,28.8,6.4,30.33,West,274,0.0,0.0,38,0.00,,---,0.00,VWS V14.01,2013-01-24 11:44:00,
2013-01-24 06:45:00,28.8,6.4,30.34,West,274,0.0,0.0,38,0.00,,---,0.00,VWS V14.01,2013-01-24 11:45:00,
2013-01-24 06:46:00,28.7,6.9,30.34,West,274,0.0,0.0,39,0.00,,---,0.00,VWS V14.01,2013-01-24 11:46:00,
2013-01-24 06:47:00,28.7,6.9,30.34,West,274,0.0,0.0,39,0.00,,---,0.00,VWS V14.01,2013-01-24 11:47:00,
2013-01-24 06:48:00,28.7,7.4,30.34,West,274,0.0,0.0,40,0.00,,---,0.00,VWS V14.01,2013-01-24 11:48:00,
2013-01-24 06:49:00,28.5,7.3,30.34,West,274,0.0,0.0,40,0.00,,---,0.00,VWS V14.01,2013-01-24 11:49:00,
2013-01-24 06:50:00,28.5,7.3,30.34,West,274,0.0,0.0,40,0.00,,---,0.00,VWS V14.01,2013-01-24 11:50:00,
2013-01-24 06:51:00,28.5,6.1,30.34,West,275,3.0,3.0,38,0.00,,---,0.00,VWS V14.01,2013-01-24 11:51:00,
2013-01-24 06:52:00,28.4,6.1,30.34,West,275,0.0,3.0,38,0.00,,---,0.00,VWS V14.01,2013-01-24 11:52:00,
2013-01-24 06:53:00,28.4,4.2,30.34,West,275,0.0,3.0,35,0.00,,---,0.00,VWS V14.01,2013-01-24 11:53:00,
2013-01-24 06:54:00,28.4,3.6,30.34,West,275,0.0,3.0,34,0.00,,---,0.00,VWS V14.01,2013-01-24 11:54:00,
2013-01-24 06:55:00,28.2,4.1,30.34,West,275,0.0,3.0,35,0.00,,---,0.00,VWS V14.01,2013-01-24 11:55:00,
2013-01-24 06:56:00,28.2,4.1,30.34,West,275,0.0,3.0,35,0.00,,---,0.00,VWS V14.01,2013-01-24 11:56:00,
2013-01-24 06:57:00,28.2,4.7,30.34,West,275,0.0,3.0,36,0.00,,---,0.00,VWS V14.01,2013-01-24 11:57:00,
2013-01-24 06:58:00,28.2,5.9,30.34,West,275,0.0,3.0,38,0.00,,---,0.00,VWS V14.01,2013-01-24 11:58:00,
2013-01-24 06:59:00,28.2,5.3,30.34,West,275,0.0,3.0,37,0.00,,---,0.00,VWS V14.01,2013-01-24 11:59:00,
2013-01-24 07:00:00,28.1,4.6,30.36,West,275,0.0,3.0,36,0.00,,---,0.00,VWS V14.01,2013-01-24 12:00:00,
2013-01-24 07:01:00,28.1,4.0,30.36,West,275,0.0,2.0,35,0.00,,---,0.00,VWS V14.01,2013-01-24 12:01:00,
2013-01-24 07:02:00,28.1,4.0,30.36,West,275,0.0,2.0,35,0.00,,---,0.00,VWS V14.01,2013-01-24 12:02:00,
2013-01-24 07:03:00,28.1,4.0,30.36,West,275,0.0,2.0,35,0.00,,---,0.00,VWS V14.01,2013-01-24 12:03:00,
2013-01-24 07:04:00,28.1,4.6,30.36,West,275,0.0,2.0,36,0.00,,---,0.00,VWS V14.01,2013-01-24 12:04:00,
2013-01-24 07:05:00,28.1,5.2,30.36,West,275,0.0,2.0,37,0.00,,---,0.00,VWS V14.01,2013-01-24 12:05:00,
2013-01-24 07:06:00,27.9,5.0,30.36,West,275,0.0,2.0,37,0.00,,---,0.00,VWS V14.01,2013-01-24 12:06:00,
2013-01-24 07:07:00,27.9,5.6,30.36,West,275,0.0,2.0,38,0.00,,---,0.00,VWS V14.01,2013-01-24 12:07:00,
2013-01-24 07:08:00,27.9,5.6,30.36,West,275,0.0,2.0,38,0.00,,---,0.00,VWS V14.01,2013-01-24 12:08:00,
2013-01-24 07:09:00,27.9,5.6,30.36,West,275,0.0,2.0,38,0.00,,---,0.00,VWS V14.01,2013-01-24 12:09:00,
2013-01-24 07:10:00,27.9,5.6,30.36,West,275,0.0,2.0,38,0.00,,---,0.00,VWS V14.01,2013-01-24 12:10:00,
2013-01-24 07:11:00,27.9,5.6,30.36,West,275,0.0,0.0,38,0.00,,---,0.00,VWS V14.01,2013-01-24 12:11:00,
2013-01-24 07:12:00,27.9,5.6,30.36,West,275,0.0,0.0,38,0.00,,---,0.00,VWS V14.01,2013-01-24 12:12:00,
2013-01-24 07:13:00,27.9,5.6,30.36,West,275,0.0,0.0,38,0.00,,---,0.00,VWS V14.01,2013-01-24 12:13:00,
2013-01-24 07:14:00,27.9,5.6,30.36,West,275,0.0,0.0,38,0.00,,---,0.00,VWS V14.01,2013-01-24 12:14:00,
2013-01-24 07:15:00,27.9,5.6,30.38,West,275,0.0,0.0,38,0.00,,---,0.00,VWS V14.01,2013-01-24 12:15:00,
2013-01-24 07:16:00,27.8,5.5,30.38,West,275,0.0,0.0,38,0.00,,---,0.00,VWS V14.01,2013-01-24 12:16:00,
2013-01-24 07:17:00,27.8,5.5,30.38,West,275,0.0,0.0,38,0.00,,---,0.00,VWS V14.01,2013-01-24 12:17:00,
2013-01-24 07:18:00,27.8,5.5,30.38,West,275,0.0,0.0,38,0.00,,---,0.00,VWS V14.01,2013-01-24 12:18:00,
2013-01-24 07:19:00,27.8,5.5,30.38,West,275,0.0,0.0,38,0.00,,---,0.00,VWS V14.01,2013-01-24 12:19:00,
2013-01-24 07:20:00,27.8,5.5,30.38,West,275,0.0,0.0,38,0.00,,---,0.00,VWS V14.01,2013-01-24 12:20:00,
2013-01-24 07:21:00,27.8,5.5,30.38,West,275,0.0,0.0,38,0.00,,---,0.00,VWS V14.01,2013-01-24 12:21:00,
2013-01-24 07:22:00,27.8,6.6,30.38,West,275,0.0,0.0,40,0.00,,---,0.00,VWS V14.01,2013-01-24 12:22:00,
2013-01-24 07:23:00,27.8,6.6,30.38,West,275,0.0,0.0,40,0.00,,---,0.00,VWS V14.01,2013-01-24 12:23:00,
2013-01-24 07:24:00,27.6,6.4,30.38,West,275,0.0,0.0,40,0.00,,---,0.00,VWS V14.01,2013-01-24 12:24:00,
2013-01-24 07:25:00,27.6,6.4,30.38,West,275,0.0,0.0,40,0.00,,---,0.00,VWS V14.01,2013-01-24 12:25:00,
2013-01-24 07:26:00,27.6,6.4,30.38,West,275,0.0,0.0,40,0.00,,---,0.00,VWS V14.01,2013-01-24 12:26:00,
2013-01-24 07:27:00,27.6,6.4,30.38,West,275,0.0,0.0,40,0.00,,---,0.00,VWS V14.01,2013-01-24 12:27:00,
2013-01-24 07:28:00,27.6,6.4,30.38,West,275,0.0,0.0,40,0.00,,---,0.00,VWS V14.01,2013-01-24 12:28:00,
2013-01-24 07:29:00,27.6,6.4,30.38,West,265,0.0,0.0,40,0.00,,---,0.00,VWS V14.01,2013-01-24 12:29:00,
2013-01-24 07:30:00,27.5,5.2,30.38,West,275,0.0,0.0,38,0.00,,---,0.00,VWS V14.01,2013-01-24 12:30:00,
2013-01-24 07:31:00,27.5,5.2,30.38,West,275,0.0,0.0,38,0.00,,---,0.00,VWS V14.01,2013-01-24 12:31:00,
2013-01-24 07:32:00,27.5,5.2,30.38,West,275,0.0,0.0,38,0.00,,---,0.00,VWS V14.01,2013-01-24 12:32:00,
2013-01-24 07:33:00,27.3,6.2,30.38,West,265,0.0,0.0,40,0.00,,---,0.00,VWS V14.01,2013-01-24 12:33:00,
2013-01-24 07:34:00,27.3,6.7,30.38,West,275,0.0,0.0,41,0.00,,---,0.00,VWS V14.01,2013-01-24 12:34:00,
2013-01-24 07:35:00,27.3,6.7,30.38,West,275,0.0,0.0,41,0.00,,---,0.00,VWS V14.01,2013-01-24 12:35:00,
2013-01-24 07:36:00,27.3,6.7,30.38,West,275,0.0,0.0,41,0.00,,---,0.00,VWS V14.01,2013-01-24 12:36:00,
2013-01-24 07:37:00,27.3,7.2,30.38,West,275,0.0,0.0,42,0.00,,---,0.00,VWS V14.01,2013-01-24 12:37:00,
2013-01-24 07:38:00,27.3,7.2,30.38,West,275,0.0,0.0,42,0.00,,---,0.00,VWS V14.01,2013-01-24 12:38:00,
2013-01-24 07:39:00,27.2,7.2,30.38,West,275,0.0,0.0,42,0.00,,---,0.00,VWS V14.01,2013-01-24 12:39:00,
2013-01-24 07:40:00,27.2,6.6,30.38,West,275,0.0,0.0,41,0.00,,---,0.00,VWS V14.01,2013-01-24 12:40:00,
2013-01-24 07:41:00,27.2,6.6,30.38,West,275,0.0,0.0,41,0.00,,---,0.00,VWS V14.01,2013-01-24 12:41:00,
2013-01-24 07:42:00,27.2,7.2,30.38,West,275,0.0,0.0,42,0.00,,---,0.00,VWS V14.01,2013-01-24 12:42:00,
2013-01-24 07:43:00,27.0,8.0,30.38,West,275,0.0,0.0,44,0.00,,---,0.00,VWS V14.01,2013-01-24 12:43:00,
2013-01-24 07:44:00,27.0,8.5,30.38,West,275,0.0,0.0,45,0.00,,---,0.00,VWS V14.01,2013-01-24 12:44:00,
2013-01-24 07:45:00,27.0,9.0,30.38,West,275,0.0,0.0,46,0.00,,---,0.00,VWS V14.01,2013-01-24 12:45:00,
2013-01-24 07:46:00,26.9,8.4,30.38,West,275,0.0,0.0,45,0.00,,---,0.00,VWS V14.01,2013-01-24 12:46:00,
2013-01-24 07:47:00,26.9,8.9,30.38,West,275,0.0,0.0,46,0.00,,---,0.00,VWS V14.01,2013-01-24 12:47:00,
2013-01-24 07:48:00,26.7,8.7,30.38,West,275,0.0,0.0,46,0.00,,---,0.00,VWS V14.01,2013-01-24 12:48:00,
2013-01-24 07:49:00,26.7,8.7,30.38,West,275,0.0,0.0,46,0.00,,---,0.00,VWS V14.01,2013-01-24 12:49:00,
2013-01-24 07:50:00,26.7,9.2,30.38,West,275,0.0,0.0,47,0.00,,---,0.00,VWS V14.01,2013-01-24 12:50:00,
2013-01-24 07:51:00,26.6,9.1,30.38,West,275,0.0,0.0,47,0.00,,---,0.00,VWS V14.01,2013-01-24 12:51:00,
2013-01-24 07:52:00,26.6,9.1,30.38,West,275,0.0,0.0,47,0.00,,---,0.00,VWS V14.01,2013-01-24 12:52:00,
2013-01-24 07:53:00,26.6,9.6,30.38,West,275,0.0,0.0,48,0.00,,---,0.00,VWS V14.01,2013-01-24 12:53:00,
2013-01-24 07:54:00,26.4,9.4,30.38,West,275,0.0,0.0,48,0.00,,---,0.00,VWS V14.01,2013-01-24 12:54:00,
2013-01-24 07:55:00,26.4,9.4,30.38,West,275,0.0,0.0,48,0.00,,---,0.00,VWS V14.01,2013-01-24 12:55:00,
2013-01-24 07:56:00,26.4,9.4,30.38,West,275,0.0,0.0,48,0.00,,---,0.00,VWS V14.01,2013-01-24 12:56:00,
2013-01-24 07:57:00,26.3,8.8,30.38,West,275,0.0,0.0,47,0.00,,---,0.00,VWS V14.01,2013-01-24 12:57:00,
2013-01-24 07:58:00,26.3,8.8,30.38,West,275,0.0,0.0,47,0.00,,---,0.00,VWS V14.01,2013-01-24 12:58:00,
2013-01-24 07:59:00,26.1,8.6,30.38,West,275,0.0,0.0,47,0.00,,---,0.00,VWS V14.01,2013-01-24 12:59:00,
2013-01-24 08:00:00,26.1,8.6,30.39,West,275,0.0,0.0,47,0.00,,---,0.00,VWS V14.01,2013-01-24 13:00:00,
2013-01-24 08:01:00,26.1,9.1,30.39,West,275,0.0,0.0,48,0.00,,---,0.00,VWS V14.01,2013-01-24 13:01:00,
2013-01-24 08:02:00,26.0,9.0,30.39,West,275,0.0,0.0,48,0.00,,---,0.00,VWS V14.01,2013-01-24 13:02:00,
2013-01-24 08:03:00,26.0,9.0,30.39,West,275,0.0,0.0,48,0.00,,---,0.00,VWS V14.01,2013-01-24 13:03:00,
2013-01-24 08:04:00,26.0,9.0,30.39,West,275,0.0,0.0,48,0.00,,---,0.00,VWS V14.01,2013-01-24 13:04:00,
2013-01-24 08:05:00,25.8,8.4,30.39,West,275,0.0,0.0,47,0.00,,---,0.00,VWS V14.01,2013-01-24 13:05:00,
2013-01-24 08:06:00,25.8,8.4,30.39,West,275,0.0,0.0,47,0.00,,---,0.00,VWS V14.01,2013-01-24 13:06:00,
2013-01-24 08:07:00,25.8,8.4,30.39,West,275,0.0,0.0,47,0.00,,---,0.00,VWS V14.01,2013-01-24 13:07:00,
2013-01-24 08:08:00,25.7,8.3,30.39,West,275,0.0,0.0,47,0.00,,---,0.00,VWS V14.01,2013-01-24 13:08:00,
2013-01-24 08:09:00,25.7,8.7,30.39,West,275,0.0,0.0,48,0.00,,---,0.00,VWS V14.01,2013-01-24 13:09:00,
2013-01-24 08:10:00,25.7,9.2,30.39,West,275,0.0,0.0,49,0.00,,---,0.00,VWS V14.01,2013-01-24 13:10:00,
2013-01-24 08:11:00,25.7,9.6,30.39,West,275,0.0,0.0,50,0.00,,---,0.00,VWS V14.01,2013-01-24 13:11:00,
2013-01-24 08:12:00,25.7,9.6,30.39,West,275,0.0,0.0,50,0.00,,---,0.00,VWS V14.01,2013-01-24 13:12:00,
2013-01-24 08:13:00,25.7,9.6,30.39,West,275,0.0,0.0,50,0.00,,---,0.00,VWS V14.01,2013-01-24 13:13:00,
2013-01-24 08:14:00,25.6,10.4,30.39,West,275,0.0,0.0,52,0.00,,---,0.00,VWS V14.01,2013-01-24 13:14:00,
2013-01-24 08:15:00,25.6,10.4,30.39,West,275,0.0,0.0,52,0.00,,---,0.00,VWS V14.01,2013-01-24 13:15:00,
2013-01-24 08:16:00,25.4,9.8,30.39,West,275,0.0,0.0,51,0.00,,---,0.00,VWS V14.01,2013-01-24 13:16:00,
2013-01-24 08:17:00,25.4,10.2,30.39,West,275,0.0,0.0,52,0.00,,---,0.00,VWS V14.01,2013-01-24 13:17:00,
2013-01-24 08:18:00,25.4,9.8,30.39,West,275,0.0,0.0,51,0.00,,---,0.00,VWS V14.01,2013-01-24 13:18:00,
2013-01-24 08:19:00,25.3,9.7,30.39,West,275,0.0,0.0,51,0.00,,---,0.00,VWS V14.01,2013-01-24 13:19:00,
2013-01-24 08:20:00,25.3,9.7,30.39,West,275,0.0,0.0,51,0.00,,---,0.00,VWS V14.01,2013-01-24 13:20:00,
2013-01-24 08:21:00,25.3,9.7,30.39,West,275,0.0,0.0,51,0.00,,---,0.00,VWS V14.01,2013-01-24 13:21:00,
2013-01-24 08:22:00,25.1,9.5,30.39,West,275,0.0,0.0,51,0.00,,---,0.00,VWS V14.01,2013-01-24 13:22:00,
2013-01-24 08:23:00,25.1,9.1,30.39,West,275,0.0,0.0,50,0.00,,---,0.00,VWS V14.01,2013-01-24 13:23:00,
2013-01-24 08:24:00,25.1,8.6,30.39,West,275,0.0,0.0,49,0.00,,---,0.00,VWS V14.01,2013-01-24 13:24:00,
2013-01-24 08:25:00,25.0,8.6,30.39,West,275,0.0,0.0,49,0.00,,---,0.00,VWS V14.01,2013-01-24 13:25:00,
2013-01-24 08:26:00,25.0,8.6,30.39,West,275,0.0,0.0,49,0.00,,---,0.00,VWS V14.01,2013-01-24 13:26:00,
2013-01-24 08:27:00,25.0,9.0,30.39,West,275,0.0,0.0,50,0.00,,---,0.00,VWS V14.01,2013-01-24 13:27:00,
2013-01-24 08:28:00,24.8,8.8,30.39,West,275,0.0,0.0,50,0.00,,---,0.00,VWS V14.01,2013-01-24 13:28:00,
2013-01-24 08:29:00,24.8,9.2,30.39,West,275,0.0,0.0,51,0.00,,---,0.00,VWS V14.01,2013-01-24 13:29:00,
2013-01-24 08:30:00,24.8,8.8,30.39,West,275,0.0,0.0,50,0.00,,---,0.00,VWS V14.01,2013-01-24 13:30:00,
2013-01-24 08:31:00,24.8,8.8,30.39,West,275,0.0,0.0,50,0.00,,---,0.00,VWS V14.01,2013-01-24 13:31:00,
2013-01-24 08:32:00,24.8,9.2,30.39,West,275,0.0,0.0,51,0.00,,---,0.00,VWS V14.01,2013-01-24 13:32:00,
2013-01-24 08:33:00,24.7,9.2,30.39,West,275,0.0,0.0,51,0.00,,---,0.00,VWS V14.01,2013-01-24 13:33:00,
2013-01-24 08:34:00,24.7,9.2,30.39,West,275,0.0,0.0,51,0.00,,---,0.00,VWS V14.01,2013-01-24 13:34:00,
2013-01-24 08:35:00,24.7,9.2,30.39,West,275,0.0,0.0,51,0.00,,---,0.00,VWS V14.01,2013-01-24 13:35:00,
2013-01-24 08:36:00,24.7,9.2,30.39,West,275,0.0,0.0,51,0.00,,---,0.00,VWS V14.01,2013-01-24 13:36:00,
2013-01-24 08:37:00,24.7,9.2,30.39,West,275,0.0,0.0,51,0.00,,---,0.00,VWS V14.01,2013-01-24 13:37:00,
2013-01-24 08:38:00,24.7,9.6,30.39,West,275,0.0,0.0,52,0.00,,---,0.00,VWS V14.01,2013-01-24 13:38:00,
2013-01-24 08:39:00,24.5,9.4,30.39,West,275,0.0,0.0,52,0.00,,---,0.00,VWS V14.01,2013-01-24 13:39:00,
2013-01-24 08:40:00,24.5,9.0,30.39,West,275,0.0,0.0,51,0.00,,---,0.00,VWS V14.01,2013-01-24 13:40:00,
2013-01-24 08:41:00,24.5,9.4,30.39,West,275,0.0,0.0,52,0.00,,---,0.00,VWS V14.01,2013-01-24 13:41:00,
2013-01-24 08:42:00,24.5,9.0,30.39,West,275,0.0,0.0,51,0.00,,---,0.00,VWS V14.01,2013-01-24 13:42:00,
2013-01-24 08:43:00,24.4,9.3,30.39,West,275,0.0,0.0,52,0.00,,---,0.00,VWS V14.01,2013-01-24 13:43:00,
2013-01-24 08:44:00,24.4,9.3,30.39,West,275,0.0,0.0,52,0.00,,---,0.00,VWS V14.01,2013-01-24 13:44:00,
2013-01-24 08:45:00,24.4,8.9,30.40,West,275,0.0,0.0,51,0.00,,---,0.00,VWS V14.01,2013-01-24 13:45:00,
2013-01-24 08:46:00,24.4,8.9,30.40,West,275,0.0,0.0,51,0.00,,---,0.00,VWS V14.01,2013-01-24 13:46:00,
2013-01-24 08:47:00,24.4,9.3,30.40,West,275,0.0,0.0,52,0.00,,---,0.00,VWS V14.01,2013-01-24 13:47:00,
2013-01-24 08:48:00,24.2,9.1,30.40,West,275,0.0,0.0,52,0.00,,---,0.00,VWS V14.01,2013-01-24 13:48:00,
2013-01-24 08:49:00,24.2,9.1,30.40,West,275,0.0,0.0,52,0.00,,---,0.00,VWS V14.01,2013-01-24 13:49:00,
2013-01-24 08:50:00,24.2,9.1,30.40,West,275,0.0,0.0,52,0.00,,---,0.00,VWS V14.01,2013-01-24 13:50:00,
2013-01-24 08:51:00,24.2,9.1,30.40,West,275,0.0,0.0,52,0.00,,---,0.00,VWS V14.01,2013-01-24 13:51:00,
2013-01-24 08:52:00,24.1,9.0,30.40,West,275,0.0,0.0,52,0.00,,---,0.00,VWS V14.01,2013-01-24 13:52:00,
2013-01-24 08:53:00,24.1,7.7,30.40,West,275,2.0,2.0,49,0.00,,---,0.00,VWS V14.01,2013-01-24 13:53:00,
2013-01-24 08:54:00,24.1,7.3,30.40,West,275,0.0,2.0,48,0.00,,---,0.00,VWS V14.01,2013-01-24 13:54:00,
2013-01-24 08:55:00,24.1,7.3,30.40,West,275,0.0,2.0,48,0.00,,---,0.00,VWS V14.01,2013-01-24 13:55:00,
2013-01-24 08:56:00,24.1,7.7,30.40,West,275,0.0,2.0,49,0.00,,---,0.00,VWS V14.01,2013-01-24 13:56:00,
2013-01-24 08:57:00,24.1,7.3,30.40,West,275,1.0,2.0,48,0.00,,---,0.00,VWS V14.01,2013-01-24 13:57:00,
2013-01-24 08:58:00,24.1,6.8,30.40,West,275,0.0,2.0,47,0.00,,---,0.00,VWS V14.01,2013-01-24 13:58:00,
2013-01-24 08:59:00,24.1,6.8,30.40,West,275,0.0,2.0,47,0.00,,---,0.00,VWS V14.01,2013-01-24 13:59:00,
2013-01-24 09:00:00,24.1,6.3,30.40,ENE,76,2.0,2.0,46,0.00,,---,0.00,VWS V14.01,2013-01-24 14:00:00,
2013-01-24 09:01:00,24.1,6.3,30.40,East,79,2.0,3.0,46,0.00,,---,0.00,VWS V14.01,2013-01-24 14:01:00,
2013-01-24 09:02:00,24.2,5.9,30.40,East,83,0.0,5.0,45,0.00,,---,0.00,VWS V14.01,2013-01-24 14:02:00,
2013-01-24 09:03:00,24.2,5.9,30.40,East,83,2.0,5.0,45,0.00,,---,0.00,VWS V14.01,2013-01-24 14:03:00,
2013-01-24 09:04:00,24.4,6.1,30.40,East,83,2.0,5.0,45,0.00,,---,0.00,VWS V14.01,2013-01-24 14:04:00,
2013-01-24 09:05:00,24.4,5.6,30.40,East,83,6.0,6.0,44,0.00,,---,0.00,VWS V14.01,2013-01-24 14:05:00,
2013-01-24 09:06:00,24.5,5.2,30.40,East,83,0.0,6.0,43,0.00,,---,0.00,VWS V14.01,2013-01-24 14:06:00,
2013-01-24 09:07:00,24.5,5.7,30.40,East,83,0.0,6.0,44,0.00,,---,0.00,VWS V14.01,2013-01-24 14:07:00,
2013-01-24 09:08:00,24.5,6.2,30.40,East,84,1.0,6.0,45,0.00,,---,0.00,VWS V14.01,2013-01-24 14:08:00,
2013-01-24 09:09:00,24.7,6.4,30.40,East,84,2.0,6.0,45,0.00,,---,0.00,VWS V14.01,2013-01-24 14:09:00,
2013-01-24 09:10:00,24.7,6.4,30.40,East,96,2.0,6.0,45,0.00,,---,0.00,VWS V14.01,2013-01-24 14:10:00,
2013-01-24 09:11:00,24.7,5.9,30.40,East,97,1.0,3.0,44,0.00,,---,0.00,VWS V14.01,2013-01-24 14:11:00,
2013-01-24 09:12:00,24.7,6.4,30.40,East,101,4.0,5.0,45,0.00,,---,0.00,VWS V14.01,2013-01-24 14:12:00,
2013-01-24 09:13:00,24.7,5.4,30.40,East,90,2.0,5.0,43,0.00,,---,0.00,VWS V14.01,2013-01-24 14:13:00,
2013-01-24 09:14:00,24.7,5.4,30.40,East,97,3.0,5.0,43,0.00,,---,0.00,VWS V14.01,2013-01-24 14:14:00,
2013-01-24 09:15:00,24.8,5.0,30.39,East,98,6.0,6.0,42,0.00,,---,0.00,VWS V14.01,2013-01-24 14:15:00,
2013-01-24 09:16:00,24.8,5.5,30.39,ENE,73,5.0,6.0,43,0.00,,---,0.00,VWS V14.01,2013-01-24 14:16:00,
2013-01-24 09:17:00,24.8,5.5,30.39,ENE,67,2.0,6.0,43,0.00,,---,0.00,VWS V14.01,2013-01-24 14:17:00,
2013-01-24 09:18:00,24.8,5.5,30.39,ENE,65,5.0,6.0,43,0.00,,---,0.00,VWS V14.01,2013-01-24 14:18:00,
2013-01-24 09:19:00,24.8,5.5,30.39,ENE,77,1.0,6.0,43,0.00,,---,0.00,VWS V14.01,2013-01-24 14:19:00,
2013-01-24 09:20:00,24.8,5.5,30.39,East,90,3.0,6.0,43,0.00,,---,0.00,VWS V14.01,2013-01-24 14:20:00,
2013-01-24 09:21:00,24.8,5.5,30.39,East,96,6.0,6.0,43,0.00,,---,0.00,VWS V14.01,2013-01-24 14:21:00,
2013-01-24 09:22:00,24.8,5.5,30.39,ESE,104,3.0,6.0,43,0.00,,---,0.00,VWS V14.01,2013-01-24 14:22:00,
2013-01-24 09:23:00,24.8,5.5,30.39,ESE,108,4.0,6.0,43,0.00,,---,0.00,VWS V14.01,2013-01-24 14:23:00,
2013-01-24 09:24:00,24.8,5.5,30.39,ESE,110,5.0,6.0,43,0.00,,---,0.00,VWS V14.01,2013-01-24 14:24:00,
2013-01-24 09:25:00,24.7,5.4,30.39,East,86,4.0,6.0,43,0.00,,---,0.00,VWS V14.01,2013-01-24 14:25:00,
2013-01-24 09:26:00,24.7,5.4,30.39,East,93,0.0,6.0,43,0.00,,---,0.00,VWS V14.01,2013-01-24 14:26:00,
2013-01-24 09:27:00,24.7,5.4,30.39,East,93,2.0,6.0,43,0.00,,---,0.00,VWS V14.01,2013-01-24 14:27:00,
2013-01-24 09:28:00,24.7,5.4,30.39,East,93,2.0,6.0,43,0.00,,---,0.00,VWS V14.01,2013-01-24 14:28:00,
2013-01-24 09:29:00,24.7,5.4,30.39,East,90,2.0,6.0,43,0.00,,---,0.00,VWS V14.01,2013-01-24 14:29:00,
2013-01-24 09:30:00,24.7,5.4,30.40,East,93,3.0,6.0,43,0.00,,---,0.00,VWS V14.01,2013-01-24 14:30:00,
2013-01-24 09:31:00,24.7,5.4,30.40,East,89,3.0,3.0,43,0.00,,---,0.00,VWS V14.01,2013-01-24 14:31:00,
2013-01-24 09:32:00,24.7,5.4,30.40,East,93,3.0,3.0,43,0.00,,---,0.00,VWS V14.01,2013-01-24 14:32:00,
2013-01-24 09:33:00,24.5,5.2,30.40,East,93,1.0,3.0,43,0.00,,---,0.00,VWS V14.01,2013-01-24 14:33:00,
2013-01-24 09:34:00,24.5,5.2,30.40,East,93,0.0,3.0,43,0.00,,---,0.00,VWS V14.01,2013-01-24 14:34:00,
2013-01-24 09:35:00,24.5,5.2,30.40,East,93,0.0,3.0,43,0.00,,---,0.00,VWS V14.01,2013-01-24 14:35:00,
2013-01-24 09:36:00,24.5,5.2,30.40,East,93,1.0,3.0,43,0.00,,---,0.00,VWS V14.01,2013-01-24 14:36:00,
2013-01-24 09:37:00,24.5,5.7,30.40,East,93,2.0,3.0,44,0.00,,---,0.00,VWS V14.01,2013-01-24 14:37:00,
2013-01-24 09:38:00,24.5,6.2,30.40,East,93,0.0,3.0,45,0.00,,---,0.00,VWS V14.01,2013-01-24 14:38:00,
2013-01-24 09:39:00,24.5,6.2,30.40,East,93,1.0,3.0,45,0.00,,---,0.00,VWS V14.01,2013-01-24 14:39:00,
2013-01-24 09:40:00,24.5,6.2,30.40,East,93,0.0,3.0,45,0.00,,---,0.00,VWS V14.01,2013-01-24 14:40:00,
2013-01-24 09:41:00,24.4,6.1,30.40,East,93,0.0,2.0,45,0.00,,---,0.00,VWS V14.01,2013-01-24 14:41:00,
2013-01-24 09:42:00,24.4,6.1,30.40,East,93,0.0,2.0,45,0.00,,---,0.00,VWS V14.01,2013-01-24 14:42:00,
2013-01-24 09:43:00,24.4,6.6,30.40,East,93,0.0,2.0,46,0.00,,---,0.00,VWS V14.01,2013-01-24 14:43:00,
2013-01-24 09:44:00,24.4,7.1,30.40,East,93,0.0,2.0,47,0.00,,---,0.00,VWS V14.01,2013-01-24 14:44:00,
2013-01-24 09:45:00,24.4,6.6,30.42,East,93,3.0,3.0,46,0.00,,---,0.00,VWS V14.01,2013-01-24 14:45:00,
2013-01-24 09:46:00,24.2,6.4,30.42,East,96,1.0,3.0,46,0.00,,---,0.00,VWS V14.01,2013-01-24 14:46:00,
2013-01-24 09:47:00,24.2,6.4,30.42,East,83,1.0,6.0,46,0.00,,---,0.00,VWS V14.01,2013-01-24 14:47:00,
2013-01-24 09:48:00,24.2,5.9,30.42,East,79,6.0,6.0,45,0.00,,---,0.00,VWS V14.01,2013-01-24 14:48:00,
2013-01-24 09:49:00,24.1,5.8,30.42,East,79,3.0,6.0,45,0.00,,---,0.00,VWS V14.01,2013-01-24 14:49:00,
2013-01-24 09:50:00,24.1,5.8,30.42,East,80,3.0,6.0,45,0.00,,---,0.00,VWS V14.01,2013-01-24 14:50:00,
2013-01-24 09:51:00,24.1,5.8,30.42,East,84,3.0,3.0,45,0.00,,---,0.00,VWS V14.01,2013-01-24 14:51:00,
2013-01-24 09:52:00,23.9,5.7,30.42,East,84,3.0,3.0,45,0.00,,---,0.00,VWS V14.01,2013-01-24 14:52:00,
2013-01-24 09:53:00,23.9,5.7,30.42,East,86,6.0,6.0,45,0.00,,---,0.00,VWS V14.01,2013-01-24 14:53:00,
2013-01-24 09:54:00,23.9,5.7,30.42,East,91,2.0,6.0,45,0.00,,---,0.00,VWS V14.01,2013-01-24 14:54:00,
2013-01-24 09:55:00,23.9,5.7,30.42,East,91,3.0,6.0,45,0.00,,---,0.00,VWS V14.01,2013-01-24 14:55:00,
2013-01-24 09:56:00,23.8,5.6,30.42,East,87,2.0,6.0,45,0.00,,---,0.00,VWS V14.01,2013-01-24 14:56:00,
2013-01-24 09:57:00,23.8,5.6,30.42,East,87,3.0,6.0,45,0.00,,---,0.00,VWS V14.01,2013-01-24 14:57:00,
2013-01-24 09:58:00,23.8,6.1,30.42,East,87,3.0,6.0,46,0.00,,---,0.00,VWS V14.01,2013-01-24 14:58:00,
2013-01-24 09:59:00,23.8,6.1,30.42,ENE,77,3.0,6.0,46,0.00,,---,0.00,VWS V14.01,2013-01-24 14:59:00,
2013-01-24 10:00:00,23.6,5.9,30.41,ENE,70,2.0,6.0,46,0.00,,---,0.00,VWS V14.01,2013-01-24 15:00:00,
2013-01-24 10:01:00,23.6,5.9,30.41,East,101,1.0,8.0,46,0.00,,---,0.00,VWS V14.01,2013-01-24 15:01:00,
2013-01-24 10:02:00,23.6,5.4,30.41,East,98,2.0,8.0,45,0.00,,---,0.00,VWS V14.01,2013-01-24 15:02:00,
2013-01-24 10:03:00,23.6,5.4,30.41,ESE,108,4.0,8.0,45,0.00,,---,0.00,VWS V14.01,2013-01-24 15:03:00,
2013-01-24 10:04:00,23.6,5.4,30.41,East,96,3.0,8.0,45,0.00,,---,0.00,VWS V14.01,2013-01-24 15:04:00,
2013-01-24 10:05:00,23.5,5.3,30.41,East,97,1.0,8.0,45,0.00,,---,0.00,VWS V14.01,2013-01-24 15:05:00,
2013-01-24 10:06:00,23.5,5.8,30.41,East,100,0.0,8.0,46,0.00,,---,0.00,VWS V14.01,2013-01-24 15:06:00,
2013-01-24 10:07:00,23.5,5.8,30.41,East,100,0.0,8.0,46,0.00,,---,0.00,VWS V14.01,2013-01-24 15:07:00,
2013-01-24 10:08:00,23.5,6.2,30.41,East,94,2.0,8.0,47,0.00,,---,0.00,VWS V14.01,2013-01-24 15:08:00,
2013-01-24 10:09:00,23.5,6.2,30.41,ESE,110,1.0,8.0,47,0.00,,---,0.00,VWS V14.01,2013-01-24 15:09:00,
2013-01-24 10:10:00,23.3,6.1,30.41,ESE,110,3.0,8.0,47,0.00,,---,0.00,VWS V14.01,2013-01-24 15:10:00,
2013-01-24 10:11:00,23.3,5.6,30.41,ESE,121,3.0,5.0,46,0.00,,---,0.00,VWS V14.01,2013-01-24 15:11:00,
2013-01-24 10:12:00,23.3,6.1,30.41,East,83,0.0,5.0,47,0.00,,---,0.00,VWS V14.01,2013-01-24 15:12:00,
2013-01-24 10:13:00,23.3,5.6,30.41,East,94,1.0,5.0,46,0.00,,---,0.00,VWS V14.01,2013-01-24 15:13:00,
2013-01-24 10:14:00,23.3,6.1,30.41,East,94,0.0,5.0,47,0.00,,---,0.00,VWS V14.01,2013-01-24 15:14:00,
2013-01-24 10:15:00,23.2,6.0,30.41,East,94,0.0,5.0,47,0.00,,---,0.00,VWS V14.01,2013-01-24 15:15:00,
2013-01-24 10:16:00,23.2,6.0,30.41,East,94,0.0,5.0,47,0.00,,---,0.00,VWS V14.01,2013-01-24 15:16:00,
2013-01-24 10:17:00,23.2,6.0,30.41,East,93,0.0,5.0,47,0.00,,---,0.00,VWS V14.01,2013-01-24 15:17:00,
2013-01-24 10:18:00,23.2,6.4,30.41,East,94,1.0,5.0,48,0.00,,---,0.00,VWS V14.01,2013-01-24 15:18:00,
2013-01-24 10:19:00,23.2,6.0,30.41,East,94,2.0,5.0,47,0.00,,---,0.00,VWS V14.01,2013-01-24 15:19:00,
2013-01-24 10:20:00,23.2,6.0,30.41,East,90,4.0,5.0,47,0.00,,---,0.00,VWS V14.01,2013-01-24 15:20:00,
2013-01-24 10:21:00,23.0,5.3,30.41,East,90,2.0,5.0,46,0.00,,---,0.00,VWS V14.01,2013-01-24 15:21:00,
2013-01-24 10:22:00,23.0,5.3,30.41,East,90,1.0,5.0,46,0.00,,---,0.00,VWS V14.01,2013-01-24 15:22:00,
2013-01-24 10:23:00,23.0,5.8,30.41,East,90,0.0,5.0,47,0.00,,---,0.00,VWS V14.01,2013-01-24 15:23:00,
2013-01-24 10:24:00,23.0,5.8,30.41,East,90,2.0,5.0,47,0.00,,---,0.00,VWS V14.01,2013-01-24 15:24:00,
2013-01-24 10:25:00,23.0,6.2,30.41,East,90,0.0,5.0,48,0.00,,---,0.00,VWS V14.01,2013-01-24 15:25:00,
2013-01-24 10:26:00,23.0,5.8,30.41,East,90,0.0,5.0,47,0.00,,---,0.00,VWS V14.01,2013-01-24 15:26:00,
2013-01-24 10:27:00,22.9,6.2,30.41,East,91,3.0,5.0,48,0.00,,---,0.00,VWS V14.01,2013-01-24 15:27:00,
2013-01-24 10:28:00,22.9,5.7,30.41,East,91,2.0,5.0,47,0.00,,---,0.00,VWS V14.01,2013-01-24 15:28:00,
2013-01-24 10:29:00,22.9,5.7,30.41,East,91,2.0,5.0,47,0.00,,---,0.00,VWS V14.01,2013-01-24 15:29:00,
2013-01-24 10:30:00,22.9,5.7,30.42,East,91,0.0,5.0,47,0.00,,---,0.00,VWS V14.01,2013-01-24 15:30:00,
2013-01-24 10:31:00,22.9,5.7,30.42,East,90,1.0,6.0,47,0.00,,---,0.00,VWS V14.01,2013-01-24 15:31:00,
2013-01-24 10:32:00,22.9,5.7,30.42,East,91,3.0,6.0,47,0.00,,---,0.00,VWS V14.01,2013-01-24 15:32:00,
2013-01-24 10:33:00,22.9,5.2,30.42,East,97,2.0,6.0,46,0.00,,---,0.00,VWS V14.01,2013-01-24 15:33:00,
2013-01-24 10:34:00,22.7,5.0,30.42,East,101,3.0,7.0,46,0.00,,---,0.00,VWS V14.01,2013-01-24 15:34:00,
2013-01-24 10:35:00,22.7,5.5,30.42,ESE,118,2.0,7.0,47,0.00,,---,0.00,VWS V14.01,2013-01-24 15:35:00,
2013-01-24 10:36:00,22.7,5.5,30.42,ESE,113,4.0,7.0,47,0.00,,---,0.00,VWS V14.01,2013-01-24 15:36:00,
2013-01-24 10:37:00,22.7,5.5,30.42,ESE,106,3.0,7.0,47,0.00,,---,0.00,VWS V14.01,2013-01-24 15:37:00,
2013-01-24 10:38:00,22.5,5.3,30.42,East,80,4.0,7.0,47,0.00,,---,0.00,VWS V14.01,2013-01-24 15:38:00,
2013-01-24 10:39:00,22.5,5.3,30.42,East,98,2.0,7.0,47,0.00,,---,0.00,VWS V14.01,2013-01-24 15:39:00,
2013-01-24 10:40:00,22.5,5.3,30.42,East,96,0.0,7.0,47,0.00,,---,0.00,VWS V14.01,2013-01-24 15:40:00,
2013-01-24 10:41:00,22.4,5.2,30.42,East,96,5.0,6.0,47,0.00,,---,0.00,VWS V14.01,2013-01-24 15:41:00,
2013-01-24 10:42:00,22.4,4.8,30.42,SE,144,2.0,6.0,46,0.00,,---,0.00,VWS V14.01,2013-01-24 15:42:00,
2013-01-24 10:43:00,22.4,5.2,30.42,East,94,7.0,7.0,47,0.00,,---,0.00,VWS V14.01,2013-01-24 15:43:00,
2013-01-24 10:44:00,22.2,4.6,30.42,ENE,70,3.0,7.0,46,0.00,,---,0.00,VWS V14.01,2013-01-24 15:44:00,
2013-01-24 10:45:00,22.2,4.6,30.42,East,83,0.0,7.0,46,0.00,,---,0.00,VWS V14.01,2013-01-24 15:45:00,
2013-01-24 10:46:00,22.2,4.6,30.42,ENE,77,4.0,7.0,46,0.00,,---,0.00,VWS V14.01,2013-01-24 15:46:00,
2013-01-24 10:47:00,22.2,5.1,30.42,ENE,77,3.0,7.0,47,0.00,,---,0.00,VWS V14.01,2013-01-24 15:47:00,
2013-01-24 10:48:00,22.1,4.5,30.42,East,90,3.0,7.0,46,0.00,,---,0.00,VWS V14.01,2013-01-24 15:48:00,
2013-01-24 10:49:00,22.1,4.5,30.42,ENE,70,5.0,7.0,46,0.00,,---,0.00,VWS V14.01,2013-01-24 15:49:00,
2013-01-24 10:50:00,22.1,4.5,30.42,East,100,3.0,7.0,46,0.00,,---,0.00,VWS V14.01,2013-01-24 15:50:00,
2013-01-24 10:51:00,21.9,4.3,30.42,East,87,5.0,5.0,46,0.00,,---,0.00,VWS V14.01,2013-01-24 15:51:00,
2013-01-24 10:52:00,21.9,4.3,30.42,East,84,2.0,6.0,46,0.00,,---,0.00,VWS V14.01,2013-01-24 15:52:00,
2013-01-24 10:53:00,21.9,4.3,30.42,East,89,1.0,6.0,46,0.00,,---,0.00,VWS V14.01,2013-01-24 15:53:00,
2013-01-24 10:54:00,21.9,4.3,30.42,East,94,4.0,6.0,46,0.00,,---,0.00,VWS V14.01,2013-01-24 15:54:00,
2013-01-24 10:55:00,21.8,4.2,30.42,East,83,5.0,6.0,46,0.00,,---,0.00,VWS V14.01,2013-01-24 15:55:00,
2013-01-24 10:56:00,21.8,4.2,30.42,East,80,3.0,6.0,46,0.00,,---,0.00,VWS V14.01,2013-01-24 15:56:00,
2013-01-24 10:57:00,21.8,4.7,30.42,East,90,7.0,8.0,47,0.00,,---,0.00,VWS V14.01,2013-01-24 15:57:00,
2013-01-24 10:58:00,21.8,4.7,30.42,East,97,5.0,8.0,47,0.00,,---,0.00,VWS V14.01,2013-01-24 15:58:00,
2013-01-24 10:59:00,21.8,4.7,30.42,East,84,7.0,8.0,47,0.00,,---,0.00,VWS V14.01,2013-01-24 15:59:00,
2013-01-24 11:00:00,21.6,4.5,30.43,East,86,3.0,8.0,47,0.00,,---,0.00,VWS V14.01,2013-01-24 16:00:00,
2013-01-24 11:01:00,21.6,4.5,30.43,ENE,69,5.0,6.0,47,0.00,,---,0.00,VWS V14.01,2013-01-24 16:01:00,
2013-01-24 11:02:00,21.6,4.5,30.43,ENE,70,5.0,6.0,47,0.00,,---,0.00,VWS V14.01,2013-01-24 16:02:00,
2013-01-24 11:03:00,21.6,4.5,30.43,East,79,5.0,6.0,47,0.00,,---,0.00,VWS V14.01,2013-01-24 16:03:00,
2013-01-24 11:04:00,21.6,4.5,30.43,East,90,4.0,6.0,47,0.00,,---,0.00,VWS V14.01,2013-01-24 16:04:00,
2013-01-24 11:05:00,21.4,4.3,30.43,East,82,0.0,6.0,47,0.00,,---,0.00,VWS V14.01,2013-01-24 16:05:00,
2013-01-24 11:06:00,21.4,4.8,30.43,East,82,1.0,6.0,48,0.00,,---,0.00,VWS V14.01,2013-01-24 16:06:00,
2013-01-24 11:07:00,21.4,4.3,30.43,East,83,4.0,6.0,47,0.00,,---,0.00,VWS V14.01,2013-01-24 16:07:00,
2013-01-24 11:08:00,21.4,4.8,30.43,East,82,2.0,6.0,48,0.00,,---,0.00,VWS V14.01,2013-01-24 16:08:00,
2013-01-24 11:09:00,21.4,4.8,30.43,ESE,110,6.0,6.0,48,0.00,,---,0.00,VWS V14.01,2013-01-24 16:09:00,
2013-01-24 11:10:00,21.3,4.7,30.43,East,83,6.0,6.0,48,0.00,,---,0.00,VWS V14.01,2013-01-24 16:10:00,
2013-01-24 11:11:00,21.3,4.2,30.43,East,100,2.0,6.0,47,0.00,,---,0.00,VWS V14.01,2013-01-24 16:11:00,
2013-01-24 11:12:00,21.3,4.2,30.43,East,91,3.0,6.0,47,0.00,,---,0.00,VWS V14.01,2013-01-24 16:12:00,
2013-01-24 11:13:00,21.3,4.2,30.43,ESE,110,3.0,6.0,47,0.00,,---,0.00,VWS V14.01,2013-01-24 16:13:00,
2013-01-24 11:14:00,21.3,4.2,30.43,ESE,103,5.0,6.0,47,0.00,,---,0.00,VWS V14.01,2013-01-24 16:14:00,
2013-01-24 11:15:00,21.1,4.0,30.44,ESE,106,5.0,8.0,47,0.00,,---,0.00,VWS V14.01,2013-01-24 16:15:00,
2013-01-24 11:16:00,21.1,4.0,30.44,East,91,4.0,8.0,47,0.00,,---,0.00,VWS V14.01,2013-01-24 16:16:00,
2013-01-24 11:17:00,21.1,4.0,30.44,East,93,5.0,8.0,47,0.00,,---,0.00,VWS V14.01,2013-01-24 16:17:00,
2013-01-24 11:18:00,21.1,4.0,30.44,ENE,65,3.0,8.0,47,0.00,,---,0.00,VWS V14.01,2013-01-24 16:18:00,
2013-01-24 11:19:00,21.1,4.0,30.44,ENE,72,2.0,8.0,47,0.00,,---,0.00,VWS V14.01,2013-01-24 16:19:00,
2013-01-24 11:20:00,21.1,4.0,30.44,ENE,72,1.0,8.0,47,0.00,,---,0.00,VWS V14.01,2013-01-24 16:20:00,
2013-01-24 11:21:00,21.1,4.5,30.44,East,94,6.0,6.0,48,0.00,,---,0.00,VWS V14.01,2013-01-24 16:21:00,
2013-01-24 11:22:00,21.0,3.9,30.44,East,83,1.0,6.0,47,0.00,,---,0.00,VWS V14.01,2013-01-24 16:22:00,
2013-01-24 11:23:00,21.0,4.4,30.44,East,90,3.0,6.0,48,0.00,,---,0.00,VWS V14.01,2013-01-24 16:23:00,
2013-01-24 11:24:00,21.0,4.4,30.44,East,90,3.0,6.0,48,0.00,,---,0.00,VWS V14.01,2013-01-24 16:24:00,
2013-01-24 11:25:00,21.0,4.4,30.44,ENE,73,5.0,7.0,48,0.00,,---,0.00,VWS V14.01,2013-01-24 16:25:00,
2013-01-24 11:26:00,21.0,4.4,30.44,East,83,6.0,7.0,48,0.00,,---,0.00,VWS V14.01,2013-01-24 16:26:00,
2013-01-24 11:27:00,21.0,3.9,30.44,East,91,4.0,7.0,47,0.00,,---,0.00,VWS V14.01,2013-01-24 16:27:00,
2013-01-24 11:28:00,21.0,3.9,30.44,East,87,6.0,7.0,47,0.00,,---,0.00,VWS V14.01,2013-01-24 16:28:00,
2013-01-24 11:29:00,20.8,3.8,30.44,East,93,3.0,7.0,47,0.00,,---,0.00,VWS V14.01,2013-01-24 16:29:00,
2013-01-24 11:30:00,20.8,4.2,30.43,East,90,3.0,7.0,48,0.00,,---,0.00,VWS V14.01,2013-01-24 16:30:00,
2013-01-24 11:31:00,20.8,4.2,30.43,East,89,3.0,5.0,48,0.00,,---,0.00,VWS V14.01,2013-01-24 16:31:00,
2013-01-24 11:32:00,20.8,3.8,30.43,East,89,1.0,5.0,47,0.00,,---,0.00,VWS V14.01,2013-01-24 16:32:00,
2013-01-24 11:33:00,20.8,4.2,30.43,East,89,2.0,5.0,48,0.00,,---,0.00,VWS V14.01,2013-01-24 16:33:00,
2013-01-24 11:34:00,20.8,4.2,30.43,East,89,0.0,5.0,48,0.00,,---,0.00,VWS V14.01,2013-01-24 16:34:00,
2013-01-24 11:35:00,20.8,4.2,30.43,East,89,2.0,5.0,48,0.00,,---,0.00,VWS V14.01,2013-01-24 16:35:00,
2013-01-24 11:36:00,20.8,4.2,30.43,East,89,2.0,5.0,48,0.00,,---,0.00,VWS V14.01,2013-01-24 16:36:00,
2013-01-24 11:37:00,20.8,4.2,30.43,East,89,3.0,5.0,48,0.00,,---,0.00,VWS V14.01,2013-01-24 16:37:00,
2013-01-24 11:38:00,20.6,4.5,30.43,East,82,3.0,5.0,49,0.00,,---,0.00,VWS V14.01,2013-01-24 16:38:00,
2013-01-24 11:39:00,20.6,4.0,30.43,East,82,3.0,5.0,48,0.00,,---,0.00,VWS V14.01,2013-01-24 16:39:00,
2013-01-24 11:40:00,20.6,4.0,30.43,East,82,2.0,5.0,48,0.00,,---,0.00,VWS V14.01,2013-01-24 16:40:00,
2013-01-24 11:41:00,20.6,4.0,30.43,East,79,6.0,6.0,48,0.00,,---,0.00,VWS V14.01,2013-01-24 16:41:00,
2013-01-24 11:42:00,20.6,4.0,30.43,East,79,2.0,6.0,48,0.00,,---,0.00,VWS V14.01,2013-01-24 16:42:00,
2013-01-24 11:43:00,20.6,4.0,30.43,ENE,73,0.0,6.0,48,0.00,,---,0.00,VWS V14.01,2013-01-24 16:43:00,
2013-01-24 11:44:00,20.6,4.0,30.43,East,79,3.0,6.0,48,0.00,,---,0.00,VWS V14.01,2013-01-24 16:44:00,
2013-01-24 11:45:00,20.6,4.0,30.43,East,79,2.0,6.0,48,0.00,,---,0.00,VWS V14.01,2013-01-24 16:45:00,
2013-01-24 11:46:00,20.5,3.9,30.43,East,80,3.0,6.0,48,0.00,,---,0.00,VWS V14.01,2013-01-24 16:46:00,
2013-01-24 11:47:00,20.5,3.9,30.43,East,80,3.0,6.0,48,0.00,,---,0.00,VWS V14.01,2013-01-24 16:47:00,
2013-01-24 11:48:00,20.5,3.9,30.43,East,79,3.0,6.0,48,0.00,,---,0.00,VWS V14.01,2013-01-24 16:48:00,
2013-01-24 11:49:00,20.5,3.9,30.43,East,79,2.0,6.0,48,0.00,,---,0.00,VWS V14.01,2013-01-24 16:49:00,
2013-01-24 11:50:00,20.5,3.9,30.43,East,84,3.0,6.0,48,0.00,,---,0.00,VWS V14.01,2013-01-24 16:50:00,
2013-01-24 11:51:00,20.5,3.9,30.43,East,87,0.0,5.0,48,0.00,,---,0.00,VWS V14.01,2013-01-24 16:51:00,
2013-01-24 11:52:00,20.5,3.9,30.43,East,80,3.0,5.0,48,0.00,,---,0.00,VWS V14.01,2013-01-24 16:52:00,
2013-01-24 11:53:00,20.5,3.9,30.43,East,80,3.0,5.0,48,0.00,,---,0.00,VWS V14.01,2013-01-24 16:53:00,
2013-01-24 11:54:00,20.5,3.9,30.43,ENE,73,2.0,5.0,48,0.00,,---,0.00,VWS V14.01,2013-01-24 16:54:00,
2013-01-24 11:55:00,20.3,3.8,30.43,ENE,72,5.0,5.0,48,0.00,,---,0.00,VWS V14.01,2013-01-24 16:55:00,
2013-01-24 11:56:00,20.3,3.8,30.43,ENE,72,2.0,5.0,48,0.00,,---,0.00,VWS V14.01,2013-01-24 16:56:00,
2013-01-24 11:57:00,20.3,3.8,30.43,ENE,76,2.0,5.0,48,0.00,,---,0.00,VWS V14.01,2013-01-24 16:57:00,
2013-01-24 11:58:00,20.3,3.8,30.43,ENE,76,0.0,5.0,48,0.00,,---,0.00,VWS V14.01,2013-01-24 16:58:00,
2013-01-24 11:59:00,20.3,3.8,30.43,ENE,76,1.0,5.0,48,0.00,,---,0.00,VWS V14.01,2013-01-24 16:59:00,
2013-01-24 12:00:00,20.3,3.8,30.44,ENE,76,0.0,5.0,48,0.00,,---,0.00,VWS V14.01,2013-01-24 17:00:00,
2013-01-24 12:01:00,20.3,3.8,30.44,ENE,76,3.0,3.0,48,0.00,,---,0.00,VWS V14.01,2013-01-24 17:01:00,
2013-01-24 12:02:00,20.3,3.8,30.44,ENE,73,2.0,6.0,48,0.00,,---,0.00,VWS V14.01,2013-01-24 17:02:00,
2013-01-24 12:03:00,20.3,3.8,30.44,ENE,73,1.0,6.0,48,0.00,,---,0.00,VWS V14.01,2013-01-24 17:03:00,
2013-01-24 12:04:00,20.2,3.7,30.44,ENE,73,2.0,6.0,48,0.00,,---,0.00,VWS V14.01,2013-01-24 17:04:00,
2013-01-24 12:05:00,20.2,4.1,30.44,ENE,73,1.0,6.0,49,0.00,,---,0.00,VWS V14.01,2013-01-24 17:05:00,
2013-01-24 12:06:00,20.2,3.7,30.44,ENE,59,0.0,6.0,48,0.00,,---,0.00,VWS V14.01,2013-01-24 17:06:00,
2013-01-24 12:07:00,20.2,3.7,30.44,ENE,76,2.0,6.0,48,0.00,,---,0.00,VWS V14.01,2013-01-24 17:07:00,
2013-01-24 12:08:00,20.2,3.7,30.44,ENE,76,1.0,6.0,48,0.00,,---,0.00,VWS V14.01,2013-01-24 17:08:00,
2013-01-24 12:09:00,20.2,3.7,30.44,ENE,76,2.0,6.0,48,0.00,,---,0.00,VWS V14.01,2013-01-24 17:09:00,
2013-01-24 12:10:00,20.2,3.7,30.44,ENE,76,2.0,6.0,48,0.00,,---,0.00,VWS V14.01,2013-01-24 17:10:00,
2013-01-24 12:11:00,20.2,3.7,30.44,ENE,76,0.0,4.0,48,0.00,,---,0.00,VWS V14.01,2013-01-24 17:11:00,
2013-01-24 12:12:00,20.2,3.7,30.44,ENE,76,0.0,4.0,48,0.00,,---,0.00,VWS V14.01,2013-01-24 17:12:00,
2013-01-24 12:13:00,20.2,3.7,30.44,ENE,76,0.0,4.0,48,0.00,,---,0.00,VWS V14.01,2013-01-24 17:13:00,
2013-01-24 12:14:00,20.0,3.5,30.44,ENE,76,0.0,4.0,48,0.00,,---,0.00,VWS V14.01,2013-01-24 17:14:00,
2013-01-24 12:15:00,20.0,3.5,30.44,ENE,76,0.0,4.0,48,0.00,,---,0.00,VWS V14.01,2013-01-24 17:15:00,
2013-01-24 12:16:00,20.0,3.9,30.44,ENE,76,0.0,4.0,49,0.00,,---,0.00,VWS V14.01,2013-01-24 17:16:00,
2013-01-24 12:17:00,20.0,3.9,30.44,ENE,76,0.0,4.0,49,0.00,,---,0.00,VWS V14.01,2013-01-24 17:17:00,
2013-01-24 12:18:00,20.0,4.4,30.44,ENE,76,0.0,4.0,50,0.00,,---,0.00,VWS V14.01,2013-01-24 17:18:00,
2013-01-24 12:19:00,20.0,4.4,30.44,ENE,76,0.0,4.0,50,0.00,,---,0.00,VWS V14.01,2013-01-24 17:19:00,
2013-01-24 12:20:00,20.0,4.4,30.44,ENE,76,0.0,4.0,50,0.00,,---,0.00,VWS V14.01,2013-01-24 17:20:00,
2013-01-24 12:21:00,20.0,4.4,30.44,ENE,76,0.0,0.0,50,0.00,,---,0.00,VWS V14.01,2013-01-24 17:21:00,
2013-01-24 12:22:00,20.0,4.4,30.44,ENE,76,0.0,0.0,50,0.00,,---,0.00,VWS V14.01,2013-01-24 17:22:00,
2013-01-24 12:23:00,20.0,4.4,30.44,ENE,76,0.0,3.0,50,0.00,,---,0.00,VWS V14.01,2013-01-24 17:23:00,
2013-01-24 12:24:00,19.9,3.8,30.44,ENE,76,4.0,4.0,49,0.00,,---,0.00,VWS V14.01,2013-01-24 17:24:00,
2013-01-24 12:25:00,19.9,3.8,30.44,ENE,76,0.0,4.0,49,0.00,,---,0.00,VWS V14.01,2013-01-24 17:25:00,
2013-01-24 12:26:00,19.9,3.4,30.44,ENE,76,1.0,4.0,48,0.00,,---,0.00,VWS V14.01,2013-01-24 17:26:00,
2013-01-24 12:27:00,19.9,3.4,30.44,ENE,76,3.0,4.0,48,0.00,,---,0.00,VWS V14.01,2013-01-24 17:27:00,
2013-01-24 12:28:00,19.9,3.4,30.44,ENE,76,0.0,4.0,48,0.00,,---,0.00,VWS V14.01,2013-01-24 17:28:00,
2013-01-24 12:29:00,19.9,3.4,30.44,ENE,76,0.0,4.0,48,0.00,,---,0.00,VWS V14.01,2013-01-24 17:29:00,
2013-01-24 12:30:00,19.9,3.4,30.44,ENE,76,0.0,4.0,48,0.00,,---,0.00,VWS V14.01,2013-01-24 17:30:00,
2013-01-24 12:31:00,19.7,3.2,30.44,East,96,5.0,6.0,48,0.00,,---,0.00,VWS V14.01,2013-01-24 17:31:00,
2013-01-24 12:32:00,19.7,3.2,30.44,East,87,2.0,6.0,48,0.00,,---,0.00,VWS V14.01,2013-01-24 17:32:00,
2013-01-24 12:33:00,19.7,3.2,30.44,East,87,0.0,6.0,48,0.00,,---,0.00,VWS V14.01,2013-01-24 17:33:00,
2013-01-24 12:34:00,19.7,3.2,30.44,East,86,5.0,6.0,48,0.00,,---,0.00,VWS V14.01,2013-01-24 17:34:00,
2013-01-24 12:35:00,19.7,3.2,30.44,East,86,0.0,6.0,48,0.00,,---,0.00,VWS V14.01,2013-01-24 17:35:00,
2013-01-24 12:36:00,19.7,3.2,30.44,East,86,0.0,6.0,48,0.00,,---,0.00,VWS V14.01,2013-01-24 17:36:00,
2013-01-24 12:37:00,19.7,3.2,30.44,East,86,0.0,6.0,48,0.00,,---,0.00,VWS V14.01,2013-01-24 17:37:00,
2013-01-24 12:38:00,19.7,3.2,30.44,East,86,0.0,6.0,48,0.00,,---,0.00,VWS V14.01,2013-01-24 17:38:00,
2013-01-24 12:39:00,19.5,3.0,30.44,East,86,0.0,6.0,48,0.00,,---,0.00,VWS V14.01,2013-01-24 17:39:00,
2013-01-24 12:40:00,19.5,3.0,30.44,East,86,0.0,6.0,48,0.00,,---,0.00,VWS V14.01,2013-01-24 17:40:00,
2013-01-24 12:41:00,19.5,3.0,30.44,East,86,0.0,0.0,48,0.00,,---,0.00,VWS V14.01,2013-01-24 17:41:00,
2013-01-24 12:42:00,19.5,3.0,30.44,East,86,3.0,3.0,48,0.00,,---,0.00,VWS V14.01,2013-01-24 17:42:00,
2013-01-24 12:43:00,19.5,3.0,30.44,East,86,1.0,3.0,48,0.00,,---,0.00,VWS V14.01,2013-01-24 17:43:00,
2013-01-24 12:44:00,19.5,3.0,30.44,East,83,2.0,5.0,48,0.00,,---,0.00,VWS V14.01,2013-01-24 17:44:00,
2013-01-24 12:45:00,19.5,3.0,30.44,East,83,1.0,5.0,48,0.00,,---,0.00,VWS V14.01,2013-01-24 17:45:00,
2013-01-24 12:46:00,19.4,2.9,30.44,East,83,0.0,5.0,48,0.00,,---,0.00,VWS V14.01,2013-01-24 17:46:00,
2013-01-24 12:47:00,19.4,2.9,30.44,East,83,0.0,5.0,48,0.00,,---,0.00,VWS V14.01,2013-01-24 17:47:00,
2013-01-24 12:48:00,19.4,3.4,30.44,East,83,0.0,5.0,49,0.00,,---,0.00,VWS V14.01,2013-01-24 17:48:00,
2013-01-24 12:49:00,19.4,3.4,30.44,East,83,0.0,5.0,49,0.00,,---,0.00,VWS V14.01,2013-01-24 17:49:00,
2013-01-24 12:50:00,19.4,2.9,30.44,East,83,0.0,5.0,48,0.00,,---,0.00,VWS V14.01,2013-01-24 17:50:00,
2013-01-24 12:51:00,19.4,2.9,30.44,East,83,0.0,0.0,48,0.00,,---,0.00,VWS V14.01,2013-01-24 17:51:00,
2013-01-24 12:52:00,19.4,2.9,30.44,East,83,0.0,1.0,48,0.00,,---,0.00,VWS V14.01,2013-01-24 17:52:00,
2013-01-24 12:53:00,19.4,2.9,30.44,East,83,0.0,1.0,48,0.00,,---,0.00,VWS V14.01,2013-01-24 17:53:00,
2013-01-24 12:54:00,19.2,2.7,30.44,East,83,1.0,1.0,48,0.00,,---,0.00,VWS V14.01,2013-01-24 17:54:00,
2013-01-24 12:55:00,19.2,2.7,30.44,ENE,72,3.0,6.0,48,0.00,,---,0.00,VWS V14.01,2013-01-24 17:55:00,
2013-01-24 12:56:00,19.2,2.7,30.44,East,82,0.0,6.0,48,0.00,,---,0.00,VWS V14.01,2013-01-24 17:56:00,
2013-01-24 12:57:00,19.2,2.7,30.44,East,82,3.0,6.0,48,0.00,,---,0.00,VWS V14.01,2013-01-24 17:57:00,
2013-01-24 12:58:00,19.2,2.7,30.44,East,82,0.0,6.0,48,0.00,,---,0.00,VWS V14.01,2013-01-24 17:58:00,
2013-01-24 12:59:00,19.2,2.7,30.44,East,82,0.0,6.0,48,0.00,,---,0.00,VWS V14.01,2013-01-24 17:59:00,
2013-01-24 13:00:00,19.2,2.7,30.44,East,82,0.0,6.0,48,0.00,,---,0.00,VWS V14.01,2013-01-24 18:00:00,
2013-01-24 13:01:00,19.2,2.7,30.44,East,82,0.0,0.0,48,0.00,,---,0.00,VWS V14.01,2013-01-24 18:01:00,
2013-01-24 13:02:00,19.1,2.7,30.44,East,82,0.0,2.0,48,0.00,,---,0.00,VWS V14.01,2013-01-24 18:02:00,
2013-01-24 13:03:00,19.1,2.7,30.44,East,82,2.0,3.0,48,0.00,,---,0.00,VWS V14.01,2013-01-24 18:03:00,
2013-01-24 13:04:00,19.1,2.7,30.44,East,82,0.0,3.0,48,0.00,,---,0.00,VWS V14.01,2013-01-24 18:04:00,
2013-01-24 13:05:00,19.1,2.7,30.44,East,89,2.0,4.0,48,0.00,,---,0.00,VWS V14.01,2013-01-24 18:05:00,
2013-01-24 13:06:00,19.1,2.7,30.44,East,89,0.0,4.0,48,0.00,,---,0.00,VWS V14.01,2013-01-24 18:06:00,
2013-01-24 13:07:00,19.1,2.7,30.44,East,89,0.0,4.0,48,0.00,,---,0.00,VWS V14.01,2013-01-24 18:07:00,
2013-01-24 13:08:00,19.1,3.1,30.44,East,89,0.0,4.0,49,0.00,,---,0.00,VWS V14.01,2013-01-24 18:08:00,
2013-01-24 13:09:00,19.1,3.1,30.44,East,89,0.0,4.0,49,0.00,,---,0.00,VWS V14.01,2013-01-24 18:09:00,
2013-01-24 13:10:00,19.1,3.1,30.44,East,89,0.0,4.0,49,0.00,,---,0.00,VWS V14.01,2013-01-24 18:10:00,
2013-01-24 13:11:00,19.1,3.1,30.44,East,89,0.0,0.0,49,0.00,,---,0.00,VWS V14.01,2013-01-24 18:11:00,
2013-01-24 13:12:00,18.9,2.9,30.44,East,89,0.0,0.0,49,0.00,,---,0.00,VWS V14.01,2013-01-24 18:12:00,
2013-01-24 13:13:00,18.9,2.9,30.44,East,89,0.0,0.0,49,0.00,,---,0.00,VWS V14.01,2013-01-24 18:13:00,
2013-01-24 13:14:00,18.9,2.9,30.44,East,89,0.0,0.0,49,0.00,,---,0.00,VWS V14.01,2013-01-24 18:14:00,
2013-01-24 13:15:00,18.9,2.9,30.45,East,89,0.0,0.0,49,0.00,,---,0.00,VWS V14.01,2013-01-24 18:15:00,
2013-01-24 13:16:00,18.9,2.9,30.45,East,89,0.0,0.0,49,0.00,,---,0.00,VWS V14.01,2013-01-24 18:16:00,
2013-01-24 13:17:00,18.9,2.9,30.45,East,89,0.0,0.0,49,0.00,,---,0.00,VWS V14.01,2013-01-24 18:17:00,
2013-01-24 13:18:00,18.9,3.3,30.45,East,89,0.0,0.0,50,0.00,,---,0.00,VWS V14.01,2013-01-24 18:18:00,
2013-01-24 13:19:00,18.9,3.3,30.45,East,89,0.0,1.0,50,0.00,,---,0.00,VWS V14.01,2013-01-24 18:19:00,
2013-01-24 13:20:00,18.9,3.3,30.45,East,89,2.0,2.0,50,0.00,,---,0.00,VWS V14.01,2013-01-24 18:20:00,
2013-01-24 13:21:00,18.9,3.3,30.45,East,89,0.0,2.0,50,0.00,,---,0.00,VWS V14.01,2013-01-24 18:21:00,
2013-01-24 13:22:00,18.9,3.3,30.45,East,89,0.0,2.0,50,0.00,,---,0.00,VWS V14.01,2013-01-24 18:22:00,
2013-01-24 13:23:00,18.9,3.3,30.45,East,89,0.0,2.0,50,0.00,,---,0.00,VWS V14.01,2013-01-24 18:23:00,
2013-01-24 13:24:00,18.8,3.2,30.45,East,89,0.0,2.0,50,0.00,,---,0.00,VWS V14.01,2013-01-24 18:24:00,
2013-01-24 13:25:00,18.8,3.2,30.45,East,89,0.0,2.0,50,0.00,,---,0.00,VWS V14.01,2013-01-24 18:25:00,
2013-01-24 13:26:00,18.8,3.7,30.45,East,87,2.0,4.0,51,0.00,,---,0.00,VWS V14.01,2013-01-24 18:26:00,
2013-01-24 13:27:00,18.8,3.2,30.45,East,87,0.0,4.0,50,0.00,,---,0.00,VWS V14.01,2013-01-24 18:27:00,
2013-01-24 13:28:00,18.8,2.8,30.45,East,87,0.0,4.0,49,0.00,,---,0.00,VWS V14.01,2013-01-24 18:28:00,
2013-01-24 13:29:00,18.8,2.8,30.45,East,87,0.0,4.0,49,0.00,,---,0.00,VWS V14.01,2013-01-24 18:29:00,
2013-01-24 13:30:00,18.8,2.8,30.45,East,87,0.0,4.0,49,0.00,,---,0.00,VWS V14.01,2013-01-24 18:30:00,
2013-01-24 13:31:00,18.8,3.2,30.45,East,87,0.0,0.0,50,0.00,,---,0.00,VWS V14.01,2013-01-24 18:31:00,
2013-01-24 13:32:00,18.8,3.2,30.45,East,87,0.0,0.0,50,0.00,,---,0.00,VWS V14.01,2013-01-24 18:32:00,
2013-01-24 13:33:00,18.8,3.7,30.45,East,87,0.0,0.0,51,0.00,,---,0.00,VWS V14.01,2013-01-24 18:33:00,
2013-01-24 13:34:00,18.8,3.7,30.45,East,87,1.0,2.0,51,0.00,,---,0.00,VWS V14.01,2013-01-24 18:34:00,
2013-01-24 13:35:00,18.8,2.8,30.45,East,87,0.0,2.0,49,0.00,,---,0.00,VWS V14.01,2013-01-24 18:35:00,
2013-01-24 13:36:00,18.8,2.8,30.45,East,87,0.0,2.0,49,0.00,,---,0.00,VWS V14.01,2013-01-24 18:36:00,
2013-01-24 13:37:00,18.8,3.2,30.45,East,87,0.0,2.0,50,0.00,,---,0.00,VWS V14.01,2013-01-24 18:37:00,
2013-01-24 13:38:00,18.8,3.2,30.45,East,87,0.0,2.0,50,0.00,,---,0.00,VWS V14.01,2013-01-24 18:38:00,
2013-01-24 13:39:00,18.8,2.8,30.45,East,87,0.0,2.0,49,0.00,,---,0.00,VWS V14.01,2013-01-24 18:39:00,
2013-01-24 13:40:00,18.6,2.6,30.45,East,87,0.0,2.0,49,0.00,,---,0.00,VWS V14.01,2013-01-24 18:40:00,
2013-01-24 13:41:00,18.6,2.6,30.45,East,87,0.0,0.0,49,0.00,,---,0.00,VWS V14.01,2013-01-24 18:41:00,
2013-01-24 13:42:00,18.6,2.6,30.45,East,87,0.0,0.0,49,0.00,,---,0.00,VWS V14.01,2013-01-24 18:42:00,
2013-01-24 13:43:00,18.6,2.6,30.45,East,87,0.0,0.0,49,0.00,,---,0.00,VWS V14.01,2013-01-24 18:43:00,
2013-01-24 13:44:00,18.6,2.6,30.45,East,87,0.0,3.0,49,0.00,,---,0.00,VWS V14.01,2013-01-24 18:44:00,
2013-01-24 13:45:00,18.6,2.6,30.47,East,87,0.0,3.0,49,0.00,,---,0.00,VWS V14.01,2013-01-24 18:45:00,
2013-01-24 13:46:00,18.6,2.6,30.47,East,87,0.0,3.0,49,0.00,,---,0.00,VWS V14.01,2013-01-24 18:46:00,
2013-01-24 13:47:00,18.6,2.6,30.47,East,87,0.0,3.0,49,0.00,,---,0.00,VWS V14.01,2013-01-24 18:47:00,
2013-01-24 13:48:00,18.6,2.6,30.47,East,87,0.0,3.0,49,0.00,,---,0.00,VWS V14.01,2013-01-24 18:48:00,
2013-01-24 13:49:00,18.6,2.2,30.47,East,87,0.0,3.0,48,0.00,,---,0.00,VWS V14.01,2013-01-24 18:49:00,
2013-01-24 13:50:00,18.6,2.6,30.47,East,87,0.0,3.0,49,0.00,,---,0.00,VWS V14.01,2013-01-24 18:50:00,
2013-01-24 13:51:00,18.6,2.6,30.47,East,87,0.0,0.0,49,0.00,,---,0.00,VWS V14.01,2013-01-24 18:51:00,
2013-01-24 13:52:00,18.6,2.6,30.47,East,87,0.0,0.0,49,0.00,,---,0.00,VWS V14.01,2013-01-24 18:52:00,
2013-01-24 13:53:00,18.6,2.2,30.47,East,87,0.0,0.0,48,0.00,,---,0.00,VWS V14.01,2013-01-24 18:53:00,
2013-01-24 13:54:00,18.6,2.2,30.47,East,87,0.0,0.0,48,0.00,,---,0.00,VWS V14.01,2013-01-24 18:54:00,
2013-01-24 13:55:00,18.6,2.2,30.47,East,87,0.0,3.0,48,0.00,,---,0.00,VWS V14.01,2013-01-24 18:55:00,
2013-01-24 13:56:00,18.6,2.2,30.47,East,87,0.0,3.0,48,0.00,,---,0.00,VWS V14.01,2013-01-24 18:56:00,
2013-01-24 13:57:00,18.6,2.6,30.47,NE,55,4.0,5.0,49,0.00,,---,0.00,VWS V14.01,2013-01-24 18:57:00,
2013-01-24 13:58:00,18.6,2.2,30.47,NE,55,0.0,5.0,48,0.00,,---,0.00,VWS V14.01,2013-01-24 18:58:00,
2013-01-24 13:59:00,18.6,2.2,30.47,NE,55,0.0,5.0,48,0.00,,---,0.00,VWS V14.01,2013-01-24 18:59:00,
2013-01-24 14:00:00,18.6,2.2,30.45,NE,55,1.0,5.0,48,0.00,,---,0.00,VWS V14.01,2013-01-24 19:00:00,
2013-01-24 14:01:00,18.6,2.2,30.45,NE,55,0.0,1.0,48,0.00,,---,0.00,VWS V14.01,2013-01-24 19:01:00,
2013-01-24 14:02:00,18.6,2.2,30.45,NE,55,0.0,2.0,48,0.00,,---,0.00,VWS V14.01,2013-01-24 19:02:00,
2013-01-24 14:03:00,18.4,2.0,30.45,NE,55,0.0,2.0,48,0.00,,---,0.00,VWS V14.01,2013-01-24 19:03:00,
2013-01-24 14:04:00,18.4,2.4,30.45,NE,55,1.0,2.0,49,0.00,,---,0.00,VWS V14.01,2013-01-24 19:04:00,
2013-01-24 14:05:00,18.4,2.0,30.45,NE,55,0.0,3.0,48,0.00,,---,0.00,VWS V14.01,2013-01-24 19:05:00,
2013-01-24 14:06:00,18.4,2.0,30.45,NE,55,0.0,3.0,48,0.00,,---,0.00,VWS V14.01,2013-01-24 19:06:00,
2013-01-24 14:07:00,18.4,2.4,30.45,NE,55,0.0,3.0,49,0.00,,---,0.00,VWS V14.01,2013-01-24 19:07:00,
2013-01-24 14:08:00,18.4,2.4,30.45,NE,55,0.0,3.0,49,0.00,,---,0.00,VWS V14.01,2013-01-24 19:08:00,
2013-01-24 14:09:00,18.4,2.4,30.45,NE,55,0.0,3.0,49,0.00,,---,0.00,VWS V14.01,2013-01-24 19:09:00,
2013-01-24 14:10:00,18.4,2.4,30.45,NE,55,0.0,0.0,49,0.00,,---,0.00,VWS V14.01,2013-01-24 19:10:00,
2013-01-24 14:11:00,18.4,2.9,30.45,NE,55,0.0,0.0,50,0.00,,---,0.00,VWS V14.01,2013-01-24 19:11:00,
2013-01-24 14:12:00,18.4,2.4,30.45,NE,55,1.0,1.0,49,0.00,,---,0.00,VWS V14.01,2013-01-24 19:12:00,
2013-01-24 14:13:00,18.4,2.4,30.45,NE,55,0.0,1.0,49,0.00,,---,0.00,VWS V14.01,2013-01-24 19:13:00,
2013-01-24 14:14:00,18.4,2.4,30.45,NE,55,0.0,1.0,49,0.00,,---,0.00,VWS V14.01,2013-01-24 19:14:00,
2013-01-24 14:15:00,18.4,2.0,30.45,NE,55,1.0,1.0,48,0.00,,---,0.00,VWS V14.01,2013-01-24 19:15:00,
2013-01-24 14:16:00,18.4,2.0,30.45,NE,55,0.0,2.0,48,0.00,,---,0.00,VWS V14.01,2013-01-24 19:16:00,
2013-01-24 14:17:00,18.4,2.4,30.45,NE,55,0.0,2.0,49,0.00,,---,0.00,VWS V14.01,2013-01-24 19:17:00,
2013-01-24 14:18:00,18.4,2.4,30.45,NE,55,0.0,2.0,49,0.00,,---,0.00,VWS V14.01,2013-01-24 19:18:00,
2013-01-24 14:19:00,18.3,2.3,30.45,NE,55,1.0,2.0,49,0.00,,---,0.00,VWS V14.01,2013-01-24 19:19:00,
2013-01-24 14:20:00,18.3,2.3,30.45,NE,55,0.0,2.0,49,0.00,,---,0.00,VWS V14.01,2013-01-24 19:20:00,
2013-01-24 14:21:00,18.3,2.3,30.45,NE,55,0.0,1.0,49,0.00,,---,0.00,VWS V14.01,2013-01-24 19:21:00,
2013-01-24 14:22:00,18.3,2.3,30.45,NE,55,1.0,1.0,49,0.00,,---,0.00,VWS V14.01,2013-01-24 19:22:00,
2013-01-24 14:23:00,18.3,1.9,30.45,NE,55,0.0,1.0,48,0.00,,---,0.00,VWS V14.01,2013-01-24 19:23:00,
2013-01-24 14:24:00,18.3,1.9,30.45,NE,55,0.0,1.0,48,0.00,,---,0.00,VWS V14.01,2013-01-24 19:24:00,
2013-01-24 14:25:00,18.3,2.3,30.45,NE,55,0.0,1.0,49,0.00,,---,0.00,VWS V14.01,2013-01-24 19:25:00,
2013-01-24 14:26:00,18.3,2.3,30.45,NE,55,1.0,1.0,49,0.00,,---,0.00,VWS V14.01,2013-01-24 19:26:00,
2013-01-24 14:27:00,18.3,2.3,30.45,NE,55,0.0,1.0,49,0.00,,---,0.00,VWS V14.01,2013-01-24 19:27:00,
2013-01-24 14:28:00,18.3,2.3,30.45,NE,55,0.0,1.0,49,0.00,,---,0.00,VWS V14.01,2013-01-24 19:28:00,
2013-01-24 14:29:00,18.3,2.8,30.45,NE,55,0.0,1.0,50,0.00,,---,0.00,VWS V14.01,2013-01-24 19:29:00,
2013-01-24 14:30:00,18.3,3.2,30.45,NE,55,0.0,1.0,51,0.00,,---,0.00,VWS V14.01,2013-01-24 19:30:00,
2013-01-24 14:31:00,18.3,3.6,30.45,NE,55,0.0,0.0,52,0.00,,---,0.00,VWS V14.01,2013-01-24 19:31:00,
2013-01-24 14:32:00,18.3,3.2,30.45,NE,55,0.0,0.0,51,0.00,,---,0.00,VWS V14.01,2013-01-24 19:32:00,
2013-01-24 14:33:00,18.3,2.8,30.45,NE,55,0.0,0.0,50,0.00,,---,0.00,VWS V14.01,2013-01-24 19:33:00,
2013-01-24 14:34:00,18.1,3.0,30.45,NE,55,0.0,0.0,51,0.00,,---,0.00,VWS V14.01,2013-01-24 19:34:00,
2013-01-24 14:35:00,18.1,3.0,30.45,NE,55,0.0,2.0,51,0.00,,---,0.00,VWS V14.01,2013-01-24 19:35:00,
2013-01-24 14:36:00,18.1,3.0,30.45,NE,55,0.0,2.0,51,0.00,,---,0.00,VWS V14.01,2013-01-24 19:36:00,
2013-01-24 14:37:00,18.1,2.2,30.45,NE,55,0.0,3.0,49,0.00,,---,0.00,VWS V14.01,2013-01-24 19:37:00,
2013-01-24 14:38:00,18.1,2.6,30.45,NE,55,0.0,3.0,50,0.00,,---,0.00,VWS V14.01,2013-01-24 19:38:00,
2013-01-24 14:39:00,18.1,2.6,30.45,NE,55,0.0,3.0,50,0.00,,---,0.00,VWS V14.01,2013-01-24 19:39:00,
2013-01-24 14:40:00,18.1,2.2,30.45,NE,55,0.0,3.0,49,0.00,,---,0.00,VWS V14.01,2013-01-24 19:40:00,
2013-01-24 14:41:00,18.1,2.2,30.45,NE,55,0.0,0.0,49,0.00,,---,0.00,VWS V14.01,2013-01-24 19:41:00,
2013-01-24 14:42:00,18.1,2.2,30.45,NE,55,0.0,1.0,49,0.00,,---,0.00,VWS V14.01,2013-01-24 19:42:00,
2013-01-24 14:43:00,18.1,2.2,30.45,NE,55,0.0,1.0,49,0.00,,---,0.00,VWS V14.01,2013-01-24 19:43:00,
2013-01-24 14:44:00,18.1,2.2,30.45,NE,55,0.0,1.0,49,0.00,,---,0.00,VWS V14.01,2013-01-24 19:44:00,
2013-01-24 14:45:00,18.1,2.2,30.44,NE,55,0.0,1.0,49,0.00,,---,0.00,VWS V14.01,2013-01-24 19:45:00,
2013-01-24 14:46:00,18.1,2.2,30.44,East,91,2.0,5.0,49,0.00,,---,0.00,VWS V14.01,2013-01-24 19:46:00,
2013-01-24 14:47:00,18.1,1.7,30.44,East,87,2.0,5.0,48,0.00,,---,0.00,VWS V14.01,2013-01-24 19:47:00,
2013-01-24 14:48:00,18.1,1.7,30.44,East,87,0.0,5.0,48,0.00,,---,0.00,VWS V14.01,2013-01-24 19:48:00,
2013-01-24 14:49:00,18.1,1.7,30.44,East,87,1.0,5.0,48,0.00,,---,0.00,VWS V14.01,2013-01-24 19:49:00,
2013-01-24 14:50:00,18.1,1.7,30.44,East,87,0.0,5.0,48,0.00,,---,0.00,VWS V14.01,2013-01-24 19:50:00,
2013-01-24 14:51:00,18.1,2.2,30.44,East,87,2.0,2.0,49,0.00,,---,0.00,VWS V14.01,2013-01-24 19:51:00,
2013-01-24 14:52:00,18.1,2.2,30.44,East,87,1.0,2.0,49,0.00,,---,0.00,VWS V14.01,2013-01-24 19:52:00,
2013-01-24 14:53:00,18.1,1.7,30.44,East,87,1.0,2.0,48,0.00,,---,0.00,VWS V14.01,2013-01-24 19:53:00,
2013-01-24 14:54:00,18.1,1.7,30.44,East,87,0.0,3.0,48,0.00,,---,0.00,VWS V14.01,2013-01-24 19:54:00,
2013-01-24 14:55:00,18.1,1.7,30.44,East,87,2.0,3.0,48,0.00,,---,0.00,VWS V14.01,2013-01-24 19:55:00,
2013-01-24 14:56:00,18.1,1.7,30.44,ESE,111,1.0,3.0,48,0.00,,---,0.00,VWS V14.01,2013-01-24 19:56:00,
2013-01-24 14:57:00,18.1,1.7,30.44,ESE,111,0.0,3.0,48,0.00,,---,0.00,VWS V14.01,2013-01-24 19:57:00,
2013-01-24 14:58:00,18.1,1.7,30.44,ESE,103,0.0,3.0,48,0.00,,---,0.00,VWS V14.01,2013-01-24 19:58:00,
2013-01-24 14:59:00,18.1,1.7,30.44,ESE,103,0.0,3.0,48,0.00,,---,0.00,VWS V14.01,2013-01-24 19:59:00,
2013-01-24 15:00:00,18.1,1.7,30.44,ESE,103,0.0,3.0,48,0.00,,---,0.00,VWS V14.01,2013-01-24 20:00:00,
2013-01-24 15:01:00,18.1,2.2,30.44,ESE,103,0.0,0.0,49,0.00,,---,0.00,VWS V14.01,2013-01-24 20:01:00,
2013-01-24 15:02:00,18.1,2.2,30.44,ESE,103,1.0,2.0,49,0.00,,---,0.00,VWS V14.01,2013-01-24 20:02:00,
2013-01-24 15:03:00,18.1,1.7,30.44,East,98,0.0,3.0,48,0.00,,---,0.00,VWS V14.01,2013-01-24 20:03:00,
2013-01-24 15:04:00,18.1,1.7,30.44,East,98,0.0,3.0,48,0.00,,---,0.00,VWS V14.01,2013-01-24 20:04:00,
2013-01-24 15:05:00,18.1,1.7,30.44,East,98,2.0,3.0,48,0.00,,---,0.00,VWS V14.01,2013-01-24 20:05:00,
2013-01-24 15:06:00,18.1,1.7,30.44,East,98,0.0,3.0,48,0.00,,---,0.00,VWS V14.01,2013-01-24 20:06:00,
2013-01-24 15:07:00,18.1,1.7,30.44,East,98,2.0,3.0,48,0.00,,---,0.00,VWS V14.01,2013-01-24 20:07:00,
2013-01-24 15:08:00,18.1,1.7,30.44,East,98,1.0,3.0,48,0.00,,---,0.00,VWS V14.01,2013-01-24 20:08:00,
2013-01-24 15:09:00,18.1,1.7,30.44,East,98,0.0,3.0,48,0.00,,---,0.00,VWS V14.01,2013-01-24 20:09:00,
2013-01-24 15:10:00,18.1,1.7,30.44,East,98,0.0,3.0,48,0.00,,---,0.00,VWS V14.01,2013-01-24 20:10:00,
2013-01-24 15:11:00,18.1,1.7,30.44,East,98,0.0,0.0,48,0.00,,---,0.00,VWS V14.01,2013-01-24 20:11:00,
2013-01-24 15:12:00,18.1,2.2,30.44,East,98,0.0,0.0,49,0.00,,---,0.00,VWS V14.01,2013-01-24 20:12:00,
2013-01-24 15:13:00,18.1,2.6,30.44,East,98,0.0,0.0,50,0.00,,---,0.00,VWS V14.01,2013-01-24 20:13:00,
2013-01-24 15:14:00,18.1,3.0,30.44,East,98,0.0,0.0,51,0.00,,---,0.00,VWS V14.01,2013-01-24 20:14:00,
2013-01-24 15:15:00,18.1,3.0,30.44,East,98,0.0,0.0,51,0.00,,---,0.00,VWS V14.01,2013-01-24 20:15:00,
2013-01-24 15:16:00,18.1,2.6,30.44,East,98,0.0,0.0,50,0.00,,---,0.00,VWS V14.01,2013-01-24 20:16:00,
2013-01-24 15:17:00,18.1,2.6,30.44,East,98,0.0,0.0,50,0.00,,---,0.00,VWS V14.01,2013-01-24 20:17:00,
2013-01-24 15:18:00,18.0,2.1,30.44,East,98,0.0,0.0,49,0.00,,---,0.00,VWS V14.01,2013-01-24 20:18:00,
2013-01-24 15:19:00,18.0,2.1,30.44,East,98,0.0,0.0,49,0.00,,---,0.00,VWS V14.01,2013-01-24 20:19:00,
2013-01-24 15:20:00,18.0,2.1,30.44,East,98,0.0,0.0,49,0.00,,---,0.00,VWS V14.01,2013-01-24 20:20:00,
2013-01-24 15:21:00,18.0,2.1,30.44,East,98,0.0,0.0,49,0.00,,---,0.00,VWS V14.01,2013-01-24 20:21:00,
2013-01-24 15:22:00,18.0,2.1,30.44,East,98,0.0,0.0,49,0.00,,---,0.00,VWS V14.01,2013-01-24 20:22:00,
2013-01-24 15:23:00,18.0,2.9,30.44,East,98,0.0,0.0,51,0.00,,---,0.00,VWS V14.01,2013-01-24 20:23:00,
2013-01-24 15:24:00,18.0,2.9,30.44,East,98,0.0,0.0,51,0.00,,---,0.00,VWS V14.01,2013-01-24 20:24:00,
2013-01-24 15:25:00,18.0,3.3,30.44,East,98,0.0,0.0,52,0.00,,---,0.00,VWS V14.01,2013-01-24 20:25:00,
2013-01-24 15:26:00,18.0,3.3,30.44,East,98,0.0,0.0,52,0.00,,---,0.00,VWS V14.01,2013-01-24 20:26:00,
2013-01-24 15:27:00,18.0,2.9,30.44,East,98,0.0,0.0,51,0.00,,---,0.00,VWS V14.01,2013-01-24 20:27:00,
2013-01-24 15:28:00,18.0,2.1,30.44,East,98,0.0,0.0,49,0.00,,---,0.00,VWS V14.01,2013-01-24 20:28:00,
2013-01-24 15:29:00,18.0,2.1,30.44,East,98,0.0,0.0,49,0.00,,---,0.00,VWS V14.01,2013-01-24 20:29:00,
2013-01-24 15:30:00,18.0,2.5,30.44,East,98,0.0,0.0,50,0.00,,---,0.00,VWS V14.01,2013-01-24 20:30:00,
2013-01-24 15:31:00,18.0,2.9,30.44,East,98,0.0,0.0,51,0.00,,---,0.00,VWS V14.01,2013-01-24 20:31:00,
2013-01-24 15:32:00,18.0,2.9,30.44,East,98,0.0,0.0,51,0.00,,---,0.00,VWS V14.01,2013-01-24 20:32:00,
2013-01-24 15:33:00,18.0,2.9,30.44,East,98,0.0,0.0,51,0.00,,---,0.00,VWS V14.01,2013-01-24 20:33:00,
2013-01-24 15:34:00,18.0,2.9,30.44,East,98,0.0,0.0,51,0.00,,---,0.00,VWS V14.01,2013-01-24 20:34:00,
2013-01-24 15:35:00,18.1,3.0,30.44,East,98,0.0,0.0,51,0.00,,---,0.00,VWS V14.01,2013-01-24 20:35:00,
2013-01-24 15:36:00,18.1,3.0,30.44,East,98,0.0,0.0,51,0.00,,---,0.00,VWS V14.01,2013-01-24 20:36:00,
2013-01-24 15:37:00,18.1,3.0,30.44,East,98,0.0,0.0,51,0.00,,---,0.00,VWS V14.01,2013-01-24 20:37:00,
2013-01-24 15:38:00,18.1,3.0,30.44,East,98,0.0,0.0,51,0.00,,---,0.00,VWS V14.01,2013-01-24 20:38:00,
2013-01-24 15:39:00,18.1,3.0,30.44,East,98,0.0,0.0,51,0.00,,---,0.00,VWS V14.01,2013-01-24 20:39:00,
2013-01-24 15:40:00,18.1,3.0,30.44,East,98,0.0,0.0,51,0.00,,---,0.00,VWS V14.01,2013-01-24 20:40:00,
2013-01-24 15:41:00,18.1,2.6,30.44,East,98,0.0,0.0,50,0.00,,---,0.00,VWS V14.01,2013-01-24 20:41:00,
2013-01-24 15:42:00,18.1,3.0,30.44,East,98,0.0,0.0,51,0.00,,---,0.00,VWS V14.01,2013-01-24 20:42:00,
2013-01-24 15:43:00,18.1,3.0,30.44,East,98,0.0,0.0,51,0.00,,---,0.00,VWS V14.01,2013-01-24 20:43:00,
2013-01-24 15:44:00,18.1,3.0,30.44,East,98,0.0,0.0,51,0.00,,---,0.00,VWS V14.01,2013-01-24 20:44:00,
2013-01-24 15:45:00,18.1,3.0,30.42,East,98,0.0,0.0,51,0.00,,---,0.00,VWS V14.01,2013-01-24 20:45:00,
2013-01-24 15:46:00,18.1,2.6,30.42,East,98,0.0,0.0,50,0.00,,---,0.00,VWS V14.01,2013-01-24 20:46:00,
2013-01-24 15:47:00,18.1,2.6,30.42,East,98,0.0,0.0,50,0.00,,---,0.00,VWS V14.01,2013-01-24 20:47:00,
2013-01-24 15:48:00,18.1,3.0,30.42,East,98,0.0,0.0,51,0.00,,---,0.00,VWS V14.01,2013-01-24 20:48:00,
2013-01-24 15:49:00,18.1,3.0,30.42,East,98,0.0,0.0,51,0.00,,---,0.00,VWS V14.01,2013-01-24 20:49:00,
2013-01-24 15:50:00,18.1,3.0,30.42,East,98,0.0,0.0,51,0.00,,---,0.00,VWS V14.01,2013-01-24 20:50:00,
2013-01-24 15:51:00,18.1,3.0,30.42,East,98,0.0,0.0,51,0.00,,---,0.00,VWS V14.01,2013-01-24 20:51:00,
2013-01-24 15:52:00,18.1,3.0,30.42,East,98,0.0,0.0,51,0.00,,---,0.00,VWS V14.01,2013-01-24 20:52:00,
2013-01-24 15:53:00,18.1,2.2,30.42,East,98,0.0,2.0,49,0.00,,---,0.00,VWS V14.01,2013-01-24 20:53:00,
2013-01-24 15:54:00,18.1,2.2,30.42,East,98,2.0,2.0,49,0.00,,---,0.00,VWS V14.01,2013-01-24 20:54:00,
2013-01-24 15:55:00,18.1,2.2,30.42,East,97,0.0,3.0,49,0.00,,---,0.00,VWS V14.01,2013-01-24 20:55:00,
2013-01-24 15:56:00,18.1,2.2,30.42,East,97,0.0,3.0,49,0.00,,---,0.00,VWS V14.01,2013-01-24 20:56:00,
2013-01-24 15:57:00,18.1,2.2,30.42,East,97,0.0,3.0,49,0.00,,---,0.00,VWS V14.01,2013-01-24 20:57:00,
2013-01-24 15:58:00,18.1,2.2,30.42,East,97,0.0,3.0,49,0.00,,---,0.00,VWS V14.01,2013-01-24 20:58:00,
2013-01-24 15:59:00,18.1,2.6,30.42,East,97,0.0,3.0,50,0.00,,---,0.00,VWS V14.01,2013-01-24 20:59:00,
2013-01-24 16:00:00,18.1,2.6,30.44,East,97,0.0,3.0,50,0.00,,---,0.00,VWS V14.01,2013-01-24 21:00:00,
2013-01-24 16:01:00,18.1,2.6,30.44,East,97,0.0,0.0,50,0.00,,---,0.00,VWS V14.01,2013-01-24 21:01:00,
2013-01-24 16:02:00,18.1,2.6,30.44,East,97,0.0,0.0,50,0.00,,---,0.00,VWS V14.01,2013-01-24 21:02:00,
2013-01-24 16:03:00,18.1,2.2,30.44,East,97,0.0,0.0,49,0.00,,---,0.00,VWS V14.01,2013-01-24 21:03:00,
2013-01-24 16:04:00,18.3,2.3,30.44,East,97,0.0,0.0,49,0.00,,---,0.00,VWS V14.01,2013-01-24 21:04:00,
2013-01-24 16:05:00,18.3,2.8,30.44,East,97,0.0,0.0,50,0.00,,---,0.00,VWS V14.01,2013-01-24 21:05:00,
2013-01-24 16:06:00,18.3,2.3,30.44,East,97,0.0,0.0,49,0.00,,---,0.00,VWS V14.01,2013-01-24 21:06:00,
2013-01-24 16:07:00,18.3,2.3,30.44,East,97,0.0,0.0,49,0.00,,---,0.00,VWS V14.01,2013-01-24 21:07:00,
2013-01-24 16:08:00,18.3,2.8,30.44,East,97,0.0,0.0,50,0.00,,---,0.00,VWS V14.01,2013-01-24 21:08:00,
2013-01-24 16:09:00,18.3,2.8,30.44,East,97,0.0,0.0,50,0.00,,---,0.00,VWS V14.01,2013-01-24 21:09:00,
2013-01-24 16:10:00,18.3,3.2,30.44,East,97,0.0,0.0,51,0.00,,---,0.00,VWS V14.01,2013-01-24 21:10:00,
2013-01-24 16:11:00,18.3,3.2,30.44,East,97,0.0,0.0,51,0.00,,---,0.00,VWS V14.01,2013-01-24 21:11:00,
2013-01-24 16:12:00,18.3,2.8,30.44,East,97,0.0,0.0,50,0.00,,---,0.00,VWS V14.01,2013-01-24 21:12:00,
2013-01-24 16:13:00,18.4,2.9,30.44,East,97,0.0,0.0,50,0.00,,---,0.00,VWS V14.01,2013-01-24 21:13:00,
2013-01-24 16:14:00,18.4,2.9,30.44,East,97,0.0,0.0,50,0.00,,---,0.00,VWS V14.01,2013-01-24 21:14:00,
2013-01-24 16:15:00,18.4,2.9,30.43,East,97,0.0,0.0,50,0.00,,---,0.00,VWS V14.01,2013-01-24 21:15:00,
2013-01-24 16:16:00,18.4,2.9,30.43,East,97,0.0,0.0,50,0.00,,---,0.00,VWS V14.01,2013-01-24 21:16:00,
2013-01-24 16:17:00,18.4,2.9,30.43,East,97,0.0,0.0,50,0.00,,---,0.00,VWS V14.01,2013-01-24 21:17:00,
2013-01-24 16:18:00,18.4,2.9,30.43,East,97,0.0,0.0,50,0.00,,---,0.00,VWS V14.01,2013-01-24 21:18:00,
2013-01-24 16:19:00,18.6,2.6,30.43,East,97,0.0,0.0,49,0.00,,---,0.00,VWS V14.01,2013-01-24 21:19:00,
2013-01-24 16:20:00,18.6,3.1,30.43,East,97,0.0,0.0,50,0.00,,---,0.00,VWS V14.01,2013-01-24 21:20:00,
2013-01-24 16:21:00,18.6,3.1,30.43,East,97,0.0,0.0,50,0.00,,---,0.00,VWS V14.01,2013-01-24 21:21:00,
2013-01-24 16:22:00,18.6,3.1,30.43,East,97,0.0,0.0,50,0.00,,---,0.00,VWS V14.01,2013-01-24 21:22:00,
2013-01-24 16:23:00,18.6,3.1,30.43,East,97,0.0,0.0,50,0.00,,---,0.00,VWS V14.01,2013-01-24 21:23:00,
2013-01-24 16:24:00,18.6,2.6,30.43,East,97,0.0,0.0,49,0.00,,---,0.00,VWS V14.01,2013-01-24 21:24:00,
2013-01-24 16:25:00,18.6,2.6,30.43,East,97,0.0,0.0,49,0.00,,---,0.00,VWS V14.01,2013-01-24 21:25:00,
2013-01-24 16:26:00,18.6,2.6,30.43,East,97,0.0,0.0,49,0.00,,---,0.00,VWS V14.01,2013-01-24 21:26:00,
2013-01-24 16:27:00,18.8,2.8,30.43,East,97,0.0,0.0,49,0.00,,---,0.00,VWS V14.01,2013-01-24 21:27:00,
2013-01-24 16:28:00,18.8,3.2,30.43,East,97,0.0,0.0,50,0.00,,---,0.00,VWS V14.01,2013-01-24 21:28:00,
2013-01-24 16:29:00,18.8,3.2,30.43,East,97,0.0,0.0,50,0.00,,---,0.00,VWS V14.01,2013-01-24 21:29:00,
2013-01-24 16:30:00,18.8,2.8,30.42,East,97,0.0,0.0,49,0.00,,---,0.00,VWS V14.01,2013-01-24 21:30:00,
2013-01-24 16:31:00,18.8,3.2,30.42,East,97,0.0,0.0,50,0.00,,---,0.00,VWS V14.01,2013-01-24 21:31:00,
2013-01-24 16:32:00,18.9,3.3,30.42,East,97,0.0,0.0,50,0.00,,---,0.00,VWS V14.01,2013-01-24 21:32:00,
2013-01-24 16:33:00,18.9,3.3,30.42,East,97,4.0,4.0,50,0.00,,---,0.00,VWS V14.01,2013-01-24 21:33:00,
2013-01-24 16:34:00,18.9,3.3,30.42,East,97,2.0,4.0,50,0.00,,---,0.00,VWS V14.01,2013-01-24 21:34:00,
2013-01-24 16:35:00,18.9,2.9,30.42,East,97,0.0,4.0,49,0.00,,---,0.00,VWS V14.01,2013-01-24 21:35:00,
2013-01-24 16:36:00,18.9,2.5,30.42,East,97,0.0,4.0,48,0.00,,---,0.00,VWS V14.01,2013-01-24 21:36:00,
2013-01-24 16:37:00,18.9,2.5,30.42,East,97,0.0,4.0,48,0.00,,---,0.00,VWS V14.01,2013-01-24 21:37:00,
2013-01-24 16:38:00,18.9,2.5,30.42,East,97,0.0,4.0,48,0.00,,---,0.00,VWS V14.01,2013-01-24 21:38:00,
2013-01-24 16:39:00,18.9,2.5,30.42,East,97,0.0,4.0,48,0.00,,---,0.00,VWS V14.01,2013-01-24 21:39:00,
2013-01-24 16:40:00,18.9,2.5,30.42,East,97,0.0,4.0,48,0.00,,---,0.00,VWS V14.01,2013-01-24 21:40:00,
2013-01-24 16:41:00,18.9,2.5,30.42,East,97,0.0,0.0,48,0.00,,---,0.00,VWS V14.01,2013-01-24 21:41:00,
2013-01-24 16:42:00,19.1,2.7,30.42,East,89,1.0,3.0,48,0.00,,---,0.00,VWS V14.01,2013-01-24 21:42:00,
2013-01-24 16:43:00,19.1,2.7,30.42,East,89,0.0,3.0,48,0.00,,---,0.00,VWS V14.01,2013-01-24 21:43:00,
2013-01-24 16:44:00,19.1,3.1,30.42,East,89,0.0,3.0,49,0.00,,---,0.00,VWS V14.01,2013-01-24 21:44:00,
2013-01-24 16:45:00,19.1,3.1,30.41,East,87,0.0,3.0,49,0.00,,---,0.00,VWS V14.01,2013-01-24 21:45:00,
2013-01-24 16:46:00,19.1,2.7,30.41,East,87,0.0,3.0,48,0.00,,---,0.00,VWS V14.01,2013-01-24 21:46:00,
2013-01-24 16:47:00,19.1,2.7,30.41,East,87,0.0,3.0,48,0.00,,---,0.00,VWS V14.01,2013-01-24 21:47:00,
2013-01-24 16:48:00,19.1,2.7,30.41,East,87,0.0,3.0,48,0.00,,---,0.00,VWS V14.01,2013-01-24 21:48:00,
2013-01-24 16:49:00,19.1,2.7,30.41,East,87,0.0,3.0,48,0.00,,---,0.00,VWS V14.01,2013-01-24 21:49:00,
2013-01-24 16:50:00,19.1,2.7,30.41,East,87,0.0,3.0,48,0.00,,---,0.00,VWS V14.01,2013-01-24 21:50:00,
2013-01-24 16:51:00,19.1,2.7,30.41,East,87,0.0,0.0,48,0.00,,---,0.00,VWS V14.01,2013-01-24 21:51:00,
2013-01-24 16:52:00,19.1,2.7,30.41,East,87,0.0,0.0,48,0.00,,---,0.00,VWS V14.01,2013-01-24 21:52:00,
2013-01-24 16:53:00,19.2,3.2,30.41,East,87,0.0,0.0,49,0.00,,---,0.00,VWS V14.01,2013-01-24 21:53:00,
2013-01-24 16:54:00,19.2,2.7,30.41,East,87,0.0,2.0,48,0.00,,---,0.00,VWS V14.01,2013-01-24 21:54:00,
2013-01-24 16:55:00,19.2,2.7,30.41,East,87,0.0,2.0,48,0.00,,---,0.00,VWS V14.01,2013-01-24 21:55:00,
2013-01-24 16:56:00,19.2,2.7,30.41,East,87,0.0,2.0,48,0.00,,---,0.00,VWS V14.01,2013-01-24 21:56:00,
2013-01-24 16:57:00,19.2,2.7,30.41,East,87,0.0,2.0,48,0.00,,---,0.00,VWS V14.01,2013-01-24 21:57:00,
2013-01-24 16:58:00,19.2,2.7,30.41,East,87,2.0,2.0,48,0.00,,---,0.00,VWS V14.01,2013-01-24 21:58:00,
2013-01-24 16:59:00,19.2,2.7,30.41,East,87,2.0,2.0,48,0.00,,---,0.00,VWS V14.01,2013-01-24 21:59:00,
2013-01-24 17:00:00,19.2,2.7,30.41,East,87,0.0,3.0,48,0.00,,---,0.00,VWS V14.01,2013-01-24 22:00:00,
2013-01-24 17:01:00,19.2,2.7,30.41,East,87,0.0,0.0,48,0.00,,---,0.00,VWS V14.01,2013-01-24 22:01:00,
2013-01-24 17:02:00,19.2,2.7,30.41,East,87,0.0,2.0,48,0.00,,---,0.00,VWS V14.01,2013-01-24 22:02:00,
2013-01-24 17:03:00,19.2,2.3,30.41,East,87,0.0,2.0,47,0.00,,---,0.00,VWS V14.01,2013-01-24 22:03:00,
2013-01-24 17:04:00,19.2,2.3,30.41,East,87,0.0,2.0,47,0.00,,---,0.00,VWS V14.01,2013-01-24 22:04:00,
2013-01-24 17:05:00,19.2,2.3,30.41,East,87,0.0,2.0,47,0.00,,---,0.00,VWS V14.01,2013-01-24 22:05:00,
2013-01-24 17:06:00,19.2,2.7,30.41,East,87,0.0,2.0,48,0.00,,---,0.00,VWS V14.01,2013-01-24 22:06:00,
2013-01-24 17:07:00,19.2,2.7,30.41,East,87,2.0,5.0,48,0.00,,---,0.00,VWS V14.01,2013-01-24 22:07:00,
2013-01-24 17:08:00,19.2,2.7,30.41,East,87,1.0,5.0,48,0.00,,---,0.00,VWS V14.01,2013-01-24 22:08:00,
2013-01-24 17:09:00,19.2,2.7,30.41,East,87,2.0,5.0,48,0.00,,---,0.00,VWS V14.01,2013-01-24 22:09:00,
2013-01-24 17:10:00,19.2,2.3,30.41,East,87,1.0,5.0,47,0.00,,---,0.00,VWS V14.01,2013-01-24 22:10:00,
2013-01-24 17:11:00,19.2,2.3,30.41,East,87,0.0,2.0,47,0.00,,---,0.00,VWS V14.01,2013-01-24 22:11:00,
2013-01-24 17:12:00,19.2,2.3,30.41,East,87,0.0,2.0,47,0.00,,---,0.00,VWS V14.01,2013-01-24 22:12:00,
2013-01-24 17:13:00,19.2,2.3,30.41,East,87,0.0,2.0,47,0.00,,---,0.00,VWS V14.01,2013-01-24 22:13:00,
2013-01-24 17:14:00,19.2,2.7,30.41,East,87,0.0,2.0,48,0.00,,---,0.00,VWS V14.01,2013-01-24 22:14:00,
2013-01-24 17:15:00,19.2,2.7,30.41,East,87,0.0,2.0,48,0.00,,---,0.00,VWS V14.01,2013-01-24 22:15:00,
2013-01-24 17:16:00,19.2,2.7,30.41,East,87,0.0,2.0,48,0.00,,---,0.00,VWS V14.01,2013-01-24 22:16:00,
2013-01-24 17:17:00,19.2,2.7,30.41,East,87,0.0,2.0,48,0.00,,---,0.00,VWS V14.01,2013-01-24 22:17:00,
2013-01-24 17:18:00,19.2,2.3,30.41,East,87,0.0,2.0,47,0.00,,---,0.00,VWS V14.01,2013-01-24 22:18:00,
2013-01-24 17:19:00,19.2,2.3,30.41,East,87,0.0,2.0,47,0.00,,---,0.00,VWS V14.01,2013-01-24 22:19:00,
2013-01-24 17:20:00,19.2,2.7,30.41,East,87,0.0,2.0,48,0.00,,---,0.00,VWS V14.01,2013-01-24 22:20:00,
2013-01-24 17:21:00,19.4,2.9,30.41,East,87,0.0,0.0,48,0.00,,---,0.00,VWS V14.01,2013-01-24 22:21:00,
2013-01-24 17:22:00,19.4,2.9,30.41,East,87,0.0,0.0,48,0.00,,---,0.00,VWS V14.01,2013-01-24 22:22:00,
2013-01-24 17:23:00,19.4,2.9,30.41,East,87,0.0,0.0,48,0.00,,---,0.00,VWS V14.01,2013-01-24 22:23:00,
2013-01-24 17:24:00,19.4,2.9,30.41,East,87,0.0,0.0,48,0.00,,---,0.00,VWS V14.01,2013-01-24 22:24:00,
2013-01-24 17:25:00,19.4,2.9,30.41,East,87,0.0,0.0,48,0.00,,---,0.00,VWS V14.01,2013-01-24 22:25:00,
2013-01-24 17:26:00,19.4,2.9,30.41,East,87,2.0,2.0,48,0.00,,---,0.00,VWS V14.01,2013-01-24 22:26:00,
2013-01-24 17:27:00,19.4,2.9,30.41,East,87,0.0,3.0,48,0.00,,---,0.00,VWS V14.01,2013-01-24 22:27:00,
2013-01-24 17:28:00,19.4,2.9,30.41,East,87,0.0,3.0,48,0.00,,---,0.00,VWS V14.01,2013-01-24 22:28:00,
2013-01-24 17:29:00,19.4,2.9,30.41,East,87,0.0,3.0,48,0.00,,---,0.00,VWS V14.01,2013-01-24 22:29:00,
2013-01-24 17:30:00,19.4,3.4,30.40,East,87,1.0,3.0,49,0.00,,---,0.00,VWS V14.01,2013-01-24 22:30:00,
2013-01-24 17:31:00,19.4,2.9,30.40,East,87,0.0,3.0,48,0.00,,---,0.00,VWS V14.01,2013-01-24 22:31:00,
2013-01-24 17:32:00,19.4,2.9,30.40,East,87,0.0,3.0,48,0.00,,---,0.00,VWS V14.01,2013-01-24 22:32:00,
2013-01-24 17:33:00,19.4,2.9,30.40,East,87,0.0,3.0,48,0.00,,---,0.00,VWS V14.01,2013-01-24 22:33:00,
2013-01-24 17:34:00,19.4,2.9,30.40,East,87,0.0,3.0,48,0.00,,---,0.00,VWS V14.01,2013-01-24 22:34:00,
2013-01-24 17:35:00,19.5,3.5,30.40,East,87,0.0,3.0,49,0.00,,---,0.00,VWS V14.01,2013-01-24 22:35:00,
2013-01-24 17:36:00,19.5,3.0,30.40,East,87,3.0,3.0,48,0.00,,---,0.00,VWS V14.01,2013-01-24 22:36:00,
2013-01-24 17:37:00,19.5,3.0,30.40,East,87,1.0,3.0,48,0.00,,---,0.00,VWS V14.01,2013-01-24 22:37:00,
2013-01-24 17:38:00,19.5,3.0,30.40,East,87,0.0,3.0,48,0.00,,---,0.00,VWS V14.01,2013-01-24 22:38:00,
2013-01-24 17:39:00,19.4,2.9,30.40,East,87,0.0,5.0,48,0.00,,---,0.00,VWS V14.01,2013-01-24 22:39:00,
2013-01-24 17:40:00,19.4,2.9,30.40,East,87,0.0,5.0,48,0.00,,---,0.00,VWS V14.01,2013-01-24 22:40:00,
2013-01-24 17:41:00,19.4,2.9,30.40,East,87,3.0,3.0,48,0.00,,---,0.00,VWS V14.01,2013-01-24 22:41:00,
2013-01-24 17:42:00,19.4,2.9,30.40,East,87,0.0,3.0,48,0.00,,---,0.00,VWS V14.01,2013-01-24 22:42:00,
2013-01-24 17:43:00,19.4,2.9,30.40,East,87,0.0,3.0,48,0.00,,---,0.00,VWS V14.01,2013-01-24 22:43:00,
2013-01-24 17:44:00,19.4,2.9,30.40,East,87,0.0,3.0,48,0.00,,---,0.00,VWS V14.01,2013-01-24 22:44:00,
2013-01-24 17:45:00,19.4,2.9,30.40,East,87,0.0,3.0,48,0.00,,---,0.00,VWS V14.01,2013-01-24 22:45:00,
2013-01-24 17:46:00,19.4,2.9,30.40,East,87,0.0,3.0,48,0.00,,---,0.00,VWS V14.01,2013-01-24 22:46:00,
2013-01-24 17:47:00,19.4,2.9,30.40,East,87,0.0,3.0,48,0.00,,---,0.00,VWS V14.01,2013-01-24 22:47:00,
2013-01-24 17:48:00,19.4,2.9,30.40,East,87,2.0,3.0,48,0.00,,---,0.00,VWS V14.01,2013-01-24 22:48:00,
2013-01-24 17:49:00,19.4,2.9,30.40,East,87,0.0,3.0,48,0.00,,---,0.00,VWS V14.01,2013-01-24 22:49:00,
2013-01-24 17:50:00,19.4,2.9,30.40,East,87,0.0,3.0,48,0.00,,---,0.00,VWS V14.01,2013-01-24 22:50:00,
2013-01-24 17:51:00,19.4,2.9,30.40,East,87,2.0,2.0,48,0.00,,---,0.00,VWS V14.01,2013-01-24 22:51:00,
2013-01-24 17:52:00,19.4,2.9,30.40,East,87,0.0,2.0,48,0.00,,---,0.00,VWS V14.01,2013-01-24 22:52:00,
2013-01-24 17:53:00,19.4,2.9,30.40,East,87,0.0,2.0,48,0.00,,---,0.00,VWS V14.01,2013-01-24 22:53:00,
2013-01-24 17:54:00,19.4,2.9,30.40,East,87,0.0,2.0,48,0.00,,---,0.00,VWS V14.01,2013-01-24 22:54:00,
2013-01-24 17:55:00,19.4,2.9,30.40,East,87,0.0,2.0,48,0.00,,---,0.00,VWS V14.01,2013-01-24 22:55:00,
2013-01-24 17:56:00,19.4,2.9,30.40,East,87,0.0,2.0,48,0.00,,---,0.00,VWS V14.01,2013-01-24 22:56:00,
2013-01-24 17:57:00,19.4,2.9,30.40,East,87,0.0,2.0,48,0.00,,---,0.00,VWS V14.01,2013-01-24 22:57:00,
2013-01-24 17:58:00,19.4,2.9,30.40,East,87,0.0,2.0,48,0.00,,---,0.00,VWS V14.01,2013-01-24 22:58:00,
2013-01-24 17:59:00,19.4,2.9,30.40,East,87,0.0,2.0,48,0.00,,---,0.00,VWS V14.01,2013-01-24 22:59:00,
2013-01-24 18:00:00,19.4,2.9,30.39,East,87,0.0,2.0,48,0.00,,---,0.00,VWS V14.01,2013-01-24 23:00:00,
2013-01-24 18:01:00,19.4,2.9,30.39,East,87,0.0,0.0,48,0.00,,---,0.00,VWS V14.01,2013-01-24 23:01:00,
2013-01-24 18:02:00,19.5,3.0,30.39,East,87,0.0,2.0,48,0.00,,---,0.00,VWS V14.01,2013-01-24 23:02:00,
2013-01-24 18:03:00,19.4,2.9,30.39,East,87,3.0,3.0,48,0.00,,---,0.00,VWS V14.01,2013-01-24 23:03:00,
2013-01-24 18:04:00,19.4,2.9,30.39,East,87,0.0,3.0,48,0.00,,---,0.00,VWS V14.01,2013-01-24 23:04:00,
2013-01-24 18:05:00,19.4,2.5,30.39,East,87,0.0,3.0,47,0.00,,---,0.00,VWS V14.01,2013-01-24 23:05:00,
2013-01-24 18:06:00,19.4,2.5,30.39,East,87,2.0,3.0,47,0.00,,---,0.00,VWS V14.01,2013-01-24 23:06:00,
2013-01-24 18:07:00,19.4,2.5,30.39,East,87,1.0,3.0,47,0.00,,---,0.00,VWS V14.01,2013-01-24 23:07:00,
2013-01-24 18:08:00,19.4,2.9,30.39,East,87,0.0,3.0,48,0.00,,---,0.00,VWS V14.01,2013-01-24 23:08:00,
2013-01-24 18:09:00,19.4,2.9,30.39,East,87,1.0,3.0,48,0.00,,---,0.00,VWS V14.01,2013-01-24 23:09:00,
2013-01-24 18:10:00,19.4,2.9,30.39,East,89,2.0,3.0,48,0.00,,---,0.00,VWS V14.01,2013-01-24 23:10:00,
2013-01-24 18:11:00,19.4,2.9,30.39,East,89,0.0,2.0,48,0.00,,---,0.00,VWS V14.01,2013-01-24 23:11:00,
2013-01-24 18:12:00,19.5,3.0,30.39,East,89,0.0,2.0,48,0.00,,---,0.00,VWS V14.01,2013-01-24 23:12:00,
2013-01-24 18:13:00,19.5,3.0,30.39,East,89,2.0,2.0,48,0.00,,---,0.00,VWS V14.01,2013-01-24 23:13:00,
2013-01-24 18:14:00,19.5,3.0,30.39,East,89,0.0,2.0,48,0.00,,---,0.00,VWS V14.01,2013-01-24 23:14:00,
2013-01-24 18:15:00,19.5,3.0,30.39,ESE,111,4.0,4.0,48,0.00,,---,0.00,VWS V14.01,2013-01-24 23:15:00,
2013-01-24 18:16:00,19.5,3.0,30.39,East,94,2.0,4.0,48,0.00,,---,0.00,VWS V14.01,2013-01-24 23:16:00,
2013-01-24 18:17:00,19.5,2.6,30.39,East,94,2.0,4.0,47,0.00,,---,0.00,VWS V14.01,2013-01-24 23:17:00,
2013-01-24 18:18:00,19.5,2.6,30.39,East,94,0.0,4.0,47,0.00,,---,0.00,VWS V14.01,2013-01-24 23:18:00,
2013-01-24 18:19:00,19.5,3.0,30.39,East,94,0.0,4.0,48,0.00,,---,0.00,VWS V14.01,2013-01-24 23:19:00,
2013-01-24 18:20:00,19.5,3.0,30.39,East,94,0.0,4.0,48,0.00,,---,0.00,VWS V14.01,2013-01-24 23:20:00,
2013-01-24 18:21:00,19.5,2.6,30.39,East,94,1.0,1.0,47,0.00,,---,0.00,VWS V14.01,2013-01-24 23:21:00,
2013-01-24 18:22:00,19.4,2.5,30.39,East,98,0.0,2.0,47,0.00,,---,0.00,VWS V14.01,2013-01-24 23:22:00,
2013-01-24 18:23:00,19.5,3.0,30.39,East,98,0.0,2.0,48,0.00,,---,0.00,VWS V14.01,2013-01-24 23:23:00,
2013-01-24 18:24:00,19.5,3.0,30.39,ESE,107,0.0,3.0,48,0.00,,---,0.00,VWS V14.01,2013-01-24 23:24:00,
2013-01-24 18:25:00,19.5,3.0,30.39,ESE,107,0.0,3.0,48,0.00,,---,0.00,VWS V14.01,2013-01-24 23:25:00,
2013-01-24 18:26:00,19.5,3.0,30.39,ESE,106,0.0,3.0,48,0.00,,---,0.00,VWS V14.01,2013-01-24 23:26:00,
2013-01-24 18:27:00,19.5,3.0,30.39,East,96,2.0,3.0,48,0.00,,---,0.00,VWS V14.01,2013-01-24 23:27:00,
2013-01-24 18:28:00,19.5,3.0,30.39,East,94,1.0,3.0,48,0.00,,---,0.00,VWS V14.01,2013-01-24 23:28:00,
2013-01-24 18:29:00,19.5,3.0,30.39,East,94,0.0,3.0,48,0.00,,---,0.00,VWS V14.01,2013-01-24 23:29:00,
2013-01-24 18:30:00,19.5,3.0,30.39,East,94,0.0,3.0,48,0.00,,---,0.00,VWS V14.01,2013-01-24 23:30:00,
2013-01-24 18:31:00,19.5,3.0,30.39,East,94,2.0,3.0,48,0.00,,---,0.00,VWS V14.01,2013-01-24 23:31:00,
2013-01-24 18:32:00,19.5,3.0,30.39,East,94,0.0,3.0,48,0.00,,---,0.00,VWS V14.01,2013-01-24 23:32:00,
2013-01-24 18:33:00,19.5,3.0,30.39,East,94,0.0,3.0,48,0.00,,---,0.00,VWS V14.01,2013-01-24 23:33:00,
2013-01-24 18:34:00,19.5,3.0,30.39,East,94,0.0,3.0,48,0.00,,---,0.00,VWS V14.01,2013-01-24 23:34:00,
2013-01-24 18:35:00,19.5,3.0,30.39,East,94,0.0,3.0,48,0.00,,---,0.00,VWS V14.01,2013-01-24 23:35:00,
2013-01-24 18:36:00,19.5,3.0,30.39,East,94,0.0,3.0,48,0.00,,---,0.00,VWS V14.01,2013-01-24 23:36:00,
2013-01-24 18:37:00,19.5,3.0,30.39,East,94,0.0,3.0,48,0.00,,---,0.00,VWS V14.01,2013-01-24 23:37:00,
2013-01-24 18:38:00,19.5,3.0,30.39,East,94,0.0,3.0,48,0.00,,---,0.00,VWS V14.01,2013-01-24 23:38:00,
2013-01-24 18:39:00,19.5,3.0,30.39,East,94,0.0,3.0,48,0.00,,---,0.00,VWS V14.01,2013-01-24 23:39:00,
2013-01-24 18:40:00,19.5,3.0,30.39,East,94,0.0,3.0,48,0.00,,---,0.00,VWS V14.01,2013-01-24 23:40:00,
2013-01-24 18:41:00,19.5,3.0,30.39,East,93,0.0,0.0,48,0.00,,---,0.00,VWS V14.01,2013-01-24 23:41:00,
2013-01-24 18:42:00,19.5,3.0,30.39,East,93,0.0,3.0,48,0.00,,---,0.00,VWS V14.01,2013-01-24 23:42:00,
2013-01-24 18:43:00,19.5,3.0,30.39,East,93,0.0,3.0,48,0.00,,---,0.00,VWS V14.01,2013-01-24 23:43:00,
2013-01-24 18:44:00,19.5,3.0,30.39,East,93,2.0,3.0,48,0.00,,---,0.00,VWS V14.01,2013-01-24 23:44:00,
2013-01-24 18:45:00,19.5,3.0,30.39,East,93,0.0,3.0,48,0.00,,---,0.00,VWS V14.01,2013-01-24 23:45:00,
2013-01-24 18:46:00,19.5,2.6,30.39,East,93,0.0,3.0,47,0.00,,---,0.00,VWS V14.01,2013-01-24 23:46:00,
2013-01-24 18:47:00,19.5,3.5,30.39,East,93,0.0,3.0,49,0.00,,---,0.00,VWS V14.01,2013-01-24 23:47:00,
2013-01-24 18:48:00,19.5,3.5,30.39,East,93,0.0,3.0,49,0.00,,---,0.00,VWS V14.01,2013-01-24 23:48:00,
2013-01-24 18:49:00,19.5,3.0,30.39,East,93,0.0,3.0,48,0.00,,---,0.00,VWS V14.01,2013-01-24 23:49:00,
2013-01-24 18:50:00,19.5,3.5,30.39,East,93,0.0,3.0,49,0.00,,---,0.00,VWS V14.01,2013-01-24 23:50:00,
2013-01-24 18:51:00,19.5,3.5,30.39,East,93,0.0,0.0,49,0.00,,---,0.00,VWS V14.01,2013-01-24 23:51:00,
2013-01-24 18:52:00,19.7,4.5,30.39,East,93,0.0,1.0,51,0.00,,---,0.00,VWS V14.01,2013-01-24 23:52:00,
2013-01-24 18:53:00,19.7,4.9,30.39,East,93,0.0,1.0,52,0.00,,---,0.00,VWS V14.01,2013-01-24 23:53:00,
2013-01-24 18:54:00,19.7,4.9,30.39,East,93,0.0,1.0,52,0.00,,---,0.00,VWS V14.01,2013-01-24 23:54:00,
2013-01-24 18:55:00,19.7,5.8,30.39,East,93,1.0,1.0,54,0.00,,---,0.00,VWS V14.01,2013-01-24 23:55:00,
2013-01-24 18:56:00,19.7,5.3,30.39,East,93,2.0,2.0,53,0.00,,---,0.00,VWS V14.01,2013-01-24 23:56:00,
2013-01-24 18:57:00,19.7,5.8,30.39,East,93,0.0,2.0,54,0.00,,---,0.00,VWS V14.01,2013-01-24 23:57:00,
2013-01-24 18:58:00,19.5,6.0,30.39,East,93,0.0,3.0,55,0.00,,---,0.00,VWS V14.01,2013-01-24 23:58:00,
2013-01-24 18:59:00,19.7,6.9,30.39,East,93,0.0,3.0,57,0.00,,---,0.00,VWS V14.01,2013-01-24 23:59:00,
2013-01-24 19:00:00,19.7,6.9,30.39,East,93,0.0,3.0,57,0.00,,---,0.00,VWS V14.01,2013-01-25 00:00:00,
2013-01-24 19:01:00,19.5,6.0,30.39,East,93,0.0,0.0,55,0.00,,---,0.00,VWS V14.01,2013-01-25 00:01:00,
2013-01-24 19:02:00,19.5,6.0,30.39,East,93,0.0,0.0,55,0.00,,---,0.00,VWS V14.01,2013-01-25 00:02:00,
2013-01-24 19:03:00,19.5,6.4,30.39,East,93,0.0,0.0,56,0.00,,---,0.00,VWS V14.01,2013-01-25 00:03:00,
2013-01-24 19:04:00,19.5,6.4,30.39,East,93,0.0,0.0,56,0.00,,---,0.00,VWS V14.01,2013-01-25 00:04:00,
2013-01-24 19:05:00,19.5,6.8,30.39,East,93,0.0,0.0,57,0.00,,---,0.00,VWS V14.01,2013-01-25 00:05:00,
2013-01-24 19:06:00,19.5,7.1,30.39,East,93,0.0,0.0,58,0.00,,---,0.00,VWS V14.01,2013-01-25 00:06:00,
2013-01-24 19:07:00,19.4,7.1,30.39,East,93,0.0,0.0,58,0.00,,---,0.00,VWS V14.01,2013-01-25 00:07:00,
2013-01-24 19:08:00,19.4,7.4,30.39,East,93,0.0,0.0,59,0.00,,---,0.00,VWS V14.01,2013-01-25 00:08:00,
2013-01-24 19:09:00,19.4,7.8,30.39,East,93,0.0,0.0,60,0.00,,---,0.00,VWS V14.01,2013-01-25 00:09:00,
2013-01-24 19:10:00,19.4,7.8,30.39,East,93,0.0,0.0,60,0.00,,---,0.00,VWS V14.01,2013-01-25 00:10:00,
2013-01-24 19:11:00,19.4,7.8,30.39,East,93,0.0,0.0,60,0.00,,---,0.00,VWS V14.01,2013-01-25 00:11:00,
2013-01-24 19:12:00,19.4,7.8,30.39,East,93,0.0,0.0,60,0.00,,---,0.00,VWS V14.01,2013-01-25 00:12:00,
2013-01-24 19:13:00,19.4,8.2,30.39,East,93,0.0,0.0,61,0.00,,---,0.00,VWS V14.01,2013-01-25 00:13:00,
2013-01-24 19:14:00,19.4,8.2,30.39,East,93,0.0,0.0,61,0.00,,---,0.00,VWS V14.01,2013-01-25 00:14:00,
2013-01-24 19:15:00,19.4,8.2,30.40,East,93,0.0,0.0,61,0.00,,---,0.00,VWS V14.01,2013-01-25 00:15:00,
2013-01-24 19:16:00,19.4,8.2,30.40,East,93,0.0,0.0,61,0.00,,---,0.00,VWS V14.01,2013-01-25 00:16:00,
2013-01-24 19:17:00,19.4,8.2,30.40,East,93,0.0,0.0,61,0.00,,---,0.00,VWS V14.01,2013-01-25 00:17:00,
2013-01-24 19:18:00,19.4,7.8,30.40,East,93,0.0,0.0,60,0.00,,---,0.00,VWS V14.01,2013-01-25 00:18:00,
2013-01-24 19:19:00,19.4,7.8,30.40,East,93,0.0,0.0,60,0.00,,---,0.00,VWS V14.01,2013-01-25 00:19:00,
2013-01-24 19:20:00,19.4,7.8,30.40,East,93,0.0,0.0,60,0.00,,---,0.00,VWS V14.01,2013-01-25 00:20:00,
2013-01-24 19:21:00,19.2,7.2,30.40,East,93,0.0,0.0,59,0.00,,---,0.00,VWS V14.01,2013-01-25 00:21:00,
2013-01-24 19:22:00,19.2,6.9,30.40,East,93,0.0,0.0,58,0.00,,---,0.00,VWS V14.01,2013-01-25 00:22:00,
2013-01-24 19:23:00,19.2,6.9,30.40,East,93,0.0,0.0,58,0.00,,---,0.00,VWS V14.01,2013-01-25 00:23:00,
2013-01-24 19:24:00,19.2,7.2,30.40,East,93,0.0,0.0,59,0.00,,---,0.00,VWS V14.01,2013-01-25 00:24:00,
2013-01-24 19:25:00,19.2,7.2,30.40,East,93,0.0,0.0,59,0.00,,---,0.00,VWS V14.01,2013-01-25 00:25:00,
2013-01-24 19:26:00,19.2,7.2,30.40,East,93,0.0,0.0,59,0.00,,---,0.00,VWS V14.01,2013-01-25 00:26:00,
2013-01-24 19:27:00,19.2,7.6,30.40,East,93,0.0,2.0,60,0.00,,---,0.00,VWS V14.01,2013-01-25 00:27:00,
2013-01-24 19:28:00,19.2,7.2,30.40,East,93,0.0,2.0,59,0.00,,---,0.00,VWS V14.01,2013-01-25 00:28:00,
2013-01-24 19:29:00,19.2,7.6,30.40,East,93,0.0,2.0,60,0.00,,---,0.00,VWS V14.01,2013-01-25 00:29:00,
2013-01-24 19:30:00,19.2,7.6,30.40,East,93,0.0,2.0,60,0.00,,---,0.00,VWS V14.01,2013-01-25 00:30:00,
2013-01-24 19:31:00,19.2,7.6,30.40,East,93,0.0,0.0,60,0.00,,---,0.00,VWS V14.01,2013-01-25 00:31:00,
2013-01-24 19:32:00,19.2,7.6,30.40,East,93,0.0,0.0,60,0.00,,---,0.00,VWS V14.01,2013-01-25 00:32:00,
2013-01-24 19:33:00,19.2,7.6,30.40,East,93,0.0,0.0,60,0.00,,---,0.00,VWS V14.01,2013-01-25 00:33:00,
2013-01-24 19:34:00,19.1,7.5,30.40,East,93,0.0,0.0,60,0.00,,---,0.00,VWS V14.01,2013-01-25 00:34:00,
2013-01-24 19:35:00,19.1,7.5,30.40,East,93,0.0,0.0,60,0.00,,---,0.00,VWS V14.01,2013-01-25 00:35:00,
2013-01-24 19:36:00,19.1,7.9,30.40,East,93,0.0,2.0,61,0.00,,---,0.00,VWS V14.01,2013-01-25 00:36:00,
2013-01-24 19:37:00,19.1,7.5,30.40,East,93,0.0,2.0,60,0.00,,---,0.00,VWS V14.01,2013-01-25 00:37:00,
2013-01-24 19:38:00,19.1,7.5,30.40,East,93,0.0,2.0,60,0.00,,---,0.00,VWS V14.01,2013-01-25 00:38:00,
2013-01-24 19:39:00,19.1,7.9,30.40,East,93,0.0,2.0,61,0.00,,---,0.00,VWS V14.01,2013-01-25 00:39:00,
2013-01-24 19:40:00,19.1,7.9,30.40,East,93,0.0,2.0,61,0.00,,---,0.00,VWS V14.01,2013-01-25 00:40:00,
2013-01-24 19:41:00,19.1,7.9,30.40,East,93,0.0,0.0,61,0.00,,---,0.00,VWS V14.01,2013-01-25 00:41:00,
2013-01-24 19:42:00,19.1,7.9,30.40,East,93,0.0,1.0,61,0.00,,---,0.00,VWS V14.01,2013-01-25 00:42:00,
2013-01-24 19:43:00,19.1,7.9,30.40,East,93,0.0,1.0,61,0.00,,---,0.00,VWS V14.01,2013-01-25 00:43:00,
2013-01-24 19:44:00,19.1,7.9,30.40,East,93,0.0,3.0,61,0.00,,---,0.00,VWS V14.01,2013-01-25 00:44:00,
2013-01-24 19:45:00,19.1,7.5,30.39,East,93,0.0,3.0,60,0.00,,---,0.00,VWS V14.01,2013-01-25 00:45:00,
2013-01-24 19:46:00,19.1,7.5,30.39,East,93,0.0,3.0,60,0.00,,---,0.00,VWS V14.01,2013-01-25 00:46:00,
2013-01-24 19:47:00,18.9,6.9,30.39,East,93,0.0,3.0,59,0.00,,---,0.00,VWS V14.01,2013-01-25 00:47:00,
2013-01-24 19:48:00,18.9,6.9,30.39,East,93,0.0,3.0,59,0.00,,---,0.00,VWS V14.01,2013-01-25 00:48:00,
2013-01-24 19:49:00,18.9,6.9,30.39,East,93,0.0,3.0,59,0.00,,---,0.00,VWS V14.01,2013-01-25 00:49:00,
2013-01-24 19:50:00,18.9,6.9,30.39,East,93,0.0,3.0,59,0.00,,---,0.00,VWS V14.01,2013-01-25 00:50:00,
2013-01-24 19:51:00,18.9,6.9,30.39,East,93,0.0,0.0,59,0.00,,---,0.00,VWS V14.01,2013-01-25 00:51:00,
2013-01-24 19:52:00,18.9,6.9,30.39,East,93,0.0,0.0,59,0.00,,---,0.00,VWS V14.01,2013-01-25 00:52:00,
2013-01-24 19:53:00,18.9,7.3,30.39,East,93,0.0,0.0,60,0.00,,---,0.00,VWS V14.01,2013-01-25 00:53:00,
2013-01-24 19:54:00,18.9,7.3,30.39,East,93,0.0,0.0,60,0.00,,---,0.00,VWS V14.01,2013-01-25 00:54:00,
2013-01-24 19:55:00,18.9,7.3,30.39,East,93,0.0,0.0,60,0.00,,---,0.00,VWS V14.01,2013-01-25 00:55:00,
2013-01-24 19:56:00,18.9,7.7,30.39,East,93,0.0,0.0,61,0.00,,---,0.00,VWS V14.01,2013-01-25 00:56:00,
2013-01-24 19:57:00,18.9,7.7,30.39,East,93,0.0,2.0,61,0.00,,---,0.00,VWS V14.01,2013-01-25 00:57:00,
2013-01-24 19:58:00,18.9,6.9,30.39,East,93,0.0,2.0,59,0.00,,---,0.00,VWS V14.01,2013-01-25 00:58:00,
2013-01-24 19:59:00,18.9,6.9,30.39,East,93,0.0,2.0,59,0.00,,---,0.00,VWS V14.01,2013-01-25 00:59:00,
2013-01-24 20:00:00,18.9,7.3,30.39,East,93,0.0,2.0,60,0.00,,---,0.00,VWS V14.01,2013-01-25 01:00:00,
2013-01-24 20:01:00,18.9,7.3,30.39,East,93,0.0,0.0,60,0.00,,---,0.00,VWS V14.01,2013-01-25 01:01:00,
2013-01-24 20:02:00,18.9,7.3,30.39,East,93,1.0,2.0,60,0.00,,---,0.00,VWS V14.01,2013-01-25 01:02:00,
2013-01-24 20:03:00,18.9,6.9,30.39,East,93,0.0,2.0,59,0.00,,---,0.00,VWS V14.01,2013-01-25 01:03:00,
2013-01-24 20:04:00,18.9,7.3,30.39,East,93,2.0,3.0,60,0.00,,---,0.00,VWS V14.01,2013-01-25 01:04:00,
2013-01-24 20:05:00,18.9,7.3,30.39,East,93,0.0,3.0,60,0.00,,---,0.00,VWS V14.01,2013-01-25 01:05:00,
2013-01-24 20:06:00,18.9,6.9,30.39,East,93,0.0,3.0,59,0.00,,---,0.00,VWS V14.01,2013-01-25 01:06:00,
2013-01-24 20:07:00,18.9,6.9,30.39,East,93,0.0,3.0,59,0.00,,---,0.00,VWS V14.01,2013-01-25 01:07:00,
2013-01-24 20:08:00,18.9,6.9,30.39,East,93,0.0,3.0,59,0.00,,---,0.00,VWS V14.01,2013-01-25 01:08:00,
2013-01-24 20:09:00,18.9,6.9,30.39,East,93,0.0,3.0,59,0.00,,---,0.00,VWS V14.01,2013-01-25 01:09:00,
2013-01-24 20:10:00,18.9,6.9,30.39,East,93,0.0,3.0,59,0.00,,---,0.00,VWS V14.01,2013-01-25 01:10:00,
2013-01-24 20:11:00,18.9,6.9,30.39,East,93,0.0,0.0,59,0.00,,---,0.00,VWS V14.01,2013-01-25 01:11:00,
2013-01-24 20:12:00,18.9,6.6,30.39,East,93,0.0,0.0,58,0.00,,---,0.00,VWS V14.01,2013-01-25 01:12:00,
2013-01-24 20:13:00,18.9,6.9,30.39,East,93,0.0,0.0,59,0.00,,---,0.00,VWS V14.01,2013-01-25 01:13:00,
2013-01-24 20:14:00,18.9,6.9,30.39,East,93,0.0,0.0,59,0.00,,---,0.00,VWS V14.01,2013-01-25 01:14:00,
2013-01-24 20:15:00,18.9,6.9,30.40,East,93,0.0,0.0,59,0.00,,---,0.00,VWS V14.01,2013-01-25 01:15:00,
2013-01-24 20:16:00,18.9,6.9,30.40,East,93,0.0,0.0,59,0.00,,---,0.00,VWS V14.01,2013-01-25 01:16:00,
2013-01-24 20:17:00,18.9,7.3,30.40,East,93,0.0,0.0,60,0.00,,---,0.00,VWS V14.01,2013-01-25 01:17:00,
2013-01-24 20:18:00,18.9,7.3,30.40,East,93,0.0,0.0,60,0.00,,---,0.00,VWS V14.01,2013-01-25 01:18:00,
2013-01-24 20:19:00,18.9,6.9,30.40,East,93,2.0,2.0,59,0.00,,---,0.00,VWS V14.01,2013-01-25 01:19:00,
2013-01-24 20:20:00,18.9,6.9,30.40,East,93,0.0,2.0,59,0.00,,---,0.00,VWS V14.01,2013-01-25 01:20:00,
2013-01-24 20:21:00,18.9,6.9,30.40,East,93,0.0,1.0,59,0.00,,---,0.00,VWS V14.01,2013-01-25 01:21:00,
2013-01-24 20:22:00,18.9,6.9,30.40,East,93,0.0,1.0,59,0.00,,---,0.00,VWS V14.01,2013-01-25 01:22:00,
2013-01-24 20:23:00,19.1,7.1,30.40,East,93,0.0,1.0,59,0.00,,---,0.00,VWS V14.01,2013-01-25 01:23:00,
2013-01-24 20:24:00,19.1,6.8,30.40,East,93,0.0,1.0,58,0.00,,---,0.00,VWS V14.01,2013-01-25 01:24:00,
2013-01-24 20:25:00,19.1,6.8,30.40,East,93,0.0,1.0,58,0.00,,---,0.00,VWS V14.01,2013-01-25 01:25:00,
2013-01-24 20:26:00,19.1,6.8,30.40,East,93,0.0,1.0,58,0.00,,---,0.00,VWS V14.01,2013-01-25 01:26:00,
2013-01-24 20:27:00,19.1,6.8,30.40,East,93,0.0,1.0,58,0.00,,---,0.00,VWS V14.01,2013-01-25 01:27:00,
2013-01-24 20:28:00,19.1,6.8,30.40,East,93,3.0,3.0,58,0.00,,---,0.00,VWS V14.01,2013-01-25 01:28:00,
2013-01-24 20:29:00,19.1,6.8,30.40,East,93,0.0,3.0,58,0.00,,---,0.00,VWS V14.01,2013-01-25 01:29:00,
2013-01-24 20:30:00,19.1,6.4,30.39,East,93,2.0,3.0,57,0.00,,---,0.00,VWS V14.01,2013-01-25 01:30:00,
2013-01-24 20:31:00,19.1,6.0,30.39,East,93,0.0,2.0,56,0.00,,---,0.00,VWS V14.01,2013-01-25 01:31:00,
2013-01-24 20:32:00,19.1,6.0,30.39,East,93,1.0,3.0,56,0.00,,---,0.00,VWS V14.01,2013-01-25 01:32:00,
2013-01-24 20:33:00,19.1,6.0,30.39,East,93,1.0,3.0,56,0.00,,---,0.00,VWS V14.01,2013-01-25 01:33:00,
2013-01-24 20:34:00,19.1,6.0,30.39,East,93,0.0,3.0,56,0.00,,---,0.00,VWS V14.01,2013-01-25 01:34:00,
2013-01-24 20:35:00,19.1,6.4,30.39,East,93,0.0,3.0,57,0.00,,---,0.00,VWS V14.01,2013-01-25 01:35:00,
2013-01-24 20:36:00,19.1,6.4,30.39,East,93,0.0,3.0,57,0.00,,---,0.00,VWS V14.01,2013-01-25 01:36:00,
2013-01-24 20:37:00,19.1,6.4,30.39,East,93,0.0,3.0,57,0.00,,---,0.00,VWS V14.01,2013-01-25 01:37:00,
2013-01-24 20:38:00,19.1,6.4,30.39,East,93,0.0,3.0,57,0.00,,---,0.00,VWS V14.01,2013-01-25 01:38:00,
2013-01-24 20:39:00,19.1,6.8,30.39,East,93,0.0,3.0,58,0.00,,---,0.00,VWS V14.01,2013-01-25 01:39:00,
2013-01-24 20:40:00,19.1,6.8,30.39,East,93,0.0,3.0,58,0.00,,---,0.00,VWS V14.01,2013-01-25 01:40:00,
2013-01-24 20:41:00,19.1,6.8,30.39,East,93,0.0,0.0,58,0.00,,---,0.00,VWS V14.01,2013-01-25 01:41:00,
2013-01-24 20:42:00,19.1,6.8,30.39,East,93,0.0,0.0,58,0.00,,---,0.00,VWS V14.01,2013-01-25 01:42:00,
2013-01-24 20:43:00,19.1,6.8,30.39,East,93,0.0,0.0,58,0.00,,---,0.00,VWS V14.01,2013-01-25 01:43:00,
2013-01-24 20:44:00,19.1,6.4,30.39,East,93,0.0,0.0,57,0.00,,---,0.00,VWS V14.01,2013-01-25 01:44:00,
2013-01-24 20:45:00,19.2,6.5,30.39,East,93,1.0,2.0,57,0.00,,---,0.00,VWS V14.01,2013-01-25 01:45:00,
2013-01-24 20:46:00,19.2,6.5,30.39,East,93,0.0,2.0,57,0.00,,---,0.00,VWS V14.01,2013-01-25 01:46:00,
2013-01-24 20:47:00,19.2,6.5,30.39,East,93,0.0,2.0,57,0.00,,---,0.00,VWS V14.01,2013-01-25 01:47:00,
2013-01-24 20:48:00,19.2,6.5,30.39,East,93,0.0,2.0,57,0.00,,---,0.00,VWS V14.01,2013-01-25 01:48:00,
2013-01-24 20:49:00,19.2,6.9,30.39,East,93,0.0,2.0,58,0.00,,---,0.00,VWS V14.01,2013-01-25 01:49:00,
2013-01-24 20:50:00,19.2,6.9,30.39,East,93,0.0,3.0,58,0.00,,---,0.00,VWS V14.01,2013-01-25 01:50:00,
2013-01-24 20:51:00,19.2,6.5,30.39,East,93,0.0,0.0,57,0.00,,---,0.00,VWS V14.01,2013-01-25 01:51:00,
2013-01-24 20:52:00,19.2,6.5,30.39,East,93,0.0,0.0,57,0.00,,---,0.00,VWS V14.01,2013-01-25 01:52:00,
2013-01-24 20:53:00,19.2,6.5,30.39,East,93,0.0,0.0,57,0.00,,---,0.00,VWS V14.01,2013-01-25 01:53:00,
2013-01-24 20:54:00,19.2,6.5,30.39,East,93,0.0,0.0,57,0.00,,---,0.00,VWS V14.01,2013-01-25 01:54:00,
2013-01-24 20:55:00,19.2,6.5,30.39,East,93,0.0,0.0,57,0.00,,---,0.00,VWS V14.01,2013-01-25 01:55:00,
2013-01-24 20:56:00,19.2,6.9,30.39,East,93,0.0,0.0,58,0.00,,---,0.00,VWS V14.01,2013-01-25 01:56:00,
2013-01-24 20:57:00,19.2,6.9,30.39,East,93,0.0,0.0,58,0.00,,---,0.00,VWS V14.01,2013-01-25 01:57:00,
2013-01-24 20:58:00,19.2,6.9,30.39,East,93,0.0,0.0,58,0.00,,---,0.00,VWS V14.01,2013-01-25 01:58:00,
2013-01-24 20:59:00,19.2,6.5,30.39,East,93,0.0,0.0,57,0.00,,---,0.00,VWS V14.01,2013-01-25 01:59:00,
2013-01-24 21:00:00,19.2,6.5,30.39,East,93,0.0,0.0,57,0.00,,---,0.00,VWS V14.01,2013-01-25 02:00:00,
2013-01-24 21:01:00,19.2,6.5,30.39,East,93,0.0,0.0,57,0.00,,---,0.00,VWS V14.01,2013-01-25 02:01:00,
2013-01-24 21:02:00,19.2,6.9,30.39,East,93,0.0,0.0,58,0.00,,---,0.00,VWS V14.01,2013-01-25 02:02:00,
2013-01-24 21:03:00,19.2,6.5,30.39,East,93,0.0,0.0,57,0.00,,---,0.00,VWS V14.01,2013-01-25 02:03:00,
2013-01-24 21:04:00,19.2,6.9,30.39,East,93,0.0,0.0,58,0.00,,---,0.00,VWS V14.01,2013-01-25 02:04:00,
2013-01-24 21:05:00,19.2,6.9,30.39,East,93,0.0,0.0,58,0.00,,---,0.00,VWS V14.01,2013-01-25 02:05:00,
2013-01-24 21:06:00,19.2,6.9,30.39,East,93,1.0,1.0,58,0.00,,---,0.00,VWS V14.01,2013-01-25 02:06:00,
2013-01-24 21:07:00,19.2,6.9,30.39,East,93,0.0,1.0,58,0.00,,---,0.00,VWS V14.01,2013-01-25 02:07:00,
2013-01-24 21:08:00,19.4,6.7,30.39,East,93,0.0,1.0,57,0.00,,---,0.00,VWS V14.01,2013-01-25 02:08:00,
2013-01-24 21:09:00,19.4,6.7,30.39,East,93,0.0,1.0,57,0.00,,---,0.00,VWS V14.01,2013-01-25 02:09:00,
2013-01-24 21:10:00,19.4,6.3,30.39,East,93,0.0,1.0,56,0.00,,---,0.00,VWS V14.01,2013-01-25 02:10:00,
2013-01-24 21:11:00,19.4,6.3,30.39,East,93,0.0,0.0,56,0.00,,---,0.00,VWS V14.01,2013-01-25 02:11:00,
2013-01-24 21:12:00,19.4,6.7,30.39,East,93,0.0,0.0,57,0.00,,---,0.00,VWS V14.01,2013-01-25 02:12:00,
2013-01-24 21:13:00,19.4,6.7,30.39,East,93,0.0,0.0,57,0.00,,---,0.00,VWS V14.01,2013-01-25 02:13:00,
2013-01-24 21:14:00,19.4,7.1,30.39,East,93,0.0,0.0,58,0.00,,---,0.00,VWS V14.01,2013-01-25 02:14:00,
2013-01-24 21:15:00,19.4,7.1,30.39,East,93,0.0,0.0,58,0.00,,---,0.00,VWS V14.01,2013-01-25 02:15:00,
2013-01-24 21:16:00,19.4,7.1,30.39,East,93,0.0,0.0,58,0.00,,---,0.00,VWS V14.01,2013-01-25 02:16:00,
2013-01-24 21:17:00,19.5,7.1,30.39,East,93,0.0,0.0,58,0.00,,---,0.00,VWS V14.01,2013-01-25 02:17:00,
2013-01-24 21:18:00,19.5,8.3,30.39,East,93,0.0,0.0,61,0.00,,---,0.00,VWS V14.01,2013-01-25 02:18:00,
2013-01-24 21:19:00,19.5,8.6,30.39,East,93,0.0,0.0,62,0.00,,---,0.00,VWS V14.01,2013-01-25 02:19:00,
2013-01-24 21:20:00,19.7,8.4,30.39,East,93,0.0,0.0,61,0.00,,---,0.00,VWS V14.01,2013-01-25 02:20:00,
2013-01-24 21:21:00,19.7,8.4,30.39,East,93,0.0,0.0,61,0.00,,---,0.00,VWS V14.01,2013-01-25 02:21:00,
2013-01-24 21:22:00,19.7,8.8,30.39,East,93,0.0,0.0,62,0.00,,---,0.00,VWS V14.01,2013-01-25 02:22:00,
2013-01-24 21:23:00,19.7,8.8,30.39,East,93,0.0,0.0,62,0.00,,---,0.00,VWS V14.01,2013-01-25 02:23:00,
2013-01-24 21:24:00,19.7,8.8,30.39,East,93,0.0,0.0,62,0.00,,---,0.00,VWS V14.01,2013-01-25 02:24:00,
2013-01-24 21:25:00,19.7,8.8,30.39,East,93,0.0,0.0,62,0.00,,---,0.00,VWS V14.01,2013-01-25 02:25:00,
2013-01-24 21:26:00,19.7,8.8,30.39,East,93,0.0,0.0,62,0.00,,---,0.00,VWS V14.01,2013-01-25 02:26:00,
2013-01-24 21:27:00,19.7,8.8,30.39,East,93,0.0,0.0,62,0.00,,---,0.00,VWS V14.01,2013-01-25 02:27:00,
2013-01-24 21:28:00,19.7,8.4,30.39,East,93,0.0,0.0,61,0.00,,---,0.00,VWS V14.01,2013-01-25 02:28:00,
2013-01-24 21:29:00,19.7,8.4,30.39,East,93,0.0,0.0,61,0.00,,---,0.00,VWS V14.01,2013-01-25 02:29:00,
2013-01-24 21:30:00,19.7,8.4,30.38,East,93,0.0,0.0,61,0.00,,---,0.00,VWS V14.01,2013-01-25 02:30:00,
2013-01-24 21:31:00,19.5,8.3,30.38,East,93,0.0,0.0,61,0.00,,---,0.00,VWS V14.01,2013-01-25 02:31:00,
2013-01-24 21:32:00,19.5,8.3,30.38,East,93,0.0,0.0,61,0.00,,---,0.00,VWS V14.01,2013-01-25 02:32:00,
2013-01-24 21:33:00,19.5,8.6,30.38,East,93,0.0,0.0,62,0.00,,---,0.00,VWS V14.01,2013-01-25 02:33:00,
2013-01-24 21:34:00,19.5,8.3,30.38,East,93,0.0,0.0,61,0.00,,---,0.00,VWS V14.01,2013-01-25 02:34:00,
2013-01-24 21:35:00,19.5,8.6,30.38,East,93,0.0,0.0,62,0.00,,---,0.00,VWS V14.01,2013-01-25 02:35:00,
2013-01-24 21:36:00,19.5,8.6,30.38,East,93,0.0,0.0,62,0.00,,---,0.00,VWS V14.01,2013-01-25 02:36:00,
2013-01-24 21:37:00,19.5,8.6,30.38,East,93,0.0,0.0,62,0.00,,---,0.00,VWS V14.01,2013-01-25 02:37:00,
2013-01-24 21:38:00,19.5,8.6,30.38,East,93,0.0,0.0,62,0.00,,---,0.00,VWS V14.01,2013-01-25 02:38:00,
2013-01-24 21:39:00,19.5,9.0,30.38,East,93,0.0,0.0,63,0.00,,---,0.00,VWS V14.01,2013-01-25 02:39:00,
2013-01-24 21:40:00,19.5,9.0,30.38,East,93,0.0,0.0,63,0.00,,---,0.00,VWS V14.01,2013-01-25 02:40:00,
2013-01-24 21:41:00,19.5,9.0,30.38,East,93,0.0,0.0,63,0.00,,---,0.00,VWS V14.01,2013-01-25 02:41:00,
2013-01-24 21:42:00,19.5,9.0,30.38,East,93,0.0,0.0,63,0.00,,---,0.00,VWS V14.01,2013-01-25 02:42:00,
2013-01-24 21:43:00,19.5,9.0,30.38,East,93,0.0,0.0,63,0.00,,---,0.00,VWS V14.01,2013-01-25 02:43:00,
2013-01-24 21:44:00,19.5,9.3,30.38,East,93,0.0,0.0,64,0.00,,---,0.00,VWS V14.01,2013-01-25 02:44:00,
2013-01-24 21:45:00,19.5,9.3,30.38,East,93,0.0,0.0,64,0.00,,---,0.00,VWS V14.01,2013-01-25 02:45:00,
2013-01-24 21:46:00,19.5,9.7,30.38,East,93,0.0,0.0,65,0.00,,---,0.00,VWS V14.01,2013-01-25 02:46:00,
2013-01-24 21:47:00,19.5,9.7,30.38,East,93,0.0,0.0,65,0.00,,---,0.00,VWS V14.01,2013-01-25 02:47:00,
2013-01-24 21:48:00,19.5,9.7,30.38,East,93,0.0,0.0,65,0.00,,---,0.00,VWS V14.01,2013-01-25 02:48:00,
2013-01-24 21:49:00,19.5,9.7,30.38,East,93,0.0,0.0,65,0.00,,---,0.00,VWS V14.01,2013-01-25 02:49:00,
2013-01-24 21:50:00,19.5,9.7,30.38,East,93,0.0,0.0,65,0.00,,---,0.00,VWS V14.01,2013-01-25 02:50:00,
2013-01-24 21:51:00,19.5,9.7,30.38,East,93,0.0,0.0,65,0.00,,---,0.00,VWS V14.01,2013-01-25 02:51:00,
2013-01-24 21:52:00,19.4,9.6,30.38,East,93,0.0,0.0,65,0.00,,---,0.00,VWS V14.01,2013-01-25 02:52:00,
2013-01-24 21:53:00,19.4,9.6,30.38,East,93,0.0,0.0,65,0.00,,---,0.00,VWS V14.01,2013-01-25 02:53:00,
2013-01-24 21:54:00,19.4,9.6,30.38,East,93,0.0,0.0,65,0.00,,---,0.00,VWS V14.01,2013-01-25 02:54:00,
2013-01-24 21:55:00,19.4,9.6,30.38,East,93,0.0,0.0,65,0.00,,---,0.00,VWS V14.01,2013-01-25 02:55:00,
2013-01-24 21:56:00,19.4,9.6,30.38,East,93,0.0,0.0,65,0.00,,---,0.00,VWS V14.01,2013-01-25 02:56:00,
2013-01-24 21:57:00,19.4,9.6,30.38,East,93,0.0,0.0,65,0.00,,---,0.00,VWS V14.01,2013-01-25 02:57:00,
2013-01-24 21:58:00,19.4,9.9,30.38,East,93,0.0,0.0,66,0.00,,---,0.00,VWS V14.01,2013-01-25 02:58:00,
2013-01-24 21:59:00,19.4,9.9,30.38,East,93,0.0,0.0,66,0.00,,---,0.00,VWS V14.01,2013-01-25 02:59:00,
2013-01-24 22:00:00,19.4,9.9,30.37,East,93,0.0,0.0,66,0.00,,---,0.00,VWS V14.01,2013-01-25 03:00:00,
2013-01-24 22:01:00,19.4,9.9,30.37,East,93,0.0,0.0,66,0.00,,---,0.00,VWS V14.01,2013-01-25 03:01:00,
2013-01-24 22:02:00,19.4,10.2,30.37,East,93,0.0,0.0,67,0.00,,---,0.00,VWS V14.01,2013-01-25 03:02:00,
2013-01-24 22:03:00,19.5,10.3,30.37,East,93,0.0,0.0,67,0.00,,---,0.00,VWS V14.01,2013-01-25 03:03:00,
2013-01-24 22:04:00,19.5,10.7,30.37,East,93,0.0,0.0,68,0.00,,---,0.00,VWS V14.01,2013-01-25 03:04:00,
2013-01-24 22:05:00,19.5,10.7,30.37,East,93,0.0,0.0,68,0.00,,---,0.00,VWS V14.01,2013-01-25 03:05:00,
2013-01-24 22:06:00,19.5,10.7,30.37,East,93,0.0,0.0,68,0.00,,---,0.00,VWS V14.01,2013-01-25 03:06:00,
2013-01-24 22:07:00,19.5,10.7,30.37,East,93,0.0,0.0,68,0.00,,---,0.00,VWS V14.01,2013-01-25 03:07:00,
2013-01-24 22:08:00,19.5,10.3,30.37,East,93,0.0,0.0,67,0.00,,---,0.00,VWS V14.01,2013-01-25 03:08:00,
2013-01-24 22:09:00,19.5,10.3,30.37,East,93,0.0,0.0,67,0.00,,---,0.00,VWS V14.01,2013-01-25 03:09:00,
2013-01-24 22:10:00,19.5,10.3,30.37,East,93,0.0,0.0,67,0.00,,---,0.00,VWS V14.01,2013-01-25 03:10:00,
2013-01-24 22:11:00,19.5,10.3,30.37,East,93,0.0,0.0,67,0.00,,---,0.00,VWS V14.01,2013-01-25 03:11:00,
2013-01-24 22:12:00,19.5,10.3,30.37,East,93,0.0,0.0,67,0.00,,---,0.00,VWS V14.01,2013-01-25 03:12:00,
2013-01-24 22:13:00,19.4,10.2,30.37,East,93,0.0,0.0,67,0.00,,---,0.00,VWS V14.01,2013-01-25 03:13:00,
2013-01-24 22:14:00,19.4,10.6,30.37,East,93,0.0,0.0,68,0.00,,---,0.00,VWS V14.01,2013-01-25 03:14:00,
2013-01-24 22:15:00,19.4,10.6,30.37,East,93,0.0,0.0,68,0.00,,---,0.00,VWS V14.01,2013-01-25 03:15:00,
2013-01-24 22:16:00,19.5,10.7,30.37,East,93,0.0,0.0,68,0.00,,---,0.00,VWS V14.01,2013-01-25 03:16:00,
2013-01-24 22:17:00,19.5,10.7,30.37,East,93,0.0,0.0,68,0.00,,---,0.00,VWS V14.01,2013-01-25 03:17:00,
2013-01-24 22:18:00,19.5,10.7,30.37,East,93,0.0,0.0,68,0.00,,---,0.00,VWS V14.01,2013-01-25 03:18:00,
2013-01-24 22:19:00,19.5,10.7,30.37,East,93,0.0,0.0,68,0.00,,---,0.00,VWS V14.01,2013-01-25 03:19:00,
2013-01-24 22:20:00,19.5,10.7,30.37,East,93,0.0,0.0,68,0.00,,---,0.00,VWS V14.01,2013-01-25 03:20:00,
2013-01-24 22:21:00,19.5,11.0,30.37,East,93,0.0,0.0,69,0.00,,---,0.00,VWS V14.01,2013-01-25 03:21:00,
2013-01-24 22:22:00,19.5,11.0,30.37,East,93,0.0,0.0,69,0.00,,---,0.00,VWS V14.01,2013-01-25 03:22:00,
2013-01-24 22:23:00,19.5,11.0,30.37,East,93,0.0,0.0,69,0.00,,---,0.00,VWS V14.01,2013-01-25 03:23:00,
2013-01-24 22:24:00,19.5,11.0,30.37,East,93,0.0,0.0,69,0.00,,---,0.00,VWS V14.01,2013-01-25 03:24:00,
2013-01-24 22:25:00,19.5,11.0,30.37,East,93,0.0,0.0,69,0.00,,---,0.00,VWS V14.01,2013-01-25 03:25:00,
2013-01-24 22:26:00,19.5,11.0,30.37,East,93,0.0,0.0,69,0.00,,---,0.00,VWS V14.01,2013-01-25 03:26:00,
2013-01-24 22:27:00,19.5,11.0,30.37,East,93,0.0,0.0,69,0.00,,---,0.00,VWS V14.01,2013-01-25 03:27:00,
2013-01-24 22:28:00,19.7,11.5,30.37,East,93,0.0,0.0,70,0.00,,---,0.00,VWS V14.01,2013-01-25 03:28:00,
2013-01-24 22:29:00,19.7,11.5,30.37,East,93,0.0,0.0,70,0.00,,---,0.00,VWS V14.01,2013-01-25 03:29:00,
2013-01-24 22:30:00,19.7,11.5,30.36,East,93,0.0,0.0,70,0.00,,---,0.00,VWS V14.01,2013-01-25 03:30:00,
2013-01-24 22:31:00,19.7,11.5,30.36,East,93,0.0,0.0,70,0.00,,---,0.00,VWS V14.01,2013-01-25 03:31:00,
2013-01-24 22:32:00,19.7,11.5,30.36,East,93,0.0,0.0,70,0.00,,---,0.00,VWS V14.01,2013-01-25 03:32:00,
2013-01-24 22:33:00,19.7,11.5,30.36,East,93,0.0,0.0,70,0.00,,---,0.00,VWS V14.01,2013-01-25 03:33:00,
2013-01-24 22:34:00,19.7,11.5,30.36,East,93,0.0,0.0,70,0.00,,---,0.00,VWS V14.01,2013-01-25 03:34:00,
2013-01-24 22:35:00,19.7,11.5,30.36,East,93,0.0,0.0,70,0.00,,---,0.00,VWS V14.01,2013-01-25 03:35:00,
2013-01-24 22:36:00,19.9,11.7,30.36,East,93,0.0,0.0,70,0.00,,---,0.00,VWS V14.01,2013-01-25 03:36:00,
2013-01-24 22:37:00,19.9,11.7,30.36,East,93,0.0,0.0,70,0.00,,---,0.00,VWS V14.01,2013-01-25 03:37:00,
2013-01-24 22:38:00,19.9,12.0,30.36,East,93,0.0,0.0,71,0.00,,---,0.00,VWS V14.01,2013-01-25 03:38:00,
2013-01-24 22:39:00,20.0,12.1,30.36,East,93,0.0,0.0,71,0.00,,---,0.00,VWS V14.01,2013-01-25 03:39:00,
2013-01-24 22:40:00,20.0,12.1,30.36,East,93,0.0,0.0,71,0.00,,---,0.00,VWS V14.01,2013-01-25 03:40:00,
2013-01-24 22:41:00,20.0,12.1,30.36,East,93,1.0,1.0,71,0.00,,---,0.00,VWS V14.01,2013-01-25 03:41:00,
2013-01-24 22:42:00,20.0,12.1,30.36,East,93,0.0,1.0,71,0.00,,---,0.00,VWS V14.01,2013-01-25 03:42:00,
2013-01-24 22:43:00,20.2,12.3,30.36,East,93,0.0,1.0,71,0.00,,---,0.00,VWS V14.01,2013-01-25 03:43:00,
2013-01-24 22:44:00,20.2,12.3,30.36,East,93,0.0,1.0,71,0.00,,---,0.00,VWS V14.01,2013-01-25 03:44:00,
2013-01-24 22:45:00,20.3,12.7,30.35,East,93,0.0,1.0,72,0.00,,---,0.00,VWS V14.01,2013-01-25 03:45:00,
2013-01-24 22:46:00,20.3,12.7,30.35,East,93,0.0,1.0,72,0.00,,---,0.00,VWS V14.01,2013-01-25 03:46:00,
2013-01-24 22:47:00,20.5,12.9,30.35,East,93,1.0,1.0,72,0.00,,---,0.00,VWS V14.01,2013-01-25 03:47:00,
2013-01-24 22:48:00,20.5,12.9,30.35,East,93,0.0,1.0,72,0.00,,---,0.00,VWS V14.01,2013-01-25 03:48:00,
2013-01-24 22:49:00,20.6,13.0,30.35,East,93,0.0,1.0,72,0.00,,---,0.00,VWS V14.01,2013-01-25 03:49:00,
2013-01-24 22:50:00,20.6,13.0,30.35,East,93,0.0,1.0,72,0.00,,---,0.00,VWS V14.01,2013-01-25 03:50:00,
2013-01-24 22:51:00,20.8,13.2,30.35,East,93,0.0,0.0,72,0.00,,---,0.00,VWS V14.01,2013-01-25 03:51:00,
2013-01-24 22:52:00,20.8,13.2,30.35,East,93,3.0,3.0,72,0.00,,---,0.00,VWS V14.01,2013-01-25 03:52:00,
2013-01-24 22:53:00,20.8,13.2,30.35,NNW,336,1.0,3.0,72,0.00,,---,0.00,VWS V14.01,2013-01-25 03:53:00,
2013-01-24 22:54:00,20.8,13.2,30.35,NNW,336,0.0,3.0,72,0.00,,---,0.00,VWS V14.01,2013-01-25 03:54:00,
2013-01-24 22:55:00,21.0,13.1,30.35,NW,310,1.0,3.0,71,0.00,,---,0.00,VWS V14.01,2013-01-25 03:55:00,
2013-01-24 22:56:00,21.0,13.1,30.35,NW,310,1.0,3.0,71,0.00,,---,0.00,VWS V14.01,2013-01-25 03:56:00,
2013-01-24 22:57:00,21.0,13.1,30.35,West,262,3.0,5.0,71,0.00,,---,0.00,VWS V14.01,2013-01-25 03:57:00,
2013-01-24 22:58:00,21.0,13.1,30.35,West,262,0.0,5.0,71,0.00,,---,0.00,VWS V14.01,2013-01-25 03:58:00,
2013-01-24 22:59:00,21.1,13.2,30.35,West,262,0.0,5.0,71,0.00,,---,0.00,VWS V14.01,2013-01-25 03:59:00,
2013-01-24 23:00:00,21.1,13.2,30.35,West,262,0.0,5.0,71,0.00,,---,0.00,VWS V14.01,2013-01-25 04:00:00,
2013-01-24 23:01:00,21.1,13.2,30.35,NW,306,3.0,6.0,71,0.00,,---,0.00,VWS V14.01,2013-01-25 04:01:00,
2013-01-24 23:02:00,21.3,13.4,30.35,NW,306,0.0,6.0,71,0.00,,---,0.00,VWS V14.01,2013-01-25 04:02:00,
2013-01-24 23:03:00,21.3,13.7,30.35,NW,306,0.0,6.0,72,0.00,,---,0.00,VWS V14.01,2013-01-25 04:03:00,
2013-01-24 23:04:00,21.3,13.7,30.35,NW,306,0.0,6.0,72,0.00,,---,0.00,VWS V14.01,2013-01-25 04:04:00,
2013-01-24 23:05:00,21.3,13.7,30.35,NW,306,3.0,6.0,72,0.00,,---,0.00,VWS V14.01,2013-01-25 04:05:00,
2013-01-24 23:06:00,21.4,13.8,30.35,NW,306,0.0,6.0,72,0.00,,---,0.00,VWS V14.01,2013-01-25 04:06:00,
2013-01-24 23:07:00,21.4,13.8,30.35,NW,306,2.0,6.0,72,0.00,,---,0.00,VWS V14.01,2013-01-25 04:07:00,
2013-01-24 23:08:00,21.4,13.8,30.35,NW,306,3.0,6.0,72,0.00,,---,0.00,VWS V14.01,2013-01-25 04:08:00,
2013-01-24 23:09:00,21.6,14.0,30.35,NW,306,2.0,6.0,72,0.00,,---,0.00,VWS V14.01,2013-01-25 04:09:00,
2013-01-24 23:10:00,21.6,14.0,30.35,NW,306,2.0,6.0,72,0.00,,---,0.00,VWS V14.01,2013-01-25 04:10:00,
2013-01-24 23:11:00,21.6,14.0,30.35,NW,306,0.0,3.0,72,0.00,,---,0.00,VWS V14.01,2013-01-25 04:11:00,
2013-01-24 23:12:00,21.6,14.0,30.35,NW,306,0.0,3.0,72,0.00,,---,0.00,VWS V14.01,2013-01-25 04:12:00,
2013-01-24 23:13:00,21.6,14.0,30.35,NW,306,1.0,3.0,72,0.00,,---,0.00,VWS V14.01,2013-01-25 04:13:00,
2013-01-24 23:14:00,21.8,14.5,30.35,NW,309,1.0,5.0,73,0.00,,---,0.00,VWS V14.01,2013-01-25 04:14:00,
2013-01-24 23:15:00,21.8,14.2,30.34,NW,309,0.0,5.0,72,0.00,,---,0.00,VWS V14.01,2013-01-25 04:15:00,
2013-01-24 23:16:00,21.8,14.2,30.34,NW,309,1.0,5.0,72,0.00,,---,0.00,VWS V14.01,2013-01-25 04:16:00,
2013-01-24 23:17:00,21.8,14.5,30.34,WNW,286,2.0,6.0,73,0.00,,---,0.00,VWS V14.01,2013-01-25 04:17:00,
2013-01-24 23:18:00,21.8,14.5,30.34,West,279,0.0,6.0,73,0.00,,---,0.00,VWS V14.01,2013-01-25 04:18:00,
2013-01-24 23:19:00,21.8,14.5,30.34,West,279,0.0,6.0,73,0.00,,---,0.00,VWS V14.01,2013-01-25 04:19:00,
2013-01-24 23:20:00,21.9,14.6,30.34,West,279,3.0,6.0,73,0.00,,---,0.00,VWS V14.01,2013-01-25 04:20:00,
2013-01-24 23:21:00,21.9,14.6,30.34,West,279,2.0,3.0,73,0.00,,---,0.00,VWS V14.01,2013-01-25 04:21:00,
2013-01-24 23:22:00,21.9,14.6,30.34,West,279,1.0,3.0,73,0.00,,---,0.00,VWS V14.01,2013-01-25 04:22:00,
2013-01-24 23:23:00,21.9,14.6,30.34,West,279,0.0,3.0,73,0.00,,---,0.00,VWS V14.01,2013-01-25 04:23:00,
2013-01-24 23:24:00,21.9,14.6,30.34,West,279,0.0,3.0,73,0.00,,---,0.00,VWS V14.01,2013-01-25 04:24:00,
2013-01-24 23:25:00,21.9,14.6,30.34,NNW,336,3.0,5.0,73,0.00,,---,0.00,VWS V14.01,2013-01-25 04:25:00,
2013-01-24 23:26:00,21.9,14.6,30.34,NNW,336,0.0,5.0,73,0.00,,---,0.00,VWS V14.01,2013-01-25 04:26:00,
2013-01-24 23:27:00,21.9,14.6,30.34,NNW,336,0.0,5.0,73,0.00,,---,0.00,VWS V14.01,2013-01-25 04:27:00,
2013-01-24 23:28:00,22.1,15.1,30.34,NNW,336,0.0,5.0,74,0.00,,---,0.00,VWS V14.01,2013-01-25 04:28:00,
2013-01-24 23:29:00,22.1,15.1,30.34,NNW,336,0.0,5.0,74,0.00,,---,0.00,VWS V14.01,2013-01-25 04:29:00,
2013-01-24 23:30:00,22.1,15.1,30.33,West,281,2.0,5.0,74,0.00,,---,0.00,VWS V14.01,2013-01-25 04:30:00,
2013-01-24 23:31:00,22.1,15.1,30.33,West,269,5.0,6.0,74,0.00,,---,0.00,VWS V14.01,2013-01-25 04:31:00,
2013-01-24 23:32:00,22.1,15.1,30.33,WNW,282,2.0,6.0,74,0.00,,---,0.00,VWS V14.01,2013-01-25 04:32:00,
2013-01-24 23:33:00,22.1,15.1,30.33,WNW,282,0.0,6.0,74,0.00,,---,0.00,VWS V14.01,2013-01-25 04:33:00,
2013-01-24 23:34:00,22.1,15.1,30.33,WNW,282,0.0,6.0,74,0.00,,---,0.00,VWS V14.01,2013-01-25 04:34:00,
2013-01-24 23:35:00,22.1,15.1,30.33,WNW,282,0.0,6.0,74,0.00,,---,0.00,VWS V14.01,2013-01-25 04:35:00,
2013-01-24 23:36:00,22.2,15.2,30.33,WNW,282,0.0,6.0,74,0.00,,---,0.00,VWS V14.01,2013-01-25 04:36:00,
2013-01-24 23:37:00,22.2,15.2,30.33,WNW,282,0.0,6.0,74,0.00,,---,0.00,VWS V14.01,2013-01-25 04:37:00,
2013-01-24 23:38:00,22.2,15.2,30.33,WNW,282,0.0,6.0,74,0.00,,---,0.00,VWS V14.01,2013-01-25 04:38:00,
2013-01-24 23:39:00,22.2,15.2,30.33,WNW,282,0.0,6.0,74,0.00,,---,0.00,VWS V14.01,2013-01-25 04:39:00,
2013-01-24 23:40:00,22.2,15.2,30.33,WNW,282,0.0,6.0,74,0.00,,---,0.00,VWS V14.01,2013-01-25 04:40:00,
2013-01-24 23:41:00,22.2,15.2,30.33,WNW,282,0.0,3.0,74,0.00,,---,0.00,VWS V14.01,2013-01-25 04:41:00,
2013-01-24 23:42:00,22.2,15.5,30.33,WNW,282,2.0,3.0,75,0.00,,---,0.00,VWS V14.01,2013-01-25 04:42:00,
2013-01-24 23:43:00,22.2,15.5,30.33,WNW,282,0.0,3.0,75,0.00,,---,0.00,VWS V14.01,2013-01-25 04:43:00,
2013-01-24 23:44:00,22.2,15.5,30.33,WNW,289,0.0,5.0,75,0.00,,---,0.00,VWS V14.01,2013-01-25 04:44:00,
2013-01-24 23:45:00,22.4,15.7,30.31,WNW,289,0.0,5.0,75,0.00,,---,0.00,VWS V14.01,2013-01-25 04:45:00,
2013-01-24 23:46:00,22.4,15.7,30.31,WNW,289,0.0,5.0,75,0.00,,---,0.00,VWS V14.01,2013-01-25 04:46:00,
2013-01-24 23:47:00,22.4,15.7,30.31,WNW,289,0.0,5.0,75,0.00,,---,0.00,VWS V14.01,2013-01-25 04:47:00,
2013-01-24 23:48:00,22.4,15.7,30.31,WNW,289,1.0,5.0,75,0.00,,---,0.00,VWS V14.01,2013-01-25 04:48:00,
2013-01-24 23:49:00,22.4,15.7,30.31,WNW,289,5.0,5.0,75,0.00,,---,0.00,VWS V14.01,2013-01-25 04:49:00,
2013-01-24 23:50:00,22.4,15.7,30.31,WNW,289,3.0,5.0,75,0.00,,---,0.00,VWS V14.01,2013-01-25 04:50:00,
2013-01-24 23:51:00,22.4,15.7,30.31,WNW,289,1.0,3.0,75,0.00,,---,0.00,VWS V14.01,2013-01-25 04:51:00,
2013-01-24 23:52:00,22.4,15.7,30.31,WNW,289,2.0,5.0,75,0.00,,---,0.00,VWS V14.01,2013-01-25 04:52:00,
2013-01-24 23:53:00,22.4,15.7,30.31,WNW,289,1.0,5.0,75,0.00,,---,0.00,VWS V14.01,2013-01-25 04:53:00,
2013-01-24 23:54:00,22.4,15.7,30.31,WNW,296,2.0,5.0,75,0.00,,---,0.00,VWS V14.01,2013-01-25 04:54:00,
2013-01-24 23:55:00,22.4,15.7,30.31,WNW,296,0.0,5.0,75,0.00,,---,0.00,VWS V14.01,2013-01-25 04:55:00,
2013-01-24 23:56:00,22.4,15.7,30.31,WNW,296,0.0,5.0,75,0.00,,---,0.00,VWS V14.01,2013-01-25 04:56:00,
2013-01-24 23:57:00,22.4,15.7,30.31,WNW,296,2.0,5.0,75,0.00,,---,0.00,VWS V14.01,2013-01-25 04:57:00,
2013-01-24 23:58:00,22.4,15.7,30.31,WNW,299,2.0,5.0,75,0.00,,---,0.00,VWS V14.01,2013-01-25 04:58:00,
2013-01-24 23:59:00,22.4,15.7,30.31,WNW,299,0.0,5.0,75,0.00,,---,0.00,VWS V14.01,2013-01-25 04:59:00,